Wetterdaten: aktuell Mittwoch, 29.03.2023 18:25
Datum Zeit Temp.2m Feuchte 2m Luftdruck Regen Wind Richtung Richtung ET Taupunkt Windchill Windben Empfang
29.03.2023 18:25 5,1 C 80 % 1024,1 hPa 0,0 l/m 14,5 km/h (3 Bft) O-SO 112 0,000 mm 1,9 C -0,5 C 17,7 km/h (3 Bft) 100,00 %
29.03.2023 18:24 5,1 C 80 % 1024,1 hPa 0,0 l/m 12,9 km/h (3 Bft) O-SO 112 0,000 mm 1,9 C 0,3 C 14,5 km/h (3 Bft) 100,00 %
29.03.2023 18:23 5,1 C 81 % 1024,1 hPa 0,0 l/m 12,9 km/h (3 Bft) O-SO 112 0,000 mm 2,1 C 0,3 C 14,5 km/h (3 Bft) 100,00 %
29.03.2023 18:22 5,2 C 81 % 1024,2 hPa 0,0 l/m 12,9 km/h (3 Bft) O-SO 112 0,000 mm 2,2 C 0,5 C 16,1 km/h (3 Bft) 100,00 %
29.03.2023 18:21 5,2 C 81 % 1024,2 hPa 0,0 l/m 12,9 km/h (3 Bft) O-SO 112 0,000 mm 2,2 C 0,5 C 16,1 km/h (3 Bft) 100,00 %
29.03.2023 18:20 5,2 C 81 % 1024,3 hPa 0,0 l/m 12,9 km/h (3 Bft) O-SO 112 0,000 mm 2,2 C 0,5 C 16,1 km/h (3 Bft) 100,00 %
29.03.2023 18:19 5,2 C 81 % 1024,3 hPa 0,0 l/m 12,9 km/h (3 Bft) O-SO 112 0,000 mm 2,2 C 0,5 C 16,1 km/h (3 Bft) 100,00 %
29.03.2023 18:18 5,2 C 81 % 1024,3 hPa 0,0 l/m 12,9 km/h (3 Bft) SO 135 0,000 mm 2,2 C 0,5 C 14,5 km/h (3 Bft) 100,00 %
29.03.2023 18:17 5,2 C 81 % 1024,2 hPa 0,0 l/m 12,9 km/h (3 Bft) O-SO 112 0,000 mm 2,2 C 0,5 C 14,5 km/h (3 Bft) 100,00 %
29.03.2023 18:16 5,2 C 80 % 1024,3 hPa 0,0 l/m 14,5 km/h (3 Bft) O-SO 112 0,000 mm 2,0 C -0,4 C 16,1 km/h (3 Bft) 95,65 %
29.03.2023 18:15 5,2 C 80 % 1024,3 hPa 0,0 l/m 14,5 km/h (3 Bft) O-SO 112 0,000 mm 2,0 C -0,4 C 17,7 km/h (3 Bft) 100,00 %
29.03.2023 18:14 5,2 C 80 % 1024,3 hPa 0,0 l/m 14,5 km/h (3 Bft) O-SO 112 0,000 mm 2,0 C -0,4 C 14,5 km/h (3 Bft) 100,00 %
29.03.2023 18:13 5,2 C 80 % 1024,3 hPa 0,0 l/m 14,5 km/h (3 Bft) O-SO 112 0,000 mm 2,0 C -0,4 C 16,1 km/h (3 Bft) 100,00 %
29.03.2023 18:12 5,2 C 80 % 1024,3 hPa 0,0 l/m 14,5 km/h (3 Bft) SO 135 0,000 mm 2,0 C -0,4 C 16,1 km/h (3 Bft) 95,65 %
29.03.2023 18:11 5,2 C 81 % 1024,3 hPa 0,0 l/m 16,1 km/h (3 Bft) O-SO 112 0,000 mm 2,2 C -1,2 C 19,3 km/h (3 Bft) 100,00 %
29.03.2023 18:10 5,2 C 81 % 1024,3 hPa 0,0 l/m 16,1 km/h (3 Bft) O-SO 112 0,000 mm 2,2 C -1,2 C 17,7 km/h (3 Bft) 100,00 %
29.03.2023 18:09 5,1 C 81 % 1024,3 hPa 0,0 l/m 11,3 km/h (2 Bft) O-SO 112 0,000 mm 2,1 C 1,3 C 14,5 km/h (3 Bft) 95,65 %
29.03.2023 18:08 5,1 C 80 % 1024,2 hPa 0,0 l/m 14,5 km/h (3 Bft) O-SO 112 0,000 mm 1,9 C -0,5 C 17,7 km/h (3 Bft) 100,00 %
29.03.2023 18:07 5,1 C 80 % 1024,3 hPa 0,0 l/m 14,5 km/h (3 Bft) O-SO 112 0,000 mm 1,9 C -0,5 C 19,3 km/h (3 Bft) 100,00 %
29.03.2023 18:06 5,1 C 80 % 1024,2 hPa 0,0 l/m 14,5 km/h (3 Bft) O-SO 112 0,000 mm 1,9 C -0,5 C 17,7 km/h (3 Bft) 100,00 %
29.03.2023 18:05 5,2 C 80 % 1024,3 hPa 0,0 l/m 14,5 km/h (3 Bft) O-SO 112 0,000 mm 2,0 C -0,4 C 17,7 km/h (3 Bft) 100,00 %
29.03.2023 18:04 5,2 C 80 % 1024,3 hPa 0,0 l/m 16,1 km/h (3 Bft) O-SO 112 0,000 mm 2,0 C -1,2 C 17,7 km/h (3 Bft) 95,65 %
29.03.2023 18:03 5,2 C 81 % 1024,3 hPa 0,0 l/m 16,1 km/h (3 Bft) O-SO 112 0,000 mm 2,2 C -1,2 C 17,7 km/h (3 Bft) 100,00 %
29.03.2023 18:02 5,2 C 81 % 1024,2 hPa 0,0 l/m 14,5 km/h (3 Bft) O-SO 112 0,000 mm 2,2 C -0,4 C 17,7 km/h (3 Bft) 100,00 %
29.03.2023 18:01 5,1 C 80 % 1024,3 hPa 0,0 l/m 16,1 km/h (3 Bft) SO 135 0,000 mm 1,9 C -1,3 C 17,7 km/h (3 Bft) 100,00 %
29.03.2023 18:00 5,1 C 81 % 1024,2 hPa 0,0 l/m 14,5 km/h (3 Bft) O-SO 112 0,000 mm 2,1 C -0,5 C 16,1 km/h (3 Bft) 100,00 %
29.03.2023 17:59 5,2 C 80 % 1024,2 hPa 0,0 l/m 14,5 km/h (3 Bft) O-SO 112 0,000 mm 2,0 C -0,4 C 17,7 km/h (3 Bft) 100,00 %
29.03.2023 17:58 5,2 C 80 % 1024,2 hPa 0,0 l/m 16,1 km/h (3 Bft) O-SO 112 0,000 mm 2,0 C -1,2 C 19,3 km/h (3 Bft) 100,00 %
29.03.2023 17:57 5,2 C 80 % 1024,2 hPa 0,0 l/m 17,7 km/h (3 Bft) O-SO 112 0,000 mm 2,0 C -2,0 C 19,3 km/h (3 Bft) 100,00 %
29.03.2023 17:56 5,2 C 81 % 1024,2 hPa 0,0 l/m 17,7 km/h (3 Bft) O-SO 112 0,000 mm 2,2 C -2,0 C 20,9 km/h (4 Bft) 95,65 %
29.03.2023 17:55 5,2 C 80 % 1024,2 hPa 0,0 l/m 16,1 km/h (3 Bft) O-SO 112 0,000 mm 2,0 C -1,2 C 19,3 km/h (3 Bft) 100,00 %
29.03.2023 17:54 5,2 C 81 % 1024,2 hPa 0,0 l/m 17,7 km/h (3 Bft) O-SO 112 0,000 mm 2,2 C -2,0 C 19,3 km/h (3 Bft) 95,65 %
29.03.2023 17:53 5,2 C 81 % 1024,1 hPa 0,0 l/m 14,5 km/h (3 Bft) O-SO 112 0,000 mm 2,2 C -0,4 C 17,7 km/h (3 Bft) 95,65 %
29.03.2023 17:52 5,2 C 81 % 1024,1 hPa 0,0 l/m 16,1 km/h (3 Bft) O-SO 112 0,000 mm 2,2 C -1,2 C 19,3 km/h (3 Bft) 95,65 %
29.03.2023 17:51 5,1 C 80 % 1024,1 hPa 0,0 l/m 17,7 km/h (3 Bft) O-SO 112 0,000 mm 1,9 C -2,1 C 20,9 km/h (4 Bft) 100,00 %
29.03.2023 17:50 5,2 C 80 % 1024,2 hPa 0,0 l/m 19,3 km/h (3 Bft) O-SO 112 0,000 mm 2,0 C -2,6 C 20,9 km/h (4 Bft) 100,00 %
29.03.2023 17:49 5,2 C 81 % 1024,3 hPa 0,0 l/m 19,3 km/h (3 Bft) O-SO 112 0,000 mm 2,2 C -2,6 C 20,9 km/h (4 Bft) 100,00 %
29.03.2023 17:48 5,2 C 80 % 1024,2 hPa 0,0 l/m 17,7 km/h (3 Bft) O-SO 112 0,000 mm 2,0 C -2,0 C 19,3 km/h (3 Bft) 100,00 %
29.03.2023 17:47 5,2 C 81 % 1024,2 hPa 0,0 l/m 17,7 km/h (3 Bft) O-SO 112 0,000 mm 2,2 C -2,0 C 19,3 km/h (3 Bft) 100,00 %
29.03.2023 17:46 5,2 C 81 % 1024,2 hPa 0,0 l/m 16,1 km/h (3 Bft) O-SO 112 0,000 mm 2,2 C -1,2 C 17,7 km/h (3 Bft) 100,00 %
29.03.2023 17:45 5,2 C 81 % 1024,2 hPa 0,0 l/m 16,1 km/h (3 Bft) O-SO 112 0,000 mm 2,2 C -1,2 C 19,3 km/h (3 Bft) 91,30 %
29.03.2023 17:44 5,2 C 81 % 1024,2 hPa 0,0 l/m 14,5 km/h (3 Bft) O 90 0,000 mm 2,2 C -0,4 C 17,7 km/h (3 Bft) 95,65 %
29.03.2023 17:43 5,2 C 81 % 1024,2 hPa 0,0 l/m 14,5 km/h (3 Bft) O-SO 112 0,000 mm 2,2 C -0,4 C 16,1 km/h (3 Bft) 100,00 %
29.03.2023 17:42 5,2 C 81 % 1024,2 hPa 0,0 l/m 16,1 km/h (3 Bft) O-SO 112 0,000 mm 2,2 C -1,2 C 17,7 km/h (3 Bft) 100,00 %
29.03.2023 17:41 5,2 C 81 % 1024,3 hPa 0,0 l/m 14,5 km/h (3 Bft) O-SO 112 0,000 mm 2,2 C -0,4 C 17,7 km/h (3 Bft) 100,00 %
29.03.2023 17:40 5,1 C 81 % 1024,3 hPa 0,0 l/m 16,1 km/h (3 Bft) O-SO 112 0,000 mm 2,1 C -1,3 C 17,7 km/h (3 Bft) 95,65 %
29.03.2023 17:39 5,2 C 81 % 1024,2 hPa 0,0 l/m 16,1 km/h (3 Bft) O-SO 112 0,000 mm 2,2 C -1,2 C 19,3 km/h (3 Bft) 100,00 %
29.03.2023 17:38 5,1 C 81 % 1024,3 hPa 0,0 l/m 16,1 km/h (3 Bft) O-SO 112 0,000 mm 2,1 C -1,3 C 17,7 km/h (3 Bft) 100,00 %
29.03.2023 17:37 5,2 C 81 % 1024,3 hPa 0,0 l/m 16,1 km/h (3 Bft) O-SO 112 0,000 mm 2,2 C -1,2 C 17,7 km/h (3 Bft) 95,65 %
29.03.2023 17:36 5,1 C 81 % 1024,3 hPa 0,0 l/m 16,1 km/h (3 Bft) O-SO 112 0,000 mm 2,1 C -1,3 C 17,7 km/h (3 Bft) 100,00 %
29.03.2023 17:35 5,1 C 81 % 1024,3 hPa 0,0 l/m 17,7 km/h (3 Bft) O-SO 112 0,000 mm 2,1 C -2,1 C 20,9 km/h (4 Bft) 95,65 %
29.03.2023 17:34 5,2 C 81 % 1024,3 hPa 0,0 l/m 16,1 km/h (3 Bft) O-SO 112 0,000 mm 2,2 C -1,2 C 19,3 km/h (3 Bft) 100,00 %
29.03.2023 17:33 5,2 C 81 % 1024,3 hPa 0,0 l/m 14,5 km/h (3 Bft) O-SO 112 0,000 mm 2,2 C -0,4 C 17,7 km/h (3 Bft) 95,65 %
29.03.2023 17:32 5,2 C 81 % 1024,4 hPa 0,0 l/m 14,5 km/h (3 Bft) O-SO 112 0,000 mm 2,2 C -0,4 C 17,7 km/h (3 Bft) 95,65 %
29.03.2023 17:31 5,2 C 81 % 1024,3 hPa 0,0 l/m 14,5 km/h (3 Bft) O-SO 112 0,000 mm 2,2 C -0,4 C 17,7 km/h (3 Bft) 100,00 %
29.03.2023 17:30 5,2 C 81 % 1024,4 hPa 0,0 l/m 14,5 km/h (3 Bft) SO 135 0,000 mm 2,2 C -0,4 C 16,1 km/h (3 Bft) 95,65 %
29.03.2023 17:29 5,2 C 81 % 1024,4 hPa 0,0 l/m 14,5 km/h (3 Bft) O-SO 112 0,000 mm 2,2 C -0,4 C 16,1 km/h (3 Bft) 100,00 %
29.03.2023 17:28 5,2 C 81 % 1024,4 hPa 0,0 l/m 14,5 km/h (3 Bft) O-SO 112 0,000 mm 2,2 C -0,4 C 16,1 km/h (3 Bft) 100,00 %
29.03.2023 17:27 5,2 C 81 % 1024,4 hPa 0,0 l/m 14,5 km/h (3 Bft) O-SO 112 0,000 mm 2,2 C -0,4 C 16,1 km/h (3 Bft) 100,00 %
29.03.2023 17:26 5,2 C 81 % 1024,4 hPa 0,0 l/m 14,5 km/h (3 Bft) O-SO 112 0,000 mm 2,2 C -0,4 C 16,1 km/h (3 Bft) 95,65 %
29.03.2023 17:25 5,2 C 81 % 1024,4 hPa 0,0 l/m 11,3 km/h (2 Bft) O-SO 112 0,000 mm 2,2 C 1,4 C 14,5 km/h (3 Bft) 91,30 %
29.03.2023 17:24 5,2 C 80 % 1024,4 hPa 0,0 l/m 11,3 km/h (2 Bft) O-SO 112 0,000 mm 2,0 C 1,4 C 14,5 km/h (3 Bft) 100,00 %
29.03.2023 17:23 5,2 C 81 % 1024,4 hPa 0,0 l/m 16,1 km/h (3 Bft) O-SO 112 0,000 mm 2,2 C -1,2 C 17,7 km/h (3 Bft) 100,00 %
29.03.2023 17:22 5,2 C 81 % 1024,4 hPa 0,0 l/m 14,5 km/h (3 Bft) O-SO 112 0,000 mm 2,2 C -0,4 C 17,7 km/h (3 Bft) 100,00 %
29.03.2023 17:21 5,2 C 81 % 1024,5 hPa 0,0 l/m 16,1 km/h (3 Bft) O-SO 112 0,000 mm 2,2 C -1,2 C 17,7 km/h (3 Bft) 95,65 %
29.03.2023 17:20 5,2 C 81 % 1024,4 hPa 0,0 l/m 16,1 km/h (3 Bft) O-SO 112 0,000 mm 2,2 C -1,2 C 19,3 km/h (3 Bft) 100,00 %
29.03.2023 17:19 5,2 C 81 % 1024,4 hPa 0,0 l/m 14,5 km/h (3 Bft) O-SO 112 0,000 mm 2,2 C -0,4 C 16,1 km/h (3 Bft) 100,00 %
29.03.2023 17:18 5,2 C 81 % 1024,4 hPa 0,0 l/m 14,5 km/h (3 Bft) O-SO 112 0,000 mm 2,2 C -0,4 C 17,7 km/h (3 Bft) 91,30 %
29.03.2023 17:17 5,2 C 81 % 1024,4 hPa 0,0 l/m 14,5 km/h (3 Bft) O-SO 112 0,000 mm 2,2 C -0,4 C 16,1 km/h (3 Bft) 100,00 %
29.03.2023 17:16 5,2 C 81 % 1024,4 hPa 0,0 l/m 14,5 km/h (3 Bft) O-SO 112 0,000 mm 2,2 C -0,4 C 17,7 km/h (3 Bft) 100,00 %
29.03.2023 17:15 5,2 C 81 % 1024,4 hPa 0,0 l/m 14,5 km/h (3 Bft) O-SO 112 0,000 mm 2,2 C -0,4 C 17,7 km/h (3 Bft) 100,00 %
29.03.2023 17:14 5,2 C 81 % 1024,4 hPa 0,0 l/m 12,9 km/h (3 Bft) O-SO 112 0,000 mm 2,2 C 0,5 C 17,7 km/h (3 Bft) 100,00 %
29.03.2023 17:13 5,2 C 81 % 1024,4 hPa 0,0 l/m 14,5 km/h (3 Bft) O-SO 112 0,000 mm 2,2 C -0,4 C 16,1 km/h (3 Bft) 100,00 %
29.03.2023 17:12 5,2 C 81 % 1024,4 hPa 0,0 l/m 16,1 km/h (3 Bft) O-SO 112 0,000 mm 2,2 C -1,2 C 17,7 km/h (3 Bft) 100,00 %
29.03.2023 17:11 5,2 C 81 % 1024,4 hPa 0,0 l/m 16,1 km/h (3 Bft) O-SO 112 0,000 mm 2,2 C -1,2 C 17,7 km/h (3 Bft) 100,00 %
29.03.2023 17:10 5,2 C 81 % 1024,4 hPa 0,0 l/m 16,1 km/h (3 Bft) O-SO 112 0,000 mm 2,2 C -1,2 C 19,3 km/h (3 Bft) 100,00 %
29.03.2023 17:09 5,3 C 81 % 1024,4 hPa 0,0 l/m 14,5 km/h (3 Bft) O-SO 112 0,000 mm 2,3 C -0,3 C 17,7 km/h (3 Bft) 100,00 %
29.03.2023 17:08 5,3 C 81 % 1024,4 hPa 0,0 l/m 14,5 km/h (3 Bft) O-SO 112 0,000 mm 2,3 C -0,3 C 17,7 km/h (3 Bft) 100,00 %
29.03.2023 17:07 5,3 C 81 % 1024,4 hPa 0,0 l/m 14,5 km/h (3 Bft) O-SO 112 0,000 mm 2,3 C -0,3 C 16,1 km/h (3 Bft) 100,00 %
29.03.2023 17:06 5,3 C 81 % 1024,4 hPa 0,0 l/m 12,9 km/h (3 Bft) SO 135 0,000 mm 2,3 C 0,6 C 17,7 km/h (3 Bft) 100,00 %
29.03.2023 17:05 5,3 C 81 % 1024,5 hPa 0,0 l/m 11,3 km/h (2 Bft) SO 135 0,000 mm 2,3 C 1,5 C 14,5 km/h (3 Bft) 100,00 %
29.03.2023 17:04 5,2 C 81 % 1024,5 hPa 0,0 l/m 11,3 km/h (2 Bft) SO 135 0,000 mm 2,2 C 1,4 C 14,5 km/h (3 Bft) 100,00 %
29.03.2023 17:03 5,2 C 81 % 1024,5 hPa 0,0 l/m 8,0 km/h (2 Bft) SO 135 0,000 mm 2,2 C 3,8 C 11,3 km/h (2 Bft) 95,65 %
29.03.2023 17:02 5,3 C 80 % 1024,6 hPa 0,0 l/m 9,7 km/h (2 Bft) O-SO 112 0,000 mm 2,1 C 2,6 C 14,5 km/h (3 Bft) 95,65 %
29.03.2023 17:01 5,3 C 81 % 1024,6 hPa 0,0 l/m 11,3 km/h (2 Bft) SO 135 0,000 mm 2,3 C 1,5 C 14,5 km/h (3 Bft) 100,00 %
29.03.2023 17:00 5,3 C 82 % 1024,6 hPa 0,0 l/m 11,3 km/h (2 Bft) SO 135 0,000 mm 2,5 C 1,5 C 14,5 km/h (3 Bft) 100,00 %
29.03.2023 16:59 5,2 C 81 % 1024,6 hPa 0,0 l/m 11,3 km/h (2 Bft) O-SO 112 0,000 mm 2,2 C 1,4 C 16,1 km/h (3 Bft) 95,65 %
29.03.2023 16:58 5,2 C 82 % 1024,5 hPa 0,0 l/m 9,7 km/h (2 Bft) O-SO 112 0,000 mm 2,4 C 2,5 C 14,5 km/h (3 Bft) 100,00 %
29.03.2023 16:57 5,2 C 81 % 1024,6 hPa 0,0 l/m 11,3 km/h (2 Bft) O-SO 112 0,000 mm 2,2 C 1,4 C 19,3 km/h (3 Bft) 100,00 %
29.03.2023 16:56 5,1 C 81 % 1024,4 hPa 0,0 l/m 14,5 km/h (3 Bft) O-SO 112 0,000 mm 2,1 C -0,5 C 17,7 km/h (3 Bft) 100,00 %
29.03.2023 16:55 5,1 C 81 % 1024,6 hPa 0,0 l/m 14,5 km/h (3 Bft) O-SO 112 0,000 mm 2,1 C -0,5 C 17,7 km/h (3 Bft) 100,00 %
29.03.2023 16:54 5,1 C 81 % 1024,6 hPa 0,0 l/m 11,3 km/h (2 Bft) O-SO 112 0,000 mm 2,1 C 1,3 C 14,5 km/h (3 Bft) 95,65 %
29.03.2023 16:53 5,1 C 82 % 1024,6 hPa 0,0 l/m 11,3 km/h (2 Bft) O-SO 112 0,000 mm 2,3 C 1,3 C 16,1 km/h (3 Bft) 100,00 %
29.03.2023 16:52 5,1 C 81 % 1024,6 hPa 0,0 l/m 14,5 km/h (3 Bft) O-SO 112 0,000 mm 2,1 C -0,5 C 16,1 km/h (3 Bft) 100,00 %
29.03.2023 16:51 5,1 C 82 % 1024,7 hPa 0,0 l/m 12,9 km/h (3 Bft) SO 135 0,000 mm 2,3 C 0,3 C 14,5 km/h (3 Bft) 100,00 %
29.03.2023 16:50 4,9 C 82 % 1024,6 hPa 0,0 l/m 12,9 km/h (3 Bft) O-SO 112 0,000 mm 2,1 C 0,1 C 14,5 km/h (3 Bft) 100,00 %
29.03.2023 16:49 4,9 C 82 % 1024,7 hPa 0,0 l/m 9,7 km/h (2 Bft) SO 135 0,000 mm 2,1 C 2,2 C 16,1 km/h (3 Bft) 100,00 %
29.03.2023 16:48 4,9 C 82 % 1024,6 hPa 0,0 l/m 14,5 km/h (3 Bft) O-SO 112 0,000 mm 2,1 C -0,8 C 16,1 km/h (3 Bft) 100,00 %
29.03.2023 16:47 4,8 C 82 % 1024,6 hPa 0,0 l/m 12,9 km/h (3 Bft) O-SO 112 0,000 mm 2,0 C -0,0 C 17,7 km/h (3 Bft) 100,00 %
29.03.2023 16:46 4,8 C 82 % 1024,6 hPa 0,0 l/m 14,5 km/h (3 Bft) O-SO 112 0,000 mm 2,0 C -0,9 C 17,7 km/h (3 Bft) 95,65 %
29.03.2023 16:45 4,8 C 82 % 1024,7 hPa 0,0 l/m 11,3 km/h (2 Bft) O-SO 112 0,000 mm 2,0 C 1,0 C 14,5 km/h (3 Bft) 95,65 %
29.03.2023 16:44 4,7 C 81 % 1024,6 hPa 0,0 l/m 14,5 km/h (3 Bft) O-SO 112 0,000 mm 1,7 C -1,0 C 19,3 km/h (3 Bft) 95,65 %
29.03.2023 16:43 4,7 C 81 % 1024,6 hPa 0,0 l/m 17,7 km/h (3 Bft) O-SO 112 0,000 mm 1,7 C -2,6 C 20,9 km/h (4 Bft) 100,00 %
29.03.2023 16:42 4,7 C 81 % 1024,6 hPa 0,0 l/m 17,7 km/h (3 Bft) O-SO 112 0,000 mm 1,7 C -2,6 C 19,3 km/h (3 Bft) 100,00 %
29.03.2023 16:41 4,7 C 81 % 1024,6 hPa 0,0 l/m 19,3 km/h (3 Bft) O-SO 112 0,000 mm 1,7 C -3,3 C 20,9 km/h (4 Bft) 100,00 %
29.03.2023 16:40 4,7 C 81 % 1024,7 hPa 0,0 l/m 19,3 km/h (3 Bft) O-SO 112 0,000 mm 1,7 C -3,3 C 22,5 km/h (4 Bft) 100,00 %
29.03.2023 16:39 4,7 C 82 % 1024,6 hPa 0,0 l/m 16,1 km/h (3 Bft) O-SO 112 0,000 mm 1,9 C -1,8 C 19,3 km/h (3 Bft) 95,65 %
29.03.2023 16:38 4,7 C 82 % 1024,6 hPa 0,0 l/m 17,7 km/h (3 Bft) O-SO 112 0,000 mm 1,9 C -2,6 C 20,9 km/h (4 Bft) 100,00 %
29.03.2023 16:37 4,7 C 82 % 1024,6 hPa 0,0 l/m 16,1 km/h (3 Bft) O-SO 112 0,000 mm 1,9 C -1,8 C 19,3 km/h (3 Bft) 100,00 %
29.03.2023 16:36 4,6 C 82 % 1024,7 hPa 0,0 l/m 14,5 km/h (3 Bft) O-SO 112 0,000 mm 1,8 C -1,1 C 16,1 km/h (3 Bft) 100,00 %
29.03.2023 16:35 4,6 C 82 % 1024,6 hPa 0,0 l/m 14,5 km/h (3 Bft) O-SO 112 0,000 mm 1,8 C -1,1 C 17,7 km/h (3 Bft) 100,00 %
29.03.2023 16:34 4,6 C 82 % 1024,7 hPa 0,0 l/m 14,5 km/h (3 Bft) O-SO 112 0,000 mm 1,8 C -1,1 C 19,3 km/h (3 Bft) 100,00 %
29.03.2023 16:33 4,6 C 82 % 1024,7 hPa 0,0 l/m 17,7 km/h (3 Bft) O-SO 112 0,000 mm 1,8 C -2,7 C 20,9 km/h (4 Bft) 100,00 %
29.03.2023 16:32 4,6 C 82 % 1024,7 hPa 0,0 l/m 17,7 km/h (3 Bft) O-SO 112 0,000 mm 1,8 C -2,7 C 20,9 km/h (4 Bft) 100,00 %
29.03.2023 16:31 4,5 C 81 % 1024,7 hPa 0,0 l/m 17,7 km/h (3 Bft) O-SO 112 0,000 mm 1,5 C -2,8 C 19,3 km/h (3 Bft) 100,00 %
29.03.2023 16:30 4,6 C 81 % 1024,7 hPa 0,0 l/m 19,3 km/h (3 Bft) O-SO 112 0,000 mm 1,6 C -3,4 C 20,9 km/h (4 Bft) 100,00 %
29.03.2023 16:29 4,6 C 82 % 1024,7 hPa 0,0 l/m 17,7 km/h (3 Bft) O-SO 112 0,000 mm 1,8 C -2,7 C 19,3 km/h (3 Bft) 100,00 %
29.03.2023 16:28 4,6 C 82 % 1024,8 hPa 0,0 l/m 16,1 km/h (3 Bft) O-SO 112 0,000 mm 1,8 C -2,0 C 19,3 km/h (3 Bft) 95,65 %
29.03.2023 16:27 4,6 C 82 % 1024,8 hPa 0,0 l/m 17,7 km/h (3 Bft) O-SO 112 0,000 mm 1,8 C -2,7 C 22,5 km/h (4 Bft) 100,00 %
29.03.2023 16:26 4,6 C 81 % 1024,8 hPa 0,0 l/m 17,7 km/h (3 Bft) O-SO 112 0,000 mm 1,6 C -2,7 C 20,9 km/h (4 Bft) 100,00 %
29.03.2023 16:25 4,6 C 81 % 1024,8 hPa 0,0 l/m 17,7 km/h (3 Bft) O-SO 112 0,000 mm 1,6 C -2,7 C 20,9 km/h (4 Bft) 100,00 %
29.03.2023 16:24 4,6 C 82 % 1024,8 hPa 0,0 l/m 16,1 km/h (3 Bft) O-SO 112 0,000 mm 1,8 C -2,0 C 20,9 km/h (4 Bft) 100,00 %
29.03.2023 16:23 4,6 C 82 % 1024,8 hPa 0,0 l/m 16,1 km/h (3 Bft) O-SO 112 0,000 mm 1,8 C -2,0 C 19,3 km/h (3 Bft) 100,00 %
29.03.2023 16:22 4,6 C 82 % 1024,8 hPa 0,0 l/m 16,1 km/h (3 Bft) O-SO 112 0,000 mm 1,8 C -2,0 C 19,3 km/h (3 Bft) 100,00 %
29.03.2023 16:21 4,6 C 82 % 1024,9 hPa 0,0 l/m 16,1 km/h (3 Bft) O-SO 112 0,000 mm 1,8 C -2,0 C 17,7 km/h (3 Bft) 95,65 %
29.03.2023 16:20 4,5 C 82 % 1024,9 hPa 0,0 l/m 16,1 km/h (3 Bft) O-SO 112 0,000 mm 1,7 C -2,1 C 17,7 km/h (3 Bft) 100,00 %
29.03.2023 16:19 4,5 C 82 % 1024,8 hPa 0,0 l/m 19,3 km/h (3 Bft) O-SO 112 0,000 mm 1,7 C -3,5 C 20,9 km/h (4 Bft) 100,00 %
29.03.2023 16:18 4,4 C 82 % 1024,7 hPa 0,0 l/m 17,7 km/h (3 Bft) O-SO 112 0,000 mm 1,6 C -3,0 C 19,3 km/h (3 Bft) 100,00 %
29.03.2023 16:17 4,4 C 82 % 1024,8 hPa 0,0 l/m 19,3 km/h (3 Bft) O-SO 112 0,000 mm 1,6 C -3,7 C 20,9 km/h (4 Bft) 100,00 %
29.03.2023 16:16 4,4 C 82 % 1024,8 hPa 0,0 l/m 17,7 km/h (3 Bft) O-SO 112 0,000 mm 1,6 C -3,0 C 20,9 km/h (4 Bft) 95,65 %
29.03.2023 16:15 4,4 C 82 % 1024,7 hPa 0,0 l/m 17,7 km/h (3 Bft) O-SO 112 0,000 mm 1,6 C -3,0 C 20,9 km/h (4 Bft) 100,00 %
29.03.2023 16:14 4,4 C 82 % 1024,9 hPa 0,0 l/m 17,7 km/h (3 Bft) O-SO 112 0,000 mm 1,6 C -3,0 C 20,9 km/h (4 Bft) 100,00 %
29.03.2023 16:13 4,4 C 82 % 1024,9 hPa 0,0 l/m 19,3 km/h (3 Bft) O-SO 112 0,000 mm 1,6 C -3,7 C 20,9 km/h (4 Bft) 100,00 %
29.03.2023 16:12 4,4 C 82 % 1024,9 hPa 0,0 l/m 17,7 km/h (3 Bft) O-SO 112 0,000 mm 1,6 C -3,0 C 22,5 km/h (4 Bft) 100,00 %
29.03.2023 16:11 4,3 C 82 % 1024,8 hPa 0,0 l/m 19,3 km/h (3 Bft) O-SO 112 0,000 mm 1,5 C -3,8 C 22,5 km/h (4 Bft) 91,30 %
29.03.2023 16:10 4,3 C 82 % 1024,9 hPa 0,0 l/m 16,1 km/h (3 Bft) O-SO 112 0,000 mm 1,5 C -2,3 C 17,7 km/h (3 Bft) 100,00 %
29.03.2023 16:09 4,3 C 82 % 1024,9 hPa 0,0 l/m 17,7 km/h (3 Bft) O-SO 112 0,000 mm 1,5 C -3,1 C 19,3 km/h (3 Bft) 91,30 %
29.03.2023 16:08 4,3 C 82 % 1024,9 hPa 0,0 l/m 16,1 km/h (3 Bft) O-SO 112 0,000 mm 1,5 C -2,3 C 17,7 km/h (3 Bft) 95,65 %
29.03.2023 16:07 4,3 C 82 % 1024,9 hPa 0,0 l/m 16,1 km/h (3 Bft) O-SO 112 0,000 mm 1,5 C -2,3 C 17,7 km/h (3 Bft) 100,00 %
29.03.2023 16:06 4,3 C 82 % 1025,0 hPa 0,0 l/m 19,3 km/h (3 Bft) O-SO 112 0,000 mm 1,5 C -3,8 C 20,9 km/h (4 Bft) 100,00 %
29.03.2023 16:05 4,3 C 82 % 1024,9 hPa 0,0 l/m 17,7 km/h (3 Bft) O-SO 112 0,000 mm 1,5 C -3,1 C 20,9 km/h (4 Bft) 100,00 %
29.03.2023 16:04 4,3 C 82 % 1025,0 hPa 0,0 l/m 16,1 km/h (3 Bft) O-SO 112 0,000 mm 1,5 C -2,3 C 19,3 km/h (3 Bft) 100,00 %
29.03.2023 16:03 4,3 C 82 % 1024,9 hPa 0,0 l/m 17,7 km/h (3 Bft) O-SO 112 0,000 mm 1,5 C -3,1 C 19,3 km/h (3 Bft) 100,00 %
29.03.2023 16:02 4,3 C 82 % 1025,0 hPa 0,0 l/m 19,3 km/h (3 Bft) O-SO 112 0,000 mm 1,5 C -3,8 C 20,9 km/h (4 Bft) 100,00 %
29.03.2023 16:01 4,3 C 82 % 1025,0 hPa 0,0 l/m 14,5 km/h (3 Bft) O-SO 112 0,000 mm 1,5 C -1,5 C 19,3 km/h (3 Bft) 95,65 %
29.03.2023 16:00 4,3 C 83 % 1025,0 hPa 0,0 l/m 14,5 km/h (3 Bft) O-SO 112 0,000 mm 1,7 C -1,5 C 17,7 km/h (3 Bft) 100,00 %
29.03.2023 15:59 4,2 C 82 % 1025,0 hPa 0,0 l/m 16,1 km/h (3 Bft) O-SO 112 0,000 mm 1,4 C -2,5 C 20,9 km/h (4 Bft) 100,00 %
29.03.2023 15:58 4,3 C 82 % 1025,0 hPa 0,0 l/m 17,7 km/h (3 Bft) SO 135 0,000 mm 1,5 C -3,1 C 19,3 km/h (3 Bft) 95,65 %
29.03.2023 15:57 4,2 C 82 % 1025,0 hPa 0,0 l/m 19,3 km/h (3 Bft) O-SO 112 0,000 mm 1,4 C -3,9 C 22,5 km/h (4 Bft) 100,00 %
29.03.2023 15:56 4,2 C 82 % 1024,9 hPa 0,0 l/m 19,3 km/h (3 Bft) O-SO 112 0,000 mm 1,4 C -3,9 C 22,5 km/h (4 Bft) 100,00 %
29.03.2023 15:55 4,3 C 82 % 1025,0 hPa 0,0 l/m 17,7 km/h (3 Bft) O-SO 112 0,000 mm 1,5 C -3,1 C 20,9 km/h (4 Bft) 100,00 %
29.03.2023 15:54 4,3 C 82 % 1025,0 hPa 0,0 l/m 16,1 km/h (3 Bft) O-SO 112 0,000 mm 1,5 C -2,3 C 17,7 km/h (3 Bft) 100,00 %
29.03.2023 15:53 4,2 C 82 % 1025,0 hPa 0,0 l/m 16,1 km/h (3 Bft) O-SO 112 0,000 mm 1,4 C -2,5 C 19,3 km/h (3 Bft) 100,00 %
29.03.2023 15:52 4,3 C 82 % 1025,0 hPa 0,0 l/m 19,3 km/h (3 Bft) O-SO 112 0,000 mm 1,5 C -3,8 C 22,5 km/h (4 Bft) 95,65 %
29.03.2023 15:51 4,3 C 82 % 1025,0 hPa 0,0 l/m 19,3 km/h (3 Bft) O-SO 112 0,000 mm 1,5 C -3,8 C 22,5 km/h (4 Bft) 100,00 %
29.03.2023 15:50 4,3 C 82 % 1025,0 hPa 0,0 l/m 19,3 km/h (3 Bft) O-SO 112 0,000 mm 1,5 C -3,8 C 22,5 km/h (4 Bft) 100,00 %
29.03.2023 15:49 4,3 C 82 % 1025,0 hPa 0,0 l/m 20,9 km/h (4 Bft) O-SO 112 0,000 mm 1,5 C -4,4 C 22,5 km/h (4 Bft) 95,65 %
29.03.2023 15:48 4,3 C 82 % 1025,0 hPa 0,0 l/m 19,3 km/h (3 Bft) O-SO 112 0,000 mm 1,5 C -3,8 C 24,1 km/h (4 Bft) 100,00 %
29.03.2023 15:47 4,3 C 82 % 1025,1 hPa 0,0 l/m 16,1 km/h (3 Bft) O-SO 112 0,000 mm 1,5 C -2,3 C 19,3 km/h (3 Bft) 100,00 %
29.03.2023 15:46 4,3 C 82 % 1025,0 hPa 0,0 l/m 16,1 km/h (3 Bft) O-SO 112 0,000 mm 1,5 C -2,3 C 19,3 km/h (3 Bft) 95,65 %
29.03.2023 15:45 4,3 C 82 % 1025,0 hPa 0,0 l/m 19,3 km/h (3 Bft) O-SO 112 0,000 mm 1,5 C -3,8 C 24,1 km/h (4 Bft) 100,00 %
29.03.2023 15:44 4,3 C 82 % 1025,1 hPa 0,0 l/m 19,3 km/h (3 Bft) O-SO 112 0,000 mm 1,5 C -3,8 C 22,5 km/h (4 Bft) 100,00 %
29.03.2023 15:43 4,3 C 82 % 1025,1 hPa 0,0 l/m 16,1 km/h (3 Bft) O-SO 112 0,000 mm 1,5 C -2,3 C 20,9 km/h (4 Bft) 100,00 %
29.03.2023 15:42 4,2 C 82 % 1025,1 hPa 0,0 l/m 16,1 km/h (3 Bft) O-SO 112 0,000 mm 1,4 C -2,5 C 19,3 km/h (3 Bft) 100,00 %
29.03.2023 15:41 4,3 C 82 % 1025,1 hPa 0,0 l/m 19,3 km/h (3 Bft) O-SO 112 0,000 mm 1,5 C -3,8 C 20,9 km/h (4 Bft) 100,00 %
29.03.2023 15:40 4,3 C 82 % 1025,1 hPa 0,0 l/m 20,9 km/h (4 Bft) O-SO 112 0,000 mm 1,5 C -4,4 C 24,1 km/h (4 Bft) 95,65 %
29.03.2023 15:39 4,3 C 82 % 1025,2 hPa 0,0 l/m 19,3 km/h (3 Bft) O-SO 112 0,000 mm 1,5 C -3,8 C 24,1 km/h (4 Bft) 100,00 %
29.03.2023 15:38 4,3 C 82 % 1025,2 hPa 0,0 l/m 16,1 km/h (3 Bft) O-SO 112 0,000 mm 1,5 C -2,3 C 19,3 km/h (3 Bft) 100,00 %
29.03.2023 15:37 4,2 C 82 % 1025,2 hPa 0,0 l/m 19,3 km/h (3 Bft) O-SO 112 0,000 mm 1,4 C -3,9 C 20,9 km/h (4 Bft) 100,00 %
29.03.2023 15:36 4,2 C 82 % 1025,1 hPa 0,0 l/m 17,7 km/h (3 Bft) O-SO 112 0,000 mm 1,4 C -3,2 C 20,9 km/h (4 Bft) 100,00 %
29.03.2023 15:35 4,2 C 82 % 1025,2 hPa 0,0 l/m 17,7 km/h (3 Bft) O-SO 112 0,000 mm 1,4 C -3,2 C 20,9 km/h (4 Bft) 95,65 %
29.03.2023 15:34 4,2 C 82 % 1025,2 hPa 0,0 l/m 19,3 km/h (3 Bft) SO 135 0,000 mm 1,4 C -3,9 C 22,5 km/h (4 Bft) 100,00 %
29.03.2023 15:33 4,2 C 82 % 1025,1 hPa 0,0 l/m 19,3 km/h (3 Bft) O-SO 112 0,000 mm 1,4 C -3,9 C 25,7 km/h (4 Bft) 100,00 %
29.03.2023 15:32 4,2 C 82 % 1025,1 hPa 0,0 l/m 17,7 km/h (3 Bft) O-SO 112 0,000 mm 1,4 C -3,2 C 24,1 km/h (4 Bft) 100,00 %
29.03.2023 15:31 4,2 C 82 % 1025,1 hPa 0,0 l/m 19,3 km/h (3 Bft) O-SO 112 0,000 mm 1,4 C -3,9 C 22,5 km/h (4 Bft) 100,00 %
29.03.2023 15:30 4,2 C 82 % 1025,1 hPa 0,0 l/m 17,7 km/h (3 Bft) O-SO 112 0,000 mm 1,4 C -3,2 C 22,5 km/h (4 Bft) 95,65 %
29.03.2023 15:29 4,1 C 83 % 1025,2 hPa 0,0 l/m 19,3 km/h (3 Bft) O-SO 112 0,000 mm 1,5 C -4,0 C 22,5 km/h (4 Bft) 100,00 %
29.03.2023 15:28 4,1 C 83 % 1025,1 hPa 0,0 l/m 17,7 km/h (3 Bft) O-SO 112 0,000 mm 1,5 C -3,3 C 20,9 km/h (4 Bft) 95,65 %
29.03.2023 15:27 4,1 C 82 % 1025,1 hPa 0,0 l/m 17,7 km/h (3 Bft) O-SO 112 0,000 mm 1,3 C -3,3 C 19,3 km/h (3 Bft) 95,65 %
29.03.2023 15:26 4,1 C 82 % 1025,1 hPa 0,0 l/m 16,1 km/h (3 Bft) SO 135 0,000 mm 1,3 C -2,6 C 19,3 km/h (3 Bft) 100,00 %
29.03.2023 15:25 4,1 C 82 % 1025,2 hPa 0,0 l/m 17,7 km/h (3 Bft) O-SO 112 0,000 mm 1,3 C -3,3 C 22,5 km/h (4 Bft) 100,00 %
29.03.2023 15:24 4,1 C 82 % 1025,2 hPa 0,0 l/m 20,9 km/h (4 Bft) O-SO 112 0,000 mm 1,3 C -4,7 C 22,5 km/h (4 Bft) 100,00 %
29.03.2023 15:23 4,1 C 82 % 1025,2 hPa 0,0 l/m 22,5 km/h (4 Bft) O-SO 112 0,000 mm 1,3 C -5,3 C 25,7 km/h (4 Bft) 95,65 %
29.03.2023 15:22 4,1 C 82 % 1025,1 hPa 0,0 l/m 19,3 km/h (3 Bft) O-SO 112 0,000 mm 1,3 C -4,0 C 22,5 km/h (4 Bft) 95,65 %
29.03.2023 15:21 4,1 C 82 % 1025,2 hPa 0,0 l/m 17,7 km/h (3 Bft) O-SO 112 0,000 mm 1,3 C -3,3 C 20,9 km/h (4 Bft) 100,00 %
29.03.2023 15:20 4,1 C 82 % 1025,3 hPa 0,0 l/m 19,3 km/h (3 Bft) O-SO 112 0,000 mm 1,3 C -4,0 C 22,5 km/h (4 Bft) 100,00 %
29.03.2023 15:19 4,1 C 83 % 1025,2 hPa 0,0 l/m 17,7 km/h (3 Bft) O-SO 112 0,000 mm 1,5 C -3,3 C 20,9 km/h (4 Bft) 100,00 %
29.03.2023 15:18 4,1 C 83 % 1025,3 hPa 0,0 l/m 17,7 km/h (3 Bft) O-SO 112 0,000 mm 1,5 C -3,3 C 20,9 km/h (4 Bft) 100,00 %
29.03.2023 15:17 4,0 C 83 % 1025,2 hPa 0,0 l/m 16,1 km/h (3 Bft) O-SO 112 0,000 mm 1,4 C -2,7 C 19,3 km/h (3 Bft) 100,00 %
29.03.2023 15:16 4,0 C 82 % 1025,2 hPa 0,0 l/m 16,1 km/h (3 Bft) O-SO 112 0,000 mm 1,2 C -2,7 C 20,9 km/h (4 Bft) 95,65 %
29.03.2023 15:15 3,9 C 82 % 1025,3 hPa 0,0 l/m 17,7 km/h (3 Bft) O-SO 112 0,000 mm 1,1 C -3,6 C 22,5 km/h (4 Bft) 100,00 %
29.03.2023 15:14 3,9 C 82 % 1025,3 hPa 0,0 l/m 20,9 km/h (4 Bft) O-SO 112 0,000 mm 1,1 C -5,0 C 24,1 km/h (4 Bft) 100,00 %
29.03.2023 15:13 3,9 C 82 % 1025,3 hPa 0,0 l/m 20,9 km/h (4 Bft) O-SO 112 0,000 mm 1,1 C -5,0 C 22,5 km/h (4 Bft) 100,00 %
29.03.2023 15:12 3,9 C 83 % 1025,4 hPa 0,0 l/m 20,9 km/h (4 Bft) O-SO 112 0,000 mm 1,3 C -5,0 C 24,1 km/h (4 Bft) 100,00 %
29.03.2023 15:11 3,9 C 83 % 1025,3 hPa 0,0 l/m 19,3 km/h (3 Bft) O-SO 112 0,000 mm 1,3 C -4,3 C 24,1 km/h (4 Bft) 100,00 %
29.03.2023 15:10 3,9 C 83 % 1025,3 hPa 0,0 l/m 19,3 km/h (3 Bft) O-SO 112 0,000 mm 1,3 C -4,3 C 24,1 km/h (4 Bft) 100,00 %
29.03.2023 15:09 3,8 C 83 % 1025,3 hPa 0,0 l/m 19,3 km/h (3 Bft) O-SO 112 0,000 mm 1,2 C -4,4 C 22,5 km/h (4 Bft) 100,00 %
29.03.2023 15:08 3,8 C 83 % 1025,4 hPa 0,0 l/m 20,9 km/h (4 Bft) O-SO 112 0,000 mm 1,2 C -5,1 C 22,5 km/h (4 Bft) 100,00 %
29.03.2023 15:07 3,9 C 83 % 1025,4 hPa 0,0 l/m 20,9 km/h (4 Bft) O-SO 112 0,000 mm 1,3 C -5,0 C 24,1 km/h (4 Bft) 100,00 %
29.03.2023 15:06 3,8 C 83 % 1025,4 hPa 0,0 l/m 20,9 km/h (4 Bft) O-SO 112 0,000 mm 1,2 C -5,1 C 24,1 km/h (4 Bft) 100,00 %
29.03.2023 15:05 3,8 C 83 % 1025,3 hPa 0,0 l/m 16,1 km/h (3 Bft) O-SO 112 0,000 mm 1,2 C -2,9 C 22,5 km/h (4 Bft) 100,00 %
29.03.2023 15:04 3,8 C 83 % 1025,5 hPa 0,0 l/m 17,7 km/h (3 Bft) O-SO 112 0,000 mm 1,2 C -3,7 C 20,9 km/h (4 Bft) 100,00 %
29.03.2023 15:03 3,8 C 83 % 1025,4 hPa 0,0 l/m 20,9 km/h (4 Bft) O-SO 112 0,000 mm 1,2 C -5,1 C 24,1 km/h (4 Bft) 100,00 %
29.03.2023 15:02 3,8 C 84 % 1025,4 hPa 0,0 l/m 22,5 km/h (4 Bft) O-SO 112 0,000 mm 1,4 C -5,7 C 25,7 km/h (4 Bft) 100,00 %
29.03.2023 15:01 3,7 C 83 % 1025,5 hPa 0,0 l/m 19,3 km/h (3 Bft) O-SO 112 0,000 mm 1,1 C -4,6 C 20,9 km/h (4 Bft) 95,65 %
29.03.2023 15:00 3,7 C 83 % 1025,3 hPa 0,0 l/m 20,9 km/h (4 Bft) O-SO 112 0,000 mm 1,1 C -5,2 C 24,1 km/h (4 Bft) 100,00 %
29.03.2023 14:59 3,7 C 83 % 1025,5 hPa 0,0 l/m 19,3 km/h (3 Bft) O-SO 112 0,000 mm 1,1 C -4,6 C 22,5 km/h (4 Bft) 100,00 %
29.03.2023 14:58 3,7 C 83 % 1025,5 hPa 0,0 l/m 20,9 km/h (4 Bft) O-SO 112 0,000 mm 1,1 C -5,2 C 24,1 km/h (4 Bft) 100,00 %
29.03.2023 14:57 3,7 C 83 % 1025,5 hPa 0,0 l/m 20,9 km/h (4 Bft) O-SO 112 0,000 mm 1,1 C -5,2 C 24,1 km/h (4 Bft) 100,00 %
29.03.2023 14:56 3,7 C 82 % 1025,4 hPa 0,0 l/m 20,9 km/h (4 Bft) O-SO 112 0,000 mm 0,9 C -5,2 C 25,7 km/h (4 Bft) 91,30 %
29.03.2023 14:55 3,7 C 83 % 1025,5 hPa 0,0 l/m 20,9 km/h (4 Bft) O-SO 112 0,000 mm 1,1 C -5,2 C 24,1 km/h (4 Bft) 100,00 %
29.03.2023 14:54 3,7 C 83 % 1025,5 hPa 0,0 l/m 19,3 km/h (3 Bft) O-SO 112 0,000 mm 1,1 C -4,6 C 22,5 km/h (4 Bft) 95,65 %
29.03.2023 14:53 3,8 C 82 % 1025,5 hPa 0,0 l/m 20,9 km/h (4 Bft) O-SO 112 0,000 mm 1,0 C -5,1 C 20,9 km/h (4 Bft) 95,65 %
29.03.2023 14:52 3,8 C 83 % 1025,5 hPa 0,0 l/m 20,9 km/h (4 Bft) O-SO 112 0,000 mm 1,2 C -5,1 C 24,1 km/h (4 Bft) 100,00 %
29.03.2023 14:51 3,7 C 84 % 1025,6 hPa 0,0 l/m 19,3 km/h (3 Bft) O-SO 112 0,000 mm 1,3 C -4,6 C 24,1 km/h (4 Bft) 100,00 %
29.03.2023 14:50 3,7 C 84 % 1025,6 hPa 0,0 l/m 16,1 km/h (3 Bft) O-SO 112 0,000 mm 1,3 C -3,1 C 19,3 km/h (3 Bft) 100,00 %
29.03.2023 14:49 3,5 C 83 % 1025,6 hPa 0,0 l/m 16,1 km/h (3 Bft) O-SO 112 0,000 mm 0,9 C -3,3 C 19,3 km/h (3 Bft) 95,65 %
29.03.2023 14:48 3,5 C 85 % 1025,7 hPa 0,0 l/m 20,9 km/h (4 Bft) O-SO 112 0,000 mm 1,2 C -5,5 C 25,7 km/h (4 Bft) 100,00 %
29.03.2023 14:47 3,3 C 84 % 1025,7 hPa 0,0 l/m 20,9 km/h (4 Bft) O-SO 112 0,000 mm 0,9 C -5,7 C 24,1 km/h (4 Bft) 95,65 %
29.03.2023 14:46 3,3 C 84 % 1025,7 hPa 0,0 l/m 20,9 km/h (4 Bft) O 90 0,000 mm 0,9 C -5,7 C 25,7 km/h (4 Bft) 95,65 %
29.03.2023 14:45 3,3 C 84 % 1025,7 hPa 0,0 l/m 22,5 km/h (4 Bft) O-SO 112 0,000 mm 0,9 C -6,4 C 25,7 km/h (4 Bft) 100,00 %
29.03.2023 14:44 3,2 C 84 % 1025,8 hPa 0,0 l/m 16,1 km/h (3 Bft) O-SO 112 0,000 mm 0,8 C -3,7 C 20,9 km/h (4 Bft) 100,00 %
29.03.2023 14:43 3,2 C 84 % 1025,7 hPa 0,0 l/m 19,3 km/h (3 Bft) O-SO 112 0,000 mm 0,8 C -5,2 C 24,1 km/h (4 Bft) 100,00 %
29.03.2023 14:42 3,2 C 84 % 1025,8 hPa 0,0 l/m 19,3 km/h (3 Bft) O-SO 112 0,000 mm 0,8 C -5,2 C 22,5 km/h (4 Bft) 100,00 %
29.03.2023 14:41 3,2 C 83 % 1025,7 hPa 0,0 l/m 20,9 km/h (4 Bft) O-SO 112 0,000 mm 0,6 C -5,9 C 25,7 km/h (4 Bft) 95,65 %
29.03.2023 14:40 3,2 C 84 % 1025,7 hPa 0,0 l/m 20,9 km/h (4 Bft) O-SO 112 0,000 mm 0,8 C -5,9 C 25,7 km/h (4 Bft) 100,00 %
29.03.2023 14:39 3,2 C 84 % 1025,7 hPa 0,0 l/m 19,3 km/h (3 Bft) O-SO 112 0,000 mm 0,8 C -5,2 C 22,5 km/h (4 Bft) 100,00 %
29.03.2023 14:38 3,2 C 85 % 1025,8 hPa 0,0 l/m 19,3 km/h (3 Bft) O-SO 112 0,000 mm 0,9 C -5,2 C 20,9 km/h (4 Bft) 100,00 %
29.03.2023 14:37 3,1 C 85 % 1025,7 hPa 0,0 l/m 17,7 km/h (3 Bft) O-SO 112 0,000 mm 0,8 C -4,6 C 20,9 km/h (4 Bft) 95,65 %
29.03.2023 14:36 3,1 C 84 % 1025,7 hPa 0,0 l/m 16,1 km/h (3 Bft) O-SO 112 0,000 mm 0,7 C -3,8 C 20,9 km/h (4 Bft) 100,00 %
29.03.2023 14:35 3,1 C 84 % 1025,7 hPa 0,0 l/m 20,9 km/h (4 Bft) O-SO 112 0,000 mm 0,7 C -6,0 C 22,5 km/h (4 Bft) 100,00 %
29.03.2023 14:34 3,1 C 84 % 1025,7 hPa 0,0 l/m 19,3 km/h (3 Bft) O-SO 112 0,000 mm 0,7 C -5,3 C 20,9 km/h (4 Bft) 100,00 %
29.03.2023 14:33 3,1 C 84 % 1025,7 hPa 0,0 l/m 20,9 km/h (4 Bft) O-SO 112 0,000 mm 0,7 C -6,0 C 22,5 km/h (4 Bft) 100,00 %
29.03.2023 14:32 3,1 C 84 % 1025,7 hPa 0,0 l/m 19,3 km/h (3 Bft) O-SO 112 0,000 mm 0,7 C -5,3 C 20,9 km/h (4 Bft) 100,00 %
29.03.2023 14:31 3,0 C 84 % 1025,8 hPa 0,0 l/m 19,3 km/h (3 Bft) O-SO 112 0,000 mm 0,6 C -5,5 C 22,5 km/h (4 Bft) 100,00 %
29.03.2023 14:30 3,0 C 85 % 1025,8 hPa 0,0 l/m 17,7 km/h (3 Bft) O-SO 112 0,000 mm 0,7 C -4,7 C 20,9 km/h (4 Bft) 95,65 %
29.03.2023 14:29 3,0 C 84 % 1025,7 hPa 0,0 l/m 16,1 km/h (3 Bft) O-SO 112 0,000 mm 0,6 C -3,9 C 20,9 km/h (4 Bft) 100,00 %
29.03.2023 14:28 3,0 C 85 % 1025,8 hPa 0,0 l/m 17,7 km/h (3 Bft) O-SO 112 0,000 mm 0,7 C -4,7 C 22,5 km/h (4 Bft) 100,00 %
29.03.2023 14:27 2,9 C 85 % 1025,7 hPa 0,0 l/m 16,1 km/h (3 Bft) O-SO 112 0,000 mm 0,6 C -4,1 C 20,9 km/h (4 Bft) 100,00 %
29.03.2023 14:26 2,9 C 85 % 1025,7 hPa 0,0 l/m 16,1 km/h (3 Bft) O-SO 112 0,000 mm 0,6 C -4,1 C 22,5 km/h (4 Bft) 100,00 %
29.03.2023 14:25 2,9 C 85 % 1025,8 hPa 0,0 l/m 16,1 km/h (3 Bft) O-SO 112 0,000 mm 0,6 C -4,1 C 19,3 km/h (3 Bft) 100,00 %
29.03.2023 14:24 2,8 C 85 % 1025,8 hPa 0,0 l/m 17,7 km/h (3 Bft) O-SO 112 0,000 mm 0,5 C -5,0 C 19,3 km/h (3 Bft) 100,00 %
29.03.2023 14:23 2,8 C 85 % 1025,8 hPa 0,0 l/m 17,7 km/h (3 Bft) O-SO 112 0,000 mm 0,5 C -5,0 C 20,9 km/h (4 Bft) 91,30 %
29.03.2023 14:22 2,8 C 85 % 1025,8 hPa 0,0 l/m 17,7 km/h (3 Bft) O-SO 112 0,000 mm 0,5 C -5,0 C 20,9 km/h (4 Bft) 100,00 %
29.03.2023 14:21 2,8 C 84 % 1025,8 hPa 0,0 l/m 17,7 km/h (3 Bft) O-SO 112 0,000 mm 0,4 C -5,0 C 20,9 km/h (4 Bft) 100,00 %
29.03.2023 14:20 2,8 C 85 % 1025,8 hPa 0,0 l/m 17,7 km/h (3 Bft) SO 135 0,000 mm 0,5 C -5,0 C 20,9 km/h (4 Bft) 100,00 %
29.03.2023 14:19 2,9 C 85 % 1025,8 hPa 0,0 l/m 17,7 km/h (3 Bft) SO 135 0,000 mm 0,6 C -4,8 C 20,9 km/h (4 Bft) 100,00 %
29.03.2023 14:18 2,8 C 85 % 1025,9 hPa 0,0 l/m 17,7 km/h (3 Bft) O-SO 112 0,000 mm 0,5 C -5,0 C 20,9 km/h (4 Bft) 100,00 %
29.03.2023 14:17 2,8 C 85 % 1025,8 hPa 0,0 l/m 19,3 km/h (3 Bft) O-SO 112 0,000 mm 0,5 C -5,7 C 22,5 km/h (4 Bft) 100,00 %
29.03.2023 14:16 2,8 C 85 % 1025,9 hPa 0,0 l/m 19,3 km/h (3 Bft) O 90 0,000 mm 0,5 C -5,7 C 22,5 km/h (4 Bft) 100,00 %
29.03.2023 14:15 2,8 C 85 % 1026,0 hPa 0,0 l/m 19,3 km/h (3 Bft) O 90 0,000 mm 0,5 C -5,7 C 20,9 km/h (4 Bft) 100,00 %
29.03.2023 14:14 2,8 C 85 % 1025,8 hPa 0,0 l/m 17,7 km/h (3 Bft) O-SO 112 0,000 mm 0,5 C -5,0 C 20,9 km/h (4 Bft) 100,00 %
29.03.2023 14:13 2,8 C 85 % 1025,9 hPa 0,0 l/m 19,3 km/h (3 Bft) O 90 0,000 mm 0,5 C -5,7 C 22,5 km/h (4 Bft) 95,65 %
29.03.2023 14:12 2,8 C 85 % 1025,9 hPa 0,0 l/m 19,3 km/h (3 Bft) O 90 0,000 mm 0,5 C -5,7 C 20,9 km/h (4 Bft) 95,65 %
29.03.2023 14:11 2,8 C 85 % 1025,9 hPa 0,0 l/m 17,7 km/h (3 Bft) O 90 0,000 mm 0,5 C -5,0 C 20,9 km/h (4 Bft) 100,00 %
29.03.2023 14:10 2,8 C 84 % 1025,9 hPa 0,0 l/m 19,3 km/h (3 Bft) O 90 0,000 mm 0,4 C -5,7 C 22,5 km/h (4 Bft) 95,65 %
29.03.2023 14:09 2,8 C 85 % 1025,9 hPa 0,0 l/m 17,7 km/h (3 Bft) O 90 0,000 mm 0,5 C -5,0 C 22,5 km/h (4 Bft) 100,00 %
29.03.2023 14:08 2,8 C 84 % 1026,0 hPa 0,0 l/m 19,3 km/h (3 Bft) O-SO 112 0,000 mm 0,4 C -5,7 C 22,5 km/h (4 Bft) 100,00 %
29.03.2023 14:07 2,8 C 84 % 1026,0 hPa 0,0 l/m 19,3 km/h (3 Bft) O-SO 112 0,000 mm 0,4 C -5,7 C 22,5 km/h (4 Bft) 100,00 %
29.03.2023 14:06 2,8 C 85 % 1026,0 hPa 0,0 l/m 16,1 km/h (3 Bft) O-SO 112 0,000 mm 0,5 C -4,2 C 20,9 km/h (4 Bft) 100,00 %
29.03.2023 14:05 2,8 C 84 % 1026,0 hPa 0,0 l/m 17,7 km/h (3 Bft) O-SO 112 0,000 mm 0,4 C -5,0 C 20,9 km/h (4 Bft) 100,00 %
29.03.2023 14:04 2,8 C 85 % 1026,0 hPa 0,0 l/m 20,9 km/h (4 Bft) O-SO 112 0,000 mm 0,5 C -6,4 C 22,5 km/h (4 Bft) 100,00 %
29.03.2023 14:03 2,8 C 84 % 1026,0 hPa 0,0 l/m 17,7 km/h (3 Bft) O-SO 112 0,000 mm 0,4 C -5,0 C 20,9 km/h (4 Bft) 100,00 %
29.03.2023 14:02 2,7 C 84 % 1026,0 hPa 0,0 l/m 19,3 km/h (3 Bft) O-SO 112 0,000 mm 0,3 C -5,8 C 20,9 km/h (4 Bft) 100,00 %
29.03.2023 14:01 2,8 C 84 % 1025,9 hPa 0,0 l/m 20,9 km/h (4 Bft) O-SO 112 0,000 mm 0,4 C -6,4 C 24,1 km/h (4 Bft) 95,65 %
29.03.2023 14:00 2,8 C 84 % 1026,0 hPa 0,0 l/m 17,7 km/h (3 Bft) O-SO 112 0,000 mm 0,4 C -5,0 C 20,9 km/h (4 Bft) 95,65 %
29.03.2023 13:59 2,7 C 85 % 1026,0 hPa 0,0 l/m 16,1 km/h (3 Bft) O-SO 112 0,000 mm 0,4 C -4,3 C 17,7 km/h (3 Bft) 100,00 %
29.03.2023 13:58 2,7 C 84 % 1026,0 hPa 0,0 l/m 16,1 km/h (3 Bft) SO 135 0,000 mm 0,3 C -4,3 C 17,7 km/h (3 Bft) 100,00 %
29.03.2023 13:57 2,6 C 84 % 1026,0 hPa 0,0 l/m 16,1 km/h (3 Bft) SO 135 0,000 mm 0,2 C -4,4 C 19,3 km/h (3 Bft) 100,00 %
29.03.2023 13:56 2,6 C 84 % 1026,1 hPa 0,0 l/m 16,1 km/h (3 Bft) SO 135 0,000 mm 0,2 C -4,4 C 17,7 km/h (3 Bft) 100,00 %
29.03.2023 13:55 2,6 C 84 % 1026,1 hPa 0,0 l/m 16,1 km/h (3 Bft) SO 135 0,000 mm 0,2 C -4,4 C 22,5 km/h (4 Bft) 95,65 %
29.03.2023 13:54 2,6 C 84 % 1026,0 hPa 0,0 l/m 19,3 km/h (3 Bft) O-SO 112 0,000 mm 0,2 C -6,0 C 24,1 km/h (4 Bft) 100,00 %
29.03.2023 13:53 2,6 C 85 % 1026,0 hPa 0,0 l/m 17,7 km/h (3 Bft) O-SO 112 0,000 mm 0,3 C -5,2 C 20,9 km/h (4 Bft) 95,65 %
29.03.2023 13:52 2,6 C 85 % 1026,0 hPa 0,0 l/m 14,5 km/h (3 Bft) O-SO 112 0,000 mm 0,3 C -3,5 C 20,9 km/h (4 Bft) 100,00 %
29.03.2023 13:51 2,5 C 85 % 1026,0 hPa 0,0 l/m 16,1 km/h (3 Bft) SO 135 0,000 mm 0,2 C -4,5 C 19,3 km/h (3 Bft) 100,00 %
29.03.2023 13:50 2,4 C 84 % 1026,1 hPa 0,0 l/m 19,3 km/h (3 Bft) O-SO 112 0,000 mm -0,0 C -6,2 C 25,7 km/h (4 Bft) 100,00 %
29.03.2023 13:49 2,4 C 84 % 1026,1 hPa 0,0 l/m 20,9 km/h (4 Bft) O-SO 112 0,000 mm -0,0 C -6,9 C 25,7 km/h (4 Bft) 100,00 %
29.03.2023 13:48 2,4 C 85 % 1026,1 hPa 0,0 l/m 17,7 km/h (3 Bft) O-SO 112 0,000 mm 0,1 C -5,5 C 22,5 km/h (4 Bft) 95,65 %
29.03.2023 13:47 2,4 C 85 % 1026,2 hPa 0,0 l/m 16,1 km/h (3 Bft) O-SO 112 0,000 mm 0,1 C -4,7 C 20,9 km/h (4 Bft) 100,00 %
29.03.2023 13:46 2,4 C 85 % 1026,2 hPa 0,0 l/m 19,3 km/h (3 Bft) O-SO 112 0,000 mm 0,1 C -6,2 C 20,9 km/h (4 Bft) 100,00 %
29.03.2023 13:45 2,4 C 85 % 1026,2 hPa 0,0 l/m 17,7 km/h (3 Bft) O-SO 112 0,000 mm 0,1 C -5,5 C 20,9 km/h (4 Bft) 100,00 %
29.03.2023 13:44 2,3 C 85 % 1026,2 hPa 0,0 l/m 14,5 km/h (3 Bft) O-SO 112 0,000 mm 0,0 C -3,9 C 17,7 km/h (3 Bft) 100,00 %
29.03.2023 13:43 2,3 C 85 % 1026,2 hPa 0,0 l/m 16,1 km/h (3 Bft) O-SO 112 0,000 mm 0,0 C -4,8 C 19,3 km/h (3 Bft) 100,00 %
29.03.2023 13:42 2,3 C 85 % 1026,1 hPa 0,0 l/m 17,7 km/h (3 Bft) O-SO 112 0,000 mm 0,0 C -5,6 C 20,9 km/h (4 Bft) 95,65 %
29.03.2023 13:41 2,3 C 85 % 1026,2 hPa 0,0 l/m 19,3 km/h (3 Bft) O-SO 112 0,000 mm 0,0 C -6,4 C 25,7 km/h (4 Bft) 95,65 %
29.03.2023 13:40 2,3 C 85 % 1026,0 hPa 0,0 l/m 17,7 km/h (3 Bft) O-SO 112 0,000 mm 0,0 C -5,6 C 22,5 km/h (4 Bft) 100,00 %
29.03.2023 13:39 2,3 C 85 % 1026,1 hPa 0,0 l/m 20,9 km/h (4 Bft) O-SO 112 0,000 mm 0,0 C -7,0 C 24,1 km/h (4 Bft) 100,00 %
29.03.2023 13:38 2,3 C 85 % 1026,1 hPa 0,0 l/m 20,9 km/h (4 Bft) O-SO 112 0,000 mm 0,0 C -7,0 C 24,1 km/h (4 Bft) 100,00 %
29.03.2023 13:37 2,3 C 85 % 1026,1 hPa 0,0 l/m 22,5 km/h (4 Bft) O-SO 112 0,000 mm 0,0 C -7,7 C 24,1 km/h (4 Bft) 95,65 %
29.03.2023 13:36 2,3 C 85 % 1026,1 hPa 0,0 l/m 20,9 km/h (4 Bft) O-SO 112 0,000 mm 0,0 C -7,0 C 24,1 km/h (4 Bft) 100,00 %
29.03.2023 13:35 2,3 C 85 % 1026,1 hPa 0,0 l/m 20,9 km/h (4 Bft) O-SO 112 0,000 mm 0,0 C -7,0 C 22,5 km/h (4 Bft) 100,00 %
29.03.2023 13:34 2,3 C 85 % 1026,0 hPa 0,0 l/m 19,3 km/h (3 Bft) O-SO 112 0,000 mm 0,0 C -6,4 C 22,5 km/h (4 Bft) 100,00 %
29.03.2023 13:33 2,3 C 85 % 1026,1 hPa 0,0 l/m 19,3 km/h (3 Bft) O-SO 112 0,000 mm 0,0 C -6,4 C 24,1 km/h (4 Bft) 100,00 %
29.03.2023 13:32 2,3 C 85 % 1026,2 hPa 0,0 l/m 19,3 km/h (3 Bft) O-SO 112 0,000 mm 0,0 C -6,4 C 22,5 km/h (4 Bft) 95,65 %
29.03.2023 13:31 2,3 C 85 % 1026,1 hPa 0,0 l/m 19,3 km/h (3 Bft) O-SO 112 0,000 mm 0,0 C -6,4 C 22,5 km/h (4 Bft) 95,65 %
29.03.2023 13:30 2,3 C 85 % 1026,1 hPa 0,0 l/m 19,3 km/h (3 Bft) O-SO 112 0,000 mm 0,0 C -6,4 C 22,5 km/h (4 Bft) 100,00 %
29.03.2023 13:29 2,3 C 85 % 1026,1 hPa 0,0 l/m 20,9 km/h (4 Bft) O-SO 112 0,000 mm 0,0 C -7,0 C 22,5 km/h (4 Bft) 100,00 %
29.03.2023 13:28 2,3 C 85 % 1026,1 hPa 0,0 l/m 17,7 km/h (3 Bft) O-SO 112 0,000 mm 0,0 C -5,6 C 20,9 km/h (4 Bft) 100,00 %
29.03.2023 13:27 2,3 C 85 % 1026,1 hPa 0,0 l/m 14,5 km/h (3 Bft) O-SO 112 0,000 mm 0,0 C -3,9 C 17,7 km/h (3 Bft) 95,65 %
29.03.2023 13:26 2,3 C 85 % 1026,0 hPa 0,0 l/m 19,3 km/h (3 Bft) O-SO 112 0,000 mm 0,0 C -6,4 C 22,5 km/h (4 Bft) 100,00 %
29.03.2023 13:25 2,3 C 85 % 1026,1 hPa 0,0 l/m 20,9 km/h (4 Bft) O-SO 112 0,000 mm 0,0 C -7,0 C 24,1 km/h (4 Bft) 100,00 %
29.03.2023 13:24 2,3 C 85 % 1026,1 hPa 0,0 l/m 19,3 km/h (3 Bft) O-SO 112 0,000 mm 0,0 C -6,4 C 20,9 km/h (4 Bft) 100,00 %
29.03.2023 13:23 2,3 C 85 % 1026,1 hPa 0,0 l/m 19,3 km/h (3 Bft) O-SO 112 0,000 mm 0,0 C -6,4 C 24,1 km/h (4 Bft) 100,00 %
29.03.2023 13:22 2,3 C 85 % 1026,2 hPa 0,0 l/m 19,3 km/h (3 Bft) O-SO 112 0,000 mm 0,0 C -6,4 C 24,1 km/h (4 Bft) 100,00 %
29.03.2023 13:21 2,3 C 85 % 1026,2 hPa 0,0 l/m 20,9 km/h (4 Bft) O-SO 112 0,000 mm 0,0 C -7,0 C 22,5 km/h (4 Bft) 100,00 %
29.03.2023 13:20 2,3 C 85 % 1026,2 hPa 0,0 l/m 17,7 km/h (3 Bft) O-SO 112 0,000 mm 0,0 C -5,6 C 20,9 km/h (4 Bft) 100,00 %
29.03.2023 13:19 2,3 C 86 % 1026,2 hPa 0,0 l/m 14,5 km/h (3 Bft) O-SO 112 0,000 mm 0,2 C -3,9 C 19,3 km/h (3 Bft) 100,00 %
29.03.2023 13:18 2,3 C 85 % 1026,3 hPa 0,0 l/m 14,5 km/h (3 Bft) SO 135 0,000 mm 0,0 C -3,9 C 17,7 km/h (3 Bft) 100,00 %
29.03.2023 13:17 2,3 C 85 % 1026,2 hPa 0,0 l/m 14,5 km/h (3 Bft) SO 135 0,000 mm 0,0 C -3,9 C 19,3 km/h (3 Bft) 100,00 %
29.03.2023 13:16 2,3 C 86 % 1026,2 hPa 0,0 l/m 12,9 km/h (3 Bft) SO 135 0,000 mm 0,2 C -2,9 C 19,3 km/h (3 Bft) 100,00 %
29.03.2023 13:15 2,2 C 85 % 1026,3 hPa 0,0 l/m 14,5 km/h (3 Bft) SO 135 0,000 mm -0,1 C -4,0 C 17,7 km/h (3 Bft) 95,65 %
29.03.2023 13:14 2,2 C 85 % 1026,3 hPa 0,0 l/m 16,1 km/h (3 Bft) SO 135 0,000 mm -0,1 C -4,9 C 19,3 km/h (3 Bft) 100,00 %
29.03.2023 13:13 2,2 C 85 % 1026,3 hPa 0,0 l/m 16,1 km/h (3 Bft) O-SO 112 0,000 mm -0,1 C -4,9 C 19,3 km/h (3 Bft) 95,65 %
29.03.2023 13:12 2,2 C 85 % 1026,4 hPa 0,0 l/m 17,7 km/h (3 Bft) O-SO 112 0,000 mm -0,1 C -5,7 C 20,9 km/h (4 Bft) 100,00 %
29.03.2023 13:11 2,2 C 85 % 1026,3 hPa 0,0 l/m 20,9 km/h (4 Bft) O-SO 112 0,000 mm -0,1 C -7,2 C 24,1 km/h (4 Bft) 100,00 %
29.03.2023 13:10 2,2 C 85 % 1026,3 hPa 0,0 l/m 19,3 km/h (3 Bft) O-SO 112 0,000 mm -0,1 C -6,5 C 22,5 km/h (4 Bft) 100,00 %
29.03.2023 13:09 2,2 C 85 % 1026,3 hPa 0,0 l/m 19,3 km/h (3 Bft) O-SO 112 0,000 mm -0,1 C -6,5 C 24,1 km/h (4 Bft) 100,00 %
29.03.2023 13:08 2,2 C 85 % 1026,2 hPa 0,0 l/m 20,9 km/h (4 Bft) O-SO 112 0,000 mm -0,1 C -7,2 C 22,5 km/h (4 Bft) 100,00 %
29.03.2023 13:07 2,2 C 85 % 1026,3 hPa 0,0 l/m 20,9 km/h (4 Bft) O-SO 112 0,000 mm -0,1 C -7,2 C 24,1 km/h (4 Bft) 100,00 %
29.03.2023 13:06 2,2 C 85 % 1026,3 hPa 0,0 l/m 17,7 km/h (3 Bft) O-SO 112 0,000 mm -0,1 C -5,7 C 22,5 km/h (4 Bft) 100,00 %
29.03.2023 13:05 2,2 C 85 % 1026,4 hPa 0,0 l/m 17,7 km/h (3 Bft) O-SO 112 0,000 mm -0,1 C -5,7 C 22,5 km/h (4 Bft) 100,00 %
29.03.2023 13:04 2,2 C 85 % 1026,3 hPa 0,0 l/m 22,5 km/h (4 Bft) O-SO 112 0,000 mm -0,1 C -7,8 C 25,7 km/h (4 Bft) 100,00 %
29.03.2023 13:03 2,2 C 85 % 1026,4 hPa 0,0 l/m 20,9 km/h (4 Bft) O-SO 112 0,000 mm -0,1 C -7,2 C 25,7 km/h (4 Bft) 91,30 %
29.03.2023 13:02 2,2 C 85 % 1026,4 hPa 0,0 l/m 22,5 km/h (4 Bft) O-SO 112 0,000 mm -0,1 C -7,8 C 24,1 km/h (4 Bft) 100,00 %
29.03.2023 13:01 2,2 C 85 % 1026,3 hPa 0,0 l/m 20,9 km/h (4 Bft) O-SO 112 0,000 mm -0,1 C -7,2 C 27,4 km/h (4 Bft) 100,00 %
29.03.2023 13:00 2,2 C 85 % 1026,4 hPa 0,0 l/m 20,9 km/h (4 Bft) O-SO 112 0,000 mm -0,1 C -7,2 C 24,1 km/h (4 Bft) 100,00 %
29.03.2023 12:59 2,3 C 85 % 1026,4 hPa 0,0 l/m 19,3 km/h (3 Bft) O-SO 112 0,000 mm 0,0 C -6,4 C 24,1 km/h (4 Bft) 100,00 %
29.03.2023 12:58 2,3 C 85 % 1026,4 hPa 0,0 l/m 19,3 km/h (3 Bft) O-SO 112 0,000 mm 0,0 C -6,4 C 22,5 km/h (4 Bft) 95,65 %
29.03.2023 12:57 2,3 C 86 % 1026,5 hPa 0,0 l/m 16,1 km/h (3 Bft) O-SO 112 0,000 mm 0,2 C -4,8 C 22,5 km/h (4 Bft) 100,00 %
29.03.2023 12:56 2,3 C 85 % 1026,5 hPa 0,0 l/m 12,9 km/h (3 Bft) SO 135 0,000 mm 0,0 C -2,9 C 16,1 km/h (3 Bft) 100,00 %
29.03.2023 12:55 2,3 C 86 % 1026,5 hPa 0,0 l/m 9,7 km/h (2 Bft) S-SO 157 0,000 mm 0,2 C -0,7 C 16,1 km/h (3 Bft) 100,00 %
29.03.2023 12:54 2,3 C 86 % 1026,5 hPa 0,0 l/m 11,3 km/h (2 Bft) SO 135 0,000 mm 0,2 C -1,9 C 17,7 km/h (3 Bft) 100,00 %
29.03.2023 12:53 2,2 C 86 % 1026,5 hPa 0,0 l/m 9,7 km/h (2 Bft) SO 135 0,000 mm 0,1 C -0,8 C 14,5 km/h (3 Bft) 100,00 %
29.03.2023 12:52 2,1 C 86 % 1026,4 hPa 0,0 l/m 14,5 km/h (3 Bft) O-SO 112 0,000 mm 0,0 C -4,2 C 19,3 km/h (3 Bft) 100,00 %
29.03.2023 12:51 2,0 C 86 % 1026,3 hPa 0,0 l/m 16,1 km/h (3 Bft) SO 135 0,000 mm -0,1 C -5,2 C 20,9 km/h (4 Bft) 95,65 %
29.03.2023 12:50 2,0 C 86 % 1026,4 hPa 0,0 l/m 17,7 km/h (3 Bft) SO 135 0,000 mm -0,1 C -6,0 C 22,5 km/h (4 Bft) 100,00 %
29.03.2023 12:49 2,0 C 86 % 1026,4 hPa 0,0 l/m 17,7 km/h (3 Bft) SO 135 0,000 mm -0,1 C -6,0 C 20,9 km/h (4 Bft) 100,00 %
29.03.2023 12:48 1,9 C 86 % 1026,4 hPa 0,0 l/m 16,1 km/h (3 Bft) SO 135 0,000 mm -0,2 C -5,3 C 20,9 km/h (4 Bft) 100,00 %
29.03.2023 12:47 1,9 C 86 % 1026,4 hPa 0,0 l/m 20,9 km/h (4 Bft) O-SO 112 0,000 mm -0,2 C -7,6 C 24,1 km/h (4 Bft) 100,00 %
29.03.2023 12:46 1,9 C 86 % 1026,4 hPa 0,0 l/m 14,5 km/h (3 Bft) O-SO 112 0,000 mm -0,2 C -4,4 C 20,9 km/h (4 Bft) 95,65 %
29.03.2023 12:45 1,9 C 86 % 1026,5 hPa 0,0 l/m 14,5 km/h (3 Bft) SO 135 0,000 mm -0,2 C -4,4 C 17,7 km/h (3 Bft) 100,00 %
29.03.2023 12:44 1,8 C 86 % 1026,5 hPa 0,0 l/m 14,5 km/h (3 Bft) O-SO 112 0,000 mm -0,3 C -4,5 C 17,7 km/h (3 Bft) 100,00 %
29.03.2023 12:43 1,8 C 85 % 1026,5 hPa 0,0 l/m 19,3 km/h (3 Bft) O-SO 112 0,000 mm -0,4 C -7,0 C 24,1 km/h (4 Bft) 100,00 %
29.03.2023 12:42 1,8 C 86 % 1026,5 hPa 0,0 l/m 19,3 km/h (3 Bft) O-SO 112 0,000 mm -0,3 C -7,0 C 25,7 km/h (4 Bft) 100,00 %
29.03.2023 12:41 1,9 C 85 % 1026,5 hPa 0,0 l/m 17,7 km/h (3 Bft) O-SO 112 0,000 mm -0,3 C -6,1 C 20,9 km/h (4 Bft) 100,00 %
29.03.2023 12:40 1,9 C 86 % 1026,5 hPa 0,0 l/m 17,7 km/h (3 Bft) O-SO 112 0,000 mm -0,2 C -6,1 C 22,5 km/h (4 Bft) 100,00 %
29.03.2023 12:39 1,9 C 86 % 1026,5 hPa 0,0 l/m 17,7 km/h (3 Bft) SO 135 0,000 mm -0,2 C -6,1 C 24,1 km/h (4 Bft) 100,00 %
29.03.2023 12:38 1,9 C 86 % 1026,5 hPa 0,0 l/m 20,9 km/h (4 Bft) SO 135 0,000 mm -0,2 C -7,6 C 25,7 km/h (4 Bft) 86,96 %
29.03.2023 12:37 1,9 C 86 % 1026,6 hPa 0,0 l/m 16,1 km/h (3 Bft) SO 135 0,000 mm -0,2 C -5,3 C 19,3 km/h (3 Bft) 100,00 %
29.03.2023 12:36 1,9 C 86 % 1026,6 hPa 0,0 l/m 16,1 km/h (3 Bft) O-SO 112 0,000 mm -0,2 C -5,3 C 19,3 km/h (3 Bft) 100,00 %
29.03.2023 12:35 1,9 C 86 % 1026,7 hPa 0,0 l/m 12,9 km/h (3 Bft) SO 135 0,000 mm -0,2 C -3,4 C 19,3 km/h (3 Bft) 100,00 %
29.03.2023 12:34 1,8 C 86 % 1026,6 hPa 0,0 l/m 14,5 km/h (3 Bft) SO 135 0,000 mm -0,3 C -4,5 C 17,7 km/h (3 Bft) 100,00 %
29.03.2023 12:33 1,8 C 86 % 1026,5 hPa 0,0 l/m 20,9 km/h (4 Bft) SO 135 0,000 mm -0,3 C -7,7 C 24,1 km/h (4 Bft) 100,00 %
29.03.2023 12:32 1,8 C 86 % 1026,6 hPa 0,0 l/m 17,7 km/h (3 Bft) SO 135 0,000 mm -0,3 C -6,2 C 20,9 km/h (4 Bft) 86,96 %
29.03.2023 12:31 1,8 C 86 % 1026,5 hPa 0,0 l/m 19,3 km/h (3 Bft) SO 135 0,000 mm -0,3 C -7,0 C 20,9 km/h (4 Bft) 100,00 %
29.03.2023 12:30 1,8 C 86 % 1026,6 hPa 0,0 l/m 17,7 km/h (3 Bft) O-SO 112 0,000 mm -0,3 C -6,2 C 24,1 km/h (4 Bft) 100,00 %
29.03.2023 12:29 1,8 C 86 % 1026,5 hPa 0,0 l/m 16,1 km/h (3 Bft) SO 135 0,000 mm -0,3 C -5,4 C 20,9 km/h (4 Bft) 100,00 %
29.03.2023 12:28 1,8 C 86 % 1026,6 hPa 0,0 l/m 16,1 km/h (3 Bft) SO 135 0,000 mm -0,3 C -5,4 C 22,5 km/h (4 Bft) 100,00 %
29.03.2023 12:27 1,8 C 86 % 1026,7 hPa 0,0 l/m 16,1 km/h (3 Bft) O-SO 112 0,000 mm -0,3 C -5,4 C 24,1 km/h (4 Bft) 100,00 %
29.03.2023 12:26 1,8 C 86 % 1026,6 hPa 0,0 l/m 20,9 km/h (4 Bft) O-SO 112 0,000 mm -0,3 C -7,7 C 22,5 km/h (4 Bft) 95,65 %
29.03.2023 12:25 1,8 C 87 % 1026,6 hPa 0,0 l/m 17,7 km/h (3 Bft) SO 135 0,000 mm -0,1 C -6,2 C 22,5 km/h (4 Bft) 95,65 %
29.03.2023 12:24 1,8 C 87 % 1026,7 hPa 0,0 l/m 19,3 km/h (3 Bft) O-SO 112 0,000 mm -0,1 C -7,0 C 24,1 km/h (4 Bft) 95,65 %
29.03.2023 12:23 1,7 C 87 % 1026,7 hPa 0,0 l/m 16,1 km/h (3 Bft) O-SO 112 0,000 mm -0,2 C -5,5 C 20,9 km/h (4 Bft) 100,00 %
29.03.2023 12:22 1,7 C 87 % 1026,7 hPa 0,0 l/m 19,3 km/h (3 Bft) O-SO 112 0,000 mm -0,2 C -7,1 C 22,5 km/h (4 Bft) 100,00 %
29.03.2023 12:21 1,6 C 86 % 1026,6 hPa 0,0 l/m 17,7 km/h (3 Bft) O-SO 112 0,000 mm -0,5 C -6,5 C 22,5 km/h (4 Bft) 100,00 %
29.03.2023 12:20 1,6 C 86 % 1026,7 hPa 0,0 l/m 19,3 km/h (3 Bft) SO 135 0,000 mm -0,5 C -7,2 C 24,1 km/h (4 Bft) 95,65 %
29.03.2023 12:19 1,6 C 86 % 1026,6 hPa 0,0 l/m 19,3 km/h (3 Bft) SO 135 0,000 mm -0,5 C -7,2 C 24,1 km/h (4 Bft) 91,30 %
29.03.2023 12:18 1,6 C 86 % 1026,6 hPa 0,0 l/m 19,3 km/h (3 Bft) SO 135 0,000 mm -0,5 C -7,2 C 25,7 km/h (4 Bft) 100,00 %
29.03.2023 12:17 1,6 C 86 % 1026,7 hPa 0,0 l/m 17,7 km/h (3 Bft) SO 135 0,000 mm -0,5 C -6,5 C 25,7 km/h (4 Bft) 100,00 %
29.03.2023 12:16 1,7 C 86 % 1026,6 hPa 0,0 l/m 24,1 km/h (4 Bft) SO 135 0,000 mm -0,4 C -9,1 C 27,4 km/h (4 Bft) 100,00 %
29.03.2023 12:15 1,7 C 87 % 1026,6 hPa 0,0 l/m 19,3 km/h (3 Bft) O-SO 112 0,000 mm -0,2 C -7,1 C 27,4 km/h (4 Bft) 95,65 %
29.03.2023 12:14 1,7 C 86 % 1026,7 hPa 0,0 l/m 19,3 km/h (3 Bft) SO 135 0,000 mm -0,4 C -7,1 C 20,9 km/h (4 Bft) 95,65 %
29.03.2023 12:13 1,7 C 87 % 1026,7 hPa 0,0 l/m 19,3 km/h (3 Bft) SO 135 0,000 mm -0,2 C -7,1 C 25,7 km/h (4 Bft) 100,00 %
29.03.2023 12:12 1,7 C 87 % 1026,7 hPa 0,0 l/m 16,1 km/h (3 Bft) SO 135 0,000 mm -0,2 C -5,5 C 24,1 km/h (4 Bft) 100,00 %
29.03.2023 12:11 1,7 C 87 % 1026,6 hPa 0,0 l/m 14,5 km/h (3 Bft) SO 135 0,000 mm -0,2 C -4,6 C 19,3 km/h (3 Bft) 100,00 %
29.03.2023 12:10 1,7 C 87 % 1026,5 hPa 0,0 l/m 17,7 km/h (3 Bft) SO 135 0,000 mm -0,2 C -6,4 C 24,1 km/h (4 Bft) 100,00 %
29.03.2023 12:09 1,7 C 87 % 1026,6 hPa 0,0 l/m 17,7 km/h (3 Bft) O-SO 112 0,000 mm -0,2 C -6,4 C 24,1 km/h (4 Bft) 100,00 %
29.03.2023 12:08 1,6 C 87 % 1026,6 hPa 0,0 l/m 17,7 km/h (3 Bft) SO 135 0,000 mm -0,3 C -6,5 C 22,5 km/h (4 Bft) 100,00 %
29.03.2023 12:07 1,6 C 88 % 1026,6 hPa 0,0 l/m 19,3 km/h (3 Bft) SO 135 0,000 mm -0,2 C -7,2 C 24,1 km/h (4 Bft) 100,00 %
29.03.2023 12:06 1,6 C 88 % 1026,7 hPa 0,0 l/m 11,3 km/h (2 Bft) O-SO 112 0,000 mm -0,2 C -2,7 C 17,7 km/h (3 Bft) 100,00 %
29.03.2023 12:05 1,5 C 88 % 1026,8 hPa 0,0 l/m 19,3 km/h (3 Bft) SO 135 0,000 mm -0,3 C -7,4 C 24,1 km/h (4 Bft) 95,65 %
29.03.2023 12:04 1,4 C 88 % 1026,7 hPa 0,0 l/m 14,5 km/h (3 Bft) SO 135 0,000 mm -0,4 C -5,0 C 22,5 km/h (4 Bft) 100,00 %
29.03.2023 12:03 1,4 C 87 % 1026,7 hPa 0,0 l/m 17,7 km/h (3 Bft) SO 135 0,000 mm -0,5 C -6,7 C 24,1 km/h (4 Bft) 100,00 %
29.03.2023 12:02 1,3 C 87 % 1026,7 hPa 0,0 l/m 19,3 km/h (3 Bft) O-SO 112 0,000 mm -0,6 C -7,6 C 22,5 km/h (4 Bft) 95,65 %
29.03.2023 12:01 1,4 C 88 % 1026,7 hPa 0,0 l/m 20,9 km/h (4 Bft) SO 135 0,000 mm -0,4 C -8,2 C 24,1 km/h (4 Bft) 100,00 %
29.03.2023 12:00 1,4 C 88 % 1026,7 hPa 0,0 l/m 19,3 km/h (3 Bft) O-SO 112 0,000 mm -0,4 C -7,5 C 22,5 km/h (4 Bft) 95,65 %
29.03.2023 11:59 1,4 C 87 % 1026,7 hPa 0,0 l/m 17,7 km/h (3 Bft) O-SO 112 0,000 mm -0,5 C -6,7 C 19,3 km/h (3 Bft) 100,00 %
29.03.2023 11:58 1,3 C 87 % 1026,8 hPa 0,0 l/m 19,3 km/h (3 Bft) SO 135 0,000 mm -0,6 C -7,6 C 22,5 km/h (4 Bft) 100,00 %
29.03.2023 11:57 1,3 C 87 % 1026,7 hPa 0,0 l/m 17,7 km/h (3 Bft) O-SO 112 0,000 mm -0,6 C -6,9 C 20,9 km/h (4 Bft) 95,65 %
29.03.2023 11:56 1,3 C 87 % 1026,7 hPa 0,0 l/m 20,9 km/h (4 Bft) O-SO 112 0,000 mm -0,6 C -8,3 C 24,1 km/h (4 Bft) 95,65 %
29.03.2023 11:55 1,3 C 88 % 1026,7 hPa 0,0 l/m 19,3 km/h (3 Bft) O-SO 112 0,000 mm -0,5 C -7,6 C 24,1 km/h (4 Bft) 100,00 %
29.03.2023 11:54 1,3 C 87 % 1026,8 hPa 0,0 l/m 19,3 km/h (3 Bft) O-SO 112 0,000 mm -0,6 C -7,6 C 24,1 km/h (4 Bft) 100,00 %
29.03.2023 11:53 1,3 C 87 % 1026,8 hPa 0,0 l/m 19,3 km/h (3 Bft) O-SO 112 0,000 mm -0,6 C -7,6 C 22,5 km/h (4 Bft) 95,65 %
29.03.2023 11:52 1,3 C 87 % 1026,8 hPa 0,0 l/m 17,7 km/h (3 Bft) O-SO 112 0,000 mm -0,6 C -6,9 C 20,9 km/h (4 Bft) 100,00 %
29.03.2023 11:51 1,3 C 88 % 1026,8 hPa 0,0 l/m 16,1 km/h (3 Bft) SO 135 0,000 mm -0,5 C -6,0 C 24,1 km/h (4 Bft) 100,00 %
29.03.2023 11:50 1,3 C 87 % 1026,9 hPa 0,0 l/m 14,5 km/h (3 Bft) SO 135 0,000 mm -0,6 C -5,1 C 16,1 km/h (3 Bft) 91,30 %
29.03.2023 11:49 1,2 C 87 % 1026,9 hPa 0,0 l/m 16,1 km/h (3 Bft) SO 135 0,000 mm -0,7 C -6,1 C 17,7 km/h (3 Bft) 100,00 %
29.03.2023 11:48 1,3 C 87 % 1026,9 hPa 0,0 l/m 14,5 km/h (3 Bft) O-SO 112 0,000 mm -0,6 C -5,1 C 19,3 km/h (3 Bft) 100,00 %
29.03.2023 11:47 1,3 C 88 % 1026,9 hPa 0,0 l/m 14,5 km/h (3 Bft) SO 135 0,000 mm -0,5 C -5,1 C 19,3 km/h (3 Bft) 100,00 %
29.03.2023 11:46 1,2 C 88 % 1026,8 hPa 0,0 l/m 16,1 km/h (3 Bft) SO 135 0,000 mm -0,6 C -6,1 C 20,9 km/h (4 Bft) 100,00 %
29.03.2023 11:45 1,2 C 88 % 1026,9 hPa 0,0 l/m 14,5 km/h (3 Bft) SO 135 0,000 mm -0,6 C -5,2 C 20,9 km/h (4 Bft) 100,00 %
29.03.2023 11:44 1,2 C 88 % 1026,9 hPa 0,0 l/m 16,1 km/h (3 Bft) SO 135 0,000 mm -0,6 C -6,1 C 20,9 km/h (4 Bft) 91,30 %
29.03.2023 11:43 1,2 C 87 % 1026,8 hPa 0,0 l/m 19,3 km/h (3 Bft) O-SO 112 0,000 mm -0,7 C -7,8 C 22,5 km/h (4 Bft) 100,00 %
29.03.2023 11:42 1,1 C 87 % 1026,9 hPa 0,0 l/m 17,7 km/h (3 Bft) O-SO 112 0,000 mm -0,8 C -7,1 C 20,9 km/h (4 Bft) 95,65 %
29.03.2023 11:41 1,1 C 87 % 1026,8 hPa 0,0 l/m 20,9 km/h (4 Bft) SO 135 0,000 mm -0,8 C -8,6 C 24,1 km/h (4 Bft) 95,65 %
29.03.2023 11:40 1,1 C 87 % 1026,8 hPa 0,0 l/m 24,1 km/h (4 Bft) O-SO 112 0,000 mm -0,8 C -9,9 C 27,4 km/h (4 Bft) 100,00 %
29.03.2023 11:39 1,2 C 87 % 1027,0 hPa 0,0 l/m 22,5 km/h (4 Bft) O-SO 112 0,000 mm -0,7 C -9,1 C 27,4 km/h (4 Bft) 95,65 %
29.03.2023 11:38 1,2 C 87 % 1027,0 hPa 0,0 l/m 17,7 km/h (3 Bft) O-SO 112 0,000 mm -0,7 C -7,0 C 24,1 km/h (4 Bft) 100,00 %
29.03.2023 11:37 1,2 C 87 % 1027,0 hPa 0,0 l/m 14,5 km/h (3 Bft) O-SO 112 0,000 mm -0,7 C -5,2 C 22,5 km/h (4 Bft) 100,00 %
29.03.2023 11:36 1,2 C 87 % 1027,1 hPa 0,0 l/m 19,3 km/h (3 Bft) O-SO 112 0,000 mm -0,7 C -7,8 C 22,5 km/h (4 Bft) 100,00 %
29.03.2023 11:35 1,2 C 87 % 1027,0 hPa 0,0 l/m 19,3 km/h (3 Bft) SO 135 0,000 mm -0,7 C -7,8 C 24,1 km/h (4 Bft) 100,00 %
29.03.2023 11:34 1,2 C 87 % 1027,0 hPa 0,0 l/m 16,1 km/h (3 Bft) SO 135 0,000 mm -0,7 C -6,1 C 22,5 km/h (4 Bft) 100,00 %
29.03.2023 11:33 1,2 C 87 % 1027,0 hPa 0,0 l/m 16,1 km/h (3 Bft) O-SO 112 0,000 mm -0,7 C -6,1 C 20,9 km/h (4 Bft) 100,00 %
29.03.2023 11:32 1,2 C 88 % 1027,0 hPa 0,0 l/m 17,7 km/h (3 Bft) O-SO 112 0,000 mm -0,6 C -7,0 C 20,9 km/h (4 Bft) 100,00 %
29.03.2023 11:31 1,2 C 88 % 1027,0 hPa 0,0 l/m 14,5 km/h (3 Bft) O-SO 112 0,000 mm -0,6 C -5,2 C 19,3 km/h (3 Bft) 95,65 %
29.03.2023 11:30 1,2 C 88 % 1026,9 hPa 0,0 l/m 16,1 km/h (3 Bft) O-SO 112 0,000 mm -0,6 C -6,1 C 20,9 km/h (4 Bft) 100,00 %
29.03.2023 11:29 1,2 C 88 % 1027,0 hPa 0,0 l/m 12,9 km/h (3 Bft) SO 135 0,000 mm -0,6 C -4,2 C 19,3 km/h (3 Bft) 100,00 %
29.03.2023 11:28 1,2 C 88 % 1027,0 hPa 0,0 l/m 12,9 km/h (3 Bft) SO 135 0,000 mm -0,6 C -4,2 C 17,7 km/h (3 Bft) 100,00 %
29.03.2023 11:27 1,2 C 88 % 1026,9 hPa 0,0 l/m 11,3 km/h (2 Bft) SO 135 0,000 mm -0,6 C -3,1 C 17,7 km/h (3 Bft) 100,00 %
29.03.2023 11:26 1,1 C 87 % 1026,9 hPa 0,0 l/m 12,9 km/h (3 Bft) SO 135 0,000 mm -0,8 C -4,3 C 20,9 km/h (4 Bft) 100,00 %
29.03.2023 11:25 1,1 C 87 % 1026,9 hPa 0,0 l/m 17,7 km/h (3 Bft) O-SO 112 0,000 mm -0,8 C -7,1 C 22,5 km/h (4 Bft) 95,65 %
29.03.2023 11:24 1,1 C 87 % 1027,0 hPa 0,0 l/m 17,7 km/h (3 Bft) SO 135 0,000 mm -0,8 C -7,1 C 24,1 km/h (4 Bft) 100,00 %
29.03.2023 11:23 1,1 C 88 % 1026,8 hPa 0,0 l/m 14,5 km/h (3 Bft) S-SO 157 0,000 mm -0,7 C -5,4 C 19,3 km/h (3 Bft) 100,00 %
29.03.2023 11:22 1,2 C 88 % 1026,9 hPa 0,0 l/m 12,9 km/h (3 Bft) SO 135 0,000 mm -0,6 C -4,2 C 20,9 km/h (4 Bft) 91,30 %
29.03.2023 11:21 1,1 C 88 % 1026,9 hPa 0,0 l/m 14,5 km/h (3 Bft) SO 135 0,000 mm -0,7 C -5,4 C 20,9 km/h (4 Bft) 86,96 %
29.03.2023 11:20 1,1 C 88 % 1026,9 hPa 0,0 l/m 14,5 km/h (3 Bft) SO 135 0,000 mm -0,7 C -5,4 C 20,9 km/h (4 Bft) 100,00 %
29.03.2023 11:19 1,1 C 88 % 1027,0 hPa 0,0 l/m 11,3 km/h (2 Bft) S-SO 157 0,000 mm -0,7 C -3,2 C 17,7 km/h (3 Bft) 95,65 %
29.03.2023 11:18 1,1 C 88 % 1026,9 hPa 0,0 l/m 16,1 km/h (3 Bft) SO 135 0,000 mm -0,7 C -6,3 C 20,9 km/h (4 Bft) 100,00 %
29.03.2023 11:17 1,1 C 88 % 1026,9 hPa 0,0 l/m 12,9 km/h (3 Bft) SO 135 0,000 mm -0,7 C -4,3 C 16,1 km/h (3 Bft) 100,00 %
29.03.2023 11:16 0,9 C 87 % 1027,0 hPa 0,2 l/m 12,9 km/h (3 Bft) SO 135 0,000 mm -1,0 C -4,6 C 16,1 km/h (3 Bft) 91,30 %
29.03.2023 11:15 0,9 C 88 % 1026,9 hPa 0,0 l/m 17,7 km/h (3 Bft) SO 135 0,000 mm -0,9 C -7,4 C 20,9 km/h (4 Bft) 95,65 %
29.03.2023 11:14 0,9 C 88 % 1027,0 hPa 0,0 l/m 16,1 km/h (3 Bft) SO 135 0,000 mm -0,9 C -6,5 C 19,3 km/h (3 Bft) 100,00 %
29.03.2023 11:13 0,9 C 88 % 1026,9 hPa 0,0 l/m 9,7 km/h (2 Bft) SO 135 0,000 mm -0,9 C -2,2 C 20,9 km/h (4 Bft) 100,00 %
29.03.2023 11:12 0,8 C 88 % 1026,8 hPa 0,0 l/m 14,5 km/h (3 Bft) SO 135 0,000 mm -1,0 C -5,7 C 20,9 km/h (4 Bft) 100,00 %
29.03.2023 11:11 0,8 C 88 % 1027,0 hPa 0,0 l/m 14,5 km/h (3 Bft) SO 135 0,000 mm -1,0 C -5,7 C 17,7 km/h (3 Bft) 100,00 %
29.03.2023 11:10 0,8 C 88 % 1027,0 hPa 0,0 l/m 16,1 km/h (3 Bft) SO 135 0,000 mm -1,0 C -6,6 C 22,5 km/h (4 Bft) 100,00 %
29.03.2023 11:09 0,8 C 88 % 1027,0 hPa 0,0 l/m 17,7 km/h (3 Bft) O-SO 112 0,000 mm -1,0 C -7,5 C 20,9 km/h (4 Bft) 91,30 %
29.03.2023 11:08 0,8 C 88 % 1027,0 hPa 0,0 l/m 17,7 km/h (3 Bft) SO 135 0,000 mm -1,0 C -7,5 C 22,5 km/h (4 Bft) 95,65 %
29.03.2023 11:07 0,8 C 88 % 1027,0 hPa 0,0 l/m 16,1 km/h (3 Bft) O-SO 112 0,000 mm -1,0 C -6,6 C 20,9 km/h (4 Bft) 100,00 %
29.03.2023 11:06 0,8 C 87 % 1027,0 hPa 0,0 l/m 17,7 km/h (3 Bft) SO 135 0,000 mm -1,1 C -7,5 C 24,1 km/h (4 Bft) 100,00 %
29.03.2023 11:05 0,7 C 88 % 1027,0 hPa 0,0 l/m 19,3 km/h (3 Bft) SO 135 0,000 mm -1,1 C -8,4 C 24,1 km/h (4 Bft) 86,96 %
29.03.2023 11:04 0,8 C 88 % 1027,0 hPa 0,0 l/m 20,9 km/h (4 Bft) SO 135 0,000 mm -1,0 C -9,0 C 24,1 km/h (4 Bft) 95,65 %
29.03.2023 11:03 0,8 C 88 % 1026,9 hPa 0,0 l/m 17,7 km/h (3 Bft) O-SO 112 0,000 mm -1,0 C -7,5 C 22,5 km/h (4 Bft) 100,00 %
29.03.2023 11:02 0,7 C 88 % 1027,0 hPa 0,0 l/m 17,7 km/h (3 Bft) SO 135 0,000 mm -1,1 C -7,6 C 19,3 km/h (3 Bft) 91,30 %
29.03.2023 11:01 0,7 C 88 % 1027,0 hPa 0,0 l/m 16,1 km/h (3 Bft) SO 135 0,000 mm -1,1 C -6,8 C 19,3 km/h (3 Bft) 100,00 %
29.03.2023 11:00 0,7 C 88 % 1026,9 hPa 0,0 l/m 16,1 km/h (3 Bft) SO 135 0,000 mm -1,1 C -6,8 C 20,9 km/h (4 Bft) 100,00 %
29.03.2023 10:59 0,7 C 88 % 1027,0 hPa 0,0 l/m 14,5 km/h (3 Bft) O-SO 112 0,000 mm -1,1 C -5,8 C 19,3 km/h (3 Bft) 100,00 %
29.03.2023 10:58 0,6 C 88 % 1026,9 hPa 0,0 l/m 17,7 km/h (3 Bft) O-SO 112 0,000 mm -1,2 C -7,7 C 20,9 km/h (4 Bft) 95,65 %
29.03.2023 10:57 0,6 C 88 % 1026,8 hPa 0,0 l/m 19,3 km/h (3 Bft) O-SO 112 0,000 mm -1,2 C -8,5 C 22,5 km/h (4 Bft) 95,65 %
29.03.2023 10:56 0,6 C 88 % 1026,9 hPa 0,0 l/m 12,9 km/h (3 Bft) O-SO 112 0,000 mm -1,2 C -4,9 C 19,3 km/h (3 Bft) 100,00 %
29.03.2023 10:55 0,6 C 88 % 1027,0 hPa 0,0 l/m 16,1 km/h (3 Bft) O-SO 112 0,000 mm -1,2 C -6,9 C 19,3 km/h (3 Bft) 100,00 %
29.03.2023 10:54 0,5 C 88 % 1026,9 hPa 0,0 l/m 14,5 km/h (3 Bft) O-SO 112 0,000 mm -1,3 C -6,1 C 19,3 km/h (3 Bft) 100,00 %
29.03.2023 10:53 0,4 C 88 % 1026,8 hPa 0,0 l/m 12,9 km/h (3 Bft) SO 135 0,000 mm -1,3 C -5,2 C 16,1 km/h (3 Bft) 91,30 %
29.03.2023 10:52 0,4 C 88 % 1026,9 hPa 0,0 l/m 16,1 km/h (3 Bft) O-SO 112 0,000 mm -1,3 C -7,1 C 20,9 km/h (4 Bft) 86,96 %
29.03.2023 10:51 0,4 C 88 % 1026,9 hPa 0,0 l/m 16,1 km/h (3 Bft) O-SO 112 0,000 mm -1,3 C -7,1 C 20,9 km/h (4 Bft) 100,00 %
29.03.2023 10:50 0,3 C 88 % 1026,9 hPa 0,0 l/m 17,7 km/h (3 Bft) O-SO 112 0,000 mm -1,4 C -8,1 C 20,9 km/h (4 Bft) 100,00 %
29.03.2023 10:49 0,3 C 88 % 1027,0 hPa 0,0 l/m 14,5 km/h (3 Bft) O-SO 112 0,000 mm -1,4 C -6,3 C 19,3 km/h (3 Bft) 100,00 %
29.03.2023 10:48 0,3 C 88 % 1027,0 hPa 0,0 l/m 17,7 km/h (3 Bft) O-SO 112 0,000 mm -1,4 C -8,1 C 19,3 km/h (3 Bft) 100,00 %
29.03.2023 10:47 0,3 C 88 % 1027,0 hPa 0,0 l/m 17,7 km/h (3 Bft) O-SO 112 0,000 mm -1,4 C -8,1 C 19,3 km/h (3 Bft) 95,65 %
29.03.2023 10:46 0,3 C 88 % 1027,0 hPa 0,0 l/m 16,1 km/h (3 Bft) O-SO 112 0,000 mm -1,4 C -7,3 C 17,7 km/h (3 Bft) 95,65 %
29.03.2023 10:45 0,3 C 88 % 1027,0 hPa 0,0 l/m 14,5 km/h (3 Bft) O-SO 112 0,000 mm -1,4 C -6,3 C 17,7 km/h (3 Bft) 100,00 %
29.03.2023 10:44 0,3 C 88 % 1027,0 hPa 0,0 l/m 17,7 km/h (3 Bft) O-SO 112 0,000 mm -1,4 C -8,1 C 20,9 km/h (4 Bft) 100,00 %
29.03.2023 10:43 0,3 C 88 % 1027,1 hPa 0,0 l/m 16,1 km/h (3 Bft) O-SO 112 0,000 mm -1,4 C -7,3 C 19,3 km/h (3 Bft) 100,00 %
29.03.2023 10:42 0,3 C 88 % 1027,0 hPa 0,0 l/m 11,3 km/h (2 Bft) O-SO 112 0,000 mm -1,4 C -4,1 C 17,7 km/h (3 Bft) 100,00 %
29.03.2023 10:41 0,3 C 88 % 1027,1 hPa 0,0 l/m 16,1 km/h (3 Bft) O-SO 112 0,000 mm -1,4 C -7,3 C 19,3 km/h (3 Bft) 100,00 %
29.03.2023 10:40 0,2 C 88 % 1027,0 hPa 0,0 l/m 14,5 km/h (3 Bft) O-SO 112 0,000 mm -1,5 C -6,4 C 17,7 km/h (3 Bft) 91,30 %
29.03.2023 10:39 0,2 C 88 % 1027,1 hPa 0,0 l/m 14,5 km/h (3 Bft) O-SO 112 0,000 mm -1,5 C -6,4 C 17,7 km/h (3 Bft) 100,00 %
29.03.2023 10:38 0,2 C 89 % 1027,0 hPa 0,0 l/m 14,5 km/h (3 Bft) O-SO 112 0,000 mm -1,4 C -6,4 C 19,3 km/h (3 Bft) 91,30 %
29.03.2023 10:37 0,2 C 88 % 1027,0 hPa 0,0 l/m 12,9 km/h (3 Bft) O-SO 112 0,000 mm -1,5 C -5,4 C 16,1 km/h (3 Bft) 100,00 %
29.03.2023 10:36 0,1 C 88 % 1027,0 hPa 0,0 l/m 16,1 km/h (3 Bft) O-SO 112 0,000 mm -1,6 C -7,5 C 19,3 km/h (3 Bft) 95,65 %
29.03.2023 10:35 0,1 C 88 % 1027,0 hPa 0,0 l/m 11,3 km/h (2 Bft) O-SO 112 0,000 mm -1,6 C -4,4 C 14,5 km/h (3 Bft) 100,00 %
29.03.2023 10:34 0,0 C 88 % 1026,9 hPa 0,0 l/m 16,1 km/h (3 Bft) SO 135 0,000 mm -1,7 C -7,6 C 19,3 km/h (3 Bft) 100,00 %
29.03.2023 10:33 0,0 C 88 % 1026,9 hPa 0,0 l/m 17,7 km/h (3 Bft) SO 135 0,000 mm -1,7 C -8,5 C 22,5 km/h (4 Bft) 95,65 %
29.03.2023 10:32 -0,1 C 88 % 1026,9 hPa 0,0 l/m 17,7 km/h (3 Bft) SO 135 0,000 mm -1,8 C -8,6 C 19,3 km/h (3 Bft) 100,00 %
29.03.2023 10:31 -0,1 C 88 % 1026,9 hPa 0,0 l/m 14,5 km/h (3 Bft) O-SO 112 0,000 mm -1,8 C -6,8 C 17,7 km/h (3 Bft) 95,65 %
29.03.2023 10:30 -0,1 C 89 % 1027,0 hPa 0,0 l/m 14,5 km/h (3 Bft) SO 135 0,000 mm -1,7 C -6,8 C 17,7 km/h (3 Bft) 100,00 %
29.03.2023 10:29 -0,1 C 89 % 1027,0 hPa 0,0 l/m 12,9 km/h (3 Bft) O-SO 112 0,000 mm -1,7 C -5,8 C 16,1 km/h (3 Bft) 95,65 %
29.03.2023 10:28 -0,1 C 89 % 1027,0 hPa 0,0 l/m 14,5 km/h (3 Bft) O-SO 112 0,000 mm -1,7 C -6,8 C 16,1 km/h (3 Bft) 100,00 %
29.03.2023 10:27 -0,1 C 89 % 1027,0 hPa 0,0 l/m 14,5 km/h (3 Bft) O-SO 112 0,000 mm -1,7 C -6,8 C 16,1 km/h (3 Bft) 100,00 %
29.03.2023 10:26 -0,1 C 89 % 1027,0 hPa 0,0 l/m 12,9 km/h (3 Bft) O-SO 112 0,000 mm -1,7 C -5,8 C 16,1 km/h (3 Bft) 100,00 %
29.03.2023 10:25 -0,2 C 88 % 1027,0 hPa 0,0 l/m 12,9 km/h (3 Bft) O-SO 112 0,000 mm -1,9 C -5,9 C 17,7 km/h (3 Bft) 100,00 %
29.03.2023 10:24 -0,2 C 88 % 1026,9 hPa 0,0 l/m 12,9 km/h (3 Bft) SO 135 0,000 mm -1,9 C -5,9 C 19,3 km/h (3 Bft) 100,00 %
29.03.2023 10:23 -0,2 C 88 % 1027,0 hPa 0,0 l/m 17,7 km/h (3 Bft) O-SO 112 0,000 mm -1,9 C -8,7 C 20,9 km/h (4 Bft) 100,00 %
29.03.2023 10:22 -0,3 C 89 % 1027,0 hPa 0,0 l/m 16,1 km/h (3 Bft) O-SO 112 0,000 mm -1,9 C -8,0 C 19,3 km/h (3 Bft) 100,00 %
29.03.2023 10:21 -0,3 C 89 % 1027,0 hPa 0,0 l/m 17,7 km/h (3 Bft) SO 135 0,000 mm -1,9 C -8,9 C 24,1 km/h (4 Bft) 100,00 %
29.03.2023 10:20 -0,3 C 89 % 1026,9 hPa 0,0 l/m 17,7 km/h (3 Bft) O-SO 112 0,000 mm -1,9 C -8,9 C 22,5 km/h (4 Bft) 100,00 %
29.03.2023 10:19 -0,3 C 89 % 1027,0 hPa 0,0 l/m 16,1 km/h (3 Bft) O-SO 112 0,000 mm -1,9 C -8,0 C 20,9 km/h (4 Bft) 100,00 %
29.03.2023 10:18 -0,3 C 89 % 1027,0 hPa 0,0 l/m 20,9 km/h (4 Bft) SO 135 0,000 mm -1,9 C -10,4 C 22,5 km/h (4 Bft) 100,00 %
29.03.2023 10:17 -0,3 C 89 % 1027,0 hPa 0,0 l/m 19,3 km/h (3 Bft) SO 135 0,000 mm -1,9 C -9,7 C 22,5 km/h (4 Bft) 100,00 %
29.03.2023 10:16 -0,3 C 89 % 1027,0 hPa 0,0 l/m 20,9 km/h (4 Bft) O-SO 112 0,000 mm -1,9 C -10,4 C 27,4 km/h (4 Bft) 100,00 %
29.03.2023 10:15 -0,4 C 89 % 1027,0 hPa 0,0 l/m 22,5 km/h (4 Bft) O-SO 112 0,000 mm -2,0 C -11,3 C 25,7 km/h (4 Bft) 100,00 %
29.03.2023 10:14 -0,3 C 89 % 1027,0 hPa 0,0 l/m 19,3 km/h (3 Bft) O-SO 112 0,000 mm -1,9 C -9,7 C 24,1 km/h (4 Bft) 100,00 %
29.03.2023 10:13 -0,4 C 89 % 1027,0 hPa 0,0 l/m 20,9 km/h (4 Bft) SO 135 0,000 mm -2,0 C -10,6 C 22,5 km/h (4 Bft) 100,00 %
29.03.2023 10:12 -0,4 C 89 % 1027,0 hPa 0,0 l/m 22,5 km/h (4 Bft) O-SO 112 0,000 mm -2,0 C -11,3 C 24,1 km/h (4 Bft) 100,00 %
29.03.2023 10:11 -0,4 C 88 % 1027,0 hPa 0,0 l/m 20,9 km/h (4 Bft) O-SO 112 0,000 mm -2,1 C -10,6 C 22,5 km/h (4 Bft) 100,00 %
29.03.2023 10:10 -0,4 C 88 % 1027,0 hPa 0,0 l/m 19,3 km/h (3 Bft) SO 135 0,000 mm -2,1 C -9,8 C 22,5 km/h (4 Bft) 95,65 %
29.03.2023 10:09 -0,4 C 89 % 1027,0 hPa 0,0 l/m 20,9 km/h (4 Bft) O-SO 112 0,000 mm -2,0 C -10,6 C 24,1 km/h (4 Bft) 95,65 %
29.03.2023 10:08 -0,4 C 88 % 1027,0 hPa 0,0 l/m 19,3 km/h (3 Bft) O-SO 112 0,000 mm -2,1 C -9,8 C 22,5 km/h (4 Bft) 100,00 %
29.03.2023 10:07 -0,4 C 88 % 1027,0 hPa 0,0 l/m 17,7 km/h (3 Bft) O-SO 112 0,000 mm -2,1 C -9,0 C 20,9 km/h (4 Bft) 91,30 %
29.03.2023 10:06 -0,4 C 88 % 1027,0 hPa 0,0 l/m 19,3 km/h (3 Bft) O-SO 112 0,000 mm -2,1 C -9,8 C 20,9 km/h (4 Bft) 100,00 %
29.03.2023 10:05 -0,4 C 88 % 1027,0 hPa 0,0 l/m 19,3 km/h (3 Bft) SO 135 0,000 mm -2,1 C -9,8 C 22,5 km/h (4 Bft) 95,65 %
29.03.2023 10:04 -0,4 C 88 % 1027,0 hPa 0,0 l/m 22,5 km/h (4 Bft) O-SO 112 0,000 mm -2,1 C -11,3 C 29,0 km/h (5 Bft) 95,65 %
29.03.2023 10:03 -0,5 C 88 % 1026,9 hPa 0,0 l/m 24,1 km/h (4 Bft) O-SO 112 0,000 mm -2,2 C -12,0 C 25,7 km/h (4 Bft) 100,00 %
29.03.2023 10:02 -0,4 C 88 % 1027,0 hPa 0,0 l/m 22,5 km/h (4 Bft) O-SO 112 0,000 mm -2,1 C -11,3 C 29,0 km/h (5 Bft) 100,00 %
29.03.2023 10:01 -0,4 C 88 % 1027,1 hPa 0,0 l/m 20,9 km/h (4 Bft) O-SO 112 0,000 mm -2,1 C -10,6 C 24,1 km/h (4 Bft) 95,65 %
29.03.2023 10:00 -0,5 C 88 % 1027,1 hPa 0,0 l/m 20,9 km/h (4 Bft) O-SO 112 0,000 mm -2,2 C -10,7 C 24,1 km/h (4 Bft) 95,65 %
29.03.2023 09:59 -0,5 C 88 % 1027,0 hPa 0,0 l/m 22,5 km/h (4 Bft) O-SO 112 0,000 mm -2,2 C -11,4 C 25,7 km/h (4 Bft) 100,00 %
29.03.2023 09:58 -0,4 C 89 % 1027,0 hPa 0,0 l/m 22,5 km/h (4 Bft) O-SO 112 0,000 mm -2,0 C -11,3 C 24,1 km/h (4 Bft) 100,00 %
29.03.2023 09:57 -0,4 C 89 % 1027,0 hPa 0,0 l/m 19,3 km/h (3 Bft) SO 135 0,000 mm -2,0 C -9,8 C 22,5 km/h (4 Bft) 100,00 %
29.03.2023 09:56 -0,4 C 88 % 1027,0 hPa 0,0 l/m 19,3 km/h (3 Bft) SO 135 0,000 mm -2,1 C -9,8 C 20,9 km/h (4 Bft) 100,00 %
29.03.2023 09:55 -0,5 C 89 % 1026,9 hPa 0,0 l/m 20,9 km/h (4 Bft) O-SO 112 0,000 mm -2,1 C -10,7 C 25,7 km/h (4 Bft) 95,65 %
29.03.2023 09:54 -0,4 C 89 % 1027,0 hPa 0,0 l/m 22,5 km/h (4 Bft) SO 135 0,000 mm -2,0 C -11,3 C 25,7 km/h (4 Bft) 100,00 %
29.03.2023 09:53 -0,4 C 89 % 1027,0 hPa 0,0 l/m 24,1 km/h (4 Bft) O-SO 112 0,000 mm -2,0 C -11,9 C 25,7 km/h (4 Bft) 100,00 %
29.03.2023 09:52 -0,5 C 89 % 1027,0 hPa 0,0 l/m 20,9 km/h (4 Bft) O-SO 112 0,000 mm -2,1 C -10,7 C 24,1 km/h (4 Bft) 100,00 %
29.03.2023 09:51 -0,4 C 88 % 1027,1 hPa 0,0 l/m 22,5 km/h (4 Bft) O-SO 112 0,000 mm -2,1 C -11,3 C 25,7 km/h (4 Bft) 95,65 %
29.03.2023 09:50 -0,4 C 88 % 1027,0 hPa 0,0 l/m 20,9 km/h (4 Bft) O-SO 112 0,000 mm -2,1 C -10,6 C 24,1 km/h (4 Bft) 100,00 %
29.03.2023 09:49 -0,4 C 88 % 1027,1 hPa 0,0 l/m 19,3 km/h (3 Bft) O-SO 112 0,000 mm -2,1 C -9,8 C 22,5 km/h (4 Bft) 100,00 %
29.03.2023 09:48 -0,4 C 89 % 1027,1 hPa 0,0 l/m 20,9 km/h (4 Bft) SO 135 0,000 mm -2,0 C -10,6 C 24,1 km/h (4 Bft) 100,00 %
29.03.2023 09:47 -0,4 C 88 % 1027,1 hPa 0,0 l/m 19,3 km/h (3 Bft) O-SO 112 0,000 mm -2,1 C -9,8 C 22,5 km/h (4 Bft) 100,00 %
29.03.2023 09:46 -0,4 C 88 % 1027,1 hPa 0,0 l/m 19,3 km/h (3 Bft) O-SO 112 0,000 mm -2,1 C -9,8 C 22,5 km/h (4 Bft) 100,00 %
29.03.2023 09:45 -0,4 C 88 % 1027,1 hPa 0,0 l/m 20,9 km/h (4 Bft) O-SO 112 0,000 mm -2,1 C -10,6 C 22,5 km/h (4 Bft) 95,65 %
29.03.2023 09:44 -0,4 C 89 % 1027,1 hPa 0,0 l/m 17,7 km/h (3 Bft) O-SO 112 0,000 mm -2,0 C -9,0 C 20,9 km/h (4 Bft) 100,00 %
29.03.2023 09:43 -0,4 C 89 % 1027,2 hPa 0,0 l/m 19,3 km/h (3 Bft) SO 135 0,000 mm -2,0 C -9,8 C 20,9 km/h (4 Bft) 91,30 %
29.03.2023 09:42 -0,4 C 89 % 1027,1 hPa 0,0 l/m 17,7 km/h (3 Bft) SO 135 0,000 mm -2,0 C -9,0 C 20,9 km/h (4 Bft) 100,00 %
29.03.2023 09:41 -0,4 C 88 % 1027,1 hPa 0,0 l/m 17,7 km/h (3 Bft) O-SO 112 0,000 mm -2,1 C -9,0 C 22,5 km/h (4 Bft) 95,65 %
29.03.2023 09:40 -0,5 C 88 % 1027,1 hPa 0,0 l/m 20,9 km/h (4 Bft) O-SO 112 0,000 mm -2,2 C -10,7 C 24,1 km/h (4 Bft) 91,30 %
29.03.2023 09:39 -0,5 C 88 % 1027,1 hPa 0,0 l/m 22,5 km/h (4 Bft) O-SO 112 0,000 mm -2,2 C -11,4 C 24,1 km/h (4 Bft) 100,00 %
29.03.2023 09:38 -0,5 C 88 % 1027,0 hPa 0,0 l/m 22,5 km/h (4 Bft) O-SO 112 0,000 mm -2,2 C -11,4 C 27,4 km/h (4 Bft) 100,00 %
29.03.2023 09:37 -0,4 C 88 % 1027,0 hPa 0,0 l/m 22,5 km/h (4 Bft) O-SO 112 0,000 mm -2,1 C -11,3 C 27,4 km/h (4 Bft) 95,65 %
29.03.2023 09:36 -0,4 C 88 % 1027,0 hPa 0,0 l/m 19,3 km/h (3 Bft) O-SO 112 0,000 mm -2,1 C -9,8 C 24,1 km/h (4 Bft) 91,30 %
29.03.2023 09:35 -0,4 C 88 % 1027,0 hPa 0,0 l/m 20,9 km/h (4 Bft) O-SO 112 0,000 mm -2,1 C -10,6 C 24,1 km/h (4 Bft) 100,00 %
29.03.2023 09:34 -0,4 C 88 % 1027,0 hPa 0,0 l/m 20,9 km/h (4 Bft) O-SO 112 0,000 mm -2,1 C -10,6 C 24,1 km/h (4 Bft) 95,65 %
29.03.2023 09:33 -0,4 C 88 % 1027,0 hPa 0,0 l/m 19,3 km/h (3 Bft) O-SO 112 0,000 mm -2,1 C -9,8 C 22,5 km/h (4 Bft) 100,00 %
29.03.2023 09:32 -0,4 C 88 % 1027,1 hPa 0,0 l/m 16,1 km/h (3 Bft) O-SO 112 0,000 mm -2,1 C -8,1 C 19,3 km/h (3 Bft) 100,00 %
29.03.2023 09:31 -0,4 C 88 % 1027,1 hPa 0,0 l/m 14,5 km/h (3 Bft) O-SO 112 0,000 mm -2,1 C -7,2 C 19,3 km/h (3 Bft) 100,00 %
29.03.2023 09:30 -0,4 C 88 % 1027,1 hPa 0,0 l/m 19,3 km/h (3 Bft) O-SO 112 0,000 mm -2,1 C -9,8 C 22,5 km/h (4 Bft) 100,00 %
29.03.2023 09:29 -0,4 C 89 % 1027,0 hPa 0,0 l/m 16,1 km/h (3 Bft) O-SO 112 0,000 mm -2,0 C -8,1 C 19,3 km/h (3 Bft) 100,00 %
29.03.2023 09:28 -0,4 C 88 % 1027,0 hPa 0,0 l/m 16,1 km/h (3 Bft) SO 135 0,000 mm -2,1 C -8,1 C 19,3 km/h (3 Bft) 91,30 %
29.03.2023 09:27 -0,4 C 88 % 1027,0 hPa 0,0 l/m 14,5 km/h (3 Bft) O-SO 112 0,000 mm -2,1 C -7,2 C 20,9 km/h (4 Bft) 100,00 %
29.03.2023 09:26 -0,5 C 88 % 1027,0 hPa 0,0 l/m 20,9 km/h (4 Bft) O-SO 112 0,000 mm -2,2 C -10,7 C 22,5 km/h (4 Bft) 100,00 %
29.03.2023 09:25 -0,5 C 88 % 1027,1 hPa 0,0 l/m 17,7 km/h (3 Bft) SO 135 0,000 mm -2,2 C -9,1 C 22,5 km/h (4 Bft) 100,00 %
29.03.2023 09:24 -0,5 C 88 % 1027,0 hPa 0,0 l/m 19,3 km/h (3 Bft) O-SO 112 0,000 mm -2,2 C -9,9 C 24,1 km/h (4 Bft) 91,30 %
29.03.2023 09:23 -0,5 C 88 % 1027,0 hPa 0,0 l/m 20,9 km/h (4 Bft) O-SO 112 0,000 mm -2,2 C -10,7 C 24,1 km/h (4 Bft) 100,00 %
29.03.2023 09:22 -0,5 C 88 % 1027,0 hPa 0,0 l/m 20,9 km/h (4 Bft) O-SO 112 0,000 mm -2,2 C -10,7 C 25,7 km/h (4 Bft) 95,65 %
29.03.2023 09:21 -0,6 C 89 % 1026,9 hPa 0,0 l/m 19,3 km/h (3 Bft) O-SO 112 0,000 mm -2,2 C -10,1 C 24,1 km/h (4 Bft) 100,00 %
29.03.2023 09:20 -0,5 C 88 % 1027,1 hPa 0,0 l/m 20,9 km/h (4 Bft) O-SO 112 0,000 mm -2,2 C -10,7 C 25,7 km/h (4 Bft) 100,00 %
29.03.2023 09:19 -0,6 C 88 % 1027,1 hPa 0,0 l/m 19,3 km/h (3 Bft) O-SO 112 0,000 mm -2,3 C -10,1 C 20,9 km/h (4 Bft) 100,00 %
29.03.2023 09:18 -0,6 C 88 % 1027,1 hPa 0,0 l/m 19,3 km/h (3 Bft) O-SO 112 0,000 mm -2,3 C -10,1 C 20,9 km/h (4 Bft) 95,65 %
29.03.2023 09:17 -0,6 C 88 % 1027,0 hPa 0,0 l/m 19,3 km/h (3 Bft) O-SO 112 0,000 mm -2,3 C -10,1 C 20,9 km/h (4 Bft) 100,00 %
29.03.2023 09:16 -0,6 C 88 % 1027,0 hPa 0,0 l/m 17,7 km/h (3 Bft) O-SO 112 0,000 mm -2,3 C -9,3 C 24,1 km/h (4 Bft) 100,00 %
29.03.2023 09:15 -0,6 C 88 % 1027,0 hPa 0,0 l/m 22,5 km/h (4 Bft) O-SO 112 0,000 mm -2,3 C -11,5 C 24,1 km/h (4 Bft) 100,00 %
29.03.2023 09:14 -0,6 C 88 % 1027,0 hPa 0,0 l/m 19,3 km/h (3 Bft) O-SO 112 0,000 mm -2,3 C -10,1 C 24,1 km/h (4 Bft) 91,30 %
29.03.2023 09:13 -0,6 C 88 % 1027,0 hPa 0,0 l/m 17,7 km/h (3 Bft) O-SO 112 0,000 mm -2,3 C -9,3 C 20,9 km/h (4 Bft) 100,00 %
29.03.2023 09:12 -0,6 C 88 % 1027,0 hPa 0,0 l/m 16,1 km/h (3 Bft) SO 135 0,000 mm -2,3 C -8,4 C 19,3 km/h (3 Bft) 95,65 %
29.03.2023 09:11 -0,6 C 88 % 1027,0 hPa 0,0 l/m 14,5 km/h (3 Bft) O-SO 112 0,000 mm -2,3 C -7,4 C 17,7 km/h (3 Bft) 100,00 %
29.03.2023 09:10 -0,6 C 88 % 1027,1 hPa 0,0 l/m 16,1 km/h (3 Bft) O-SO 112 0,000 mm -2,3 C -8,4 C 17,7 km/h (3 Bft) 100,00 %
29.03.2023 09:09 -0,6 C 88 % 1027,1 hPa 0,0 l/m 14,5 km/h (3 Bft) O-SO 112 0,000 mm -2,3 C -7,4 C 17,7 km/h (3 Bft) 91,30 %
29.03.2023 09:08 -0,7 C 89 % 1027,0 hPa 0,0 l/m 14,5 km/h (3 Bft) SO 135 0,000 mm -2,3 C -7,5 C 16,1 km/h (3 Bft) 100,00 %
29.03.2023 09:07 -0,7 C 89 % 1027,1 hPa 0,0 l/m 12,9 km/h (3 Bft) SO 135 0,000 mm -2,3 C -6,5 C 17,7 km/h (3 Bft) 91,30 %
29.03.2023 09:06 -0,7 C 89 % 1027,0 hPa 0,0 l/m 17,7 km/h (3 Bft) O-SO 112 0,000 mm -2,3 C -9,4 C 20,9 km/h (4 Bft) 95,65 %
29.03.2023 09:05 -0,7 C 89 % 1027,0 hPa 0,0 l/m 16,1 km/h (3 Bft) O-SO 112 0,000 mm -2,3 C -8,5 C 20,9 km/h (4 Bft) 100,00 %
29.03.2023 09:04 -0,7 C 89 % 1027,0 hPa 0,0 l/m 14,5 km/h (3 Bft) O-SO 112 0,000 mm -2,3 C -7,5 C 19,3 km/h (3 Bft) 91,30 %
29.03.2023 09:03 -0,7 C 89 % 1027,0 hPa 0,0 l/m 12,9 km/h (3 Bft) O-SO 112 0,000 mm -2,3 C -6,5 C 16,1 km/h (3 Bft) 100,00 %
29.03.2023 09:02 -0,7 C 89 % 1027,0 hPa 0,0 l/m 12,9 km/h (3 Bft) SO 135 0,000 mm -2,3 C -6,5 C 17,7 km/h (3 Bft) 100,00 %
29.03.2023 09:01 -0,7 C 89 % 1027,0 hPa 0,0 l/m 12,9 km/h (3 Bft) SO 135 0,000 mm -2,3 C -6,5 C 16,1 km/h (3 Bft) 100,00 %
29.03.2023 09:00 -0,7 C 89 % 1027,0 hPa 0,0 l/m 11,3 km/h (2 Bft) SO 135 0,000 mm -2,3 C -5,3 C 14,5 km/h (3 Bft) 100,00 %
29.03.2023 08:59 -0,7 C 89 % 1027,0 hPa 0,0 l/m 12,9 km/h (3 Bft) SO 135 0,000 mm -2,3 C -6,5 C 14,5 km/h (3 Bft) 100,00 %
29.03.2023 08:58 -0,7 C 88 % 1027,0 hPa 0,0 l/m 8,0 km/h (2 Bft) SO 135 0,000 mm -2,4 C -2,4 C 11,3 km/h (2 Bft) 100,00 %
29.03.2023 08:57 -0,8 C 88 % 1027,0 hPa 0,0 l/m 11,3 km/h (2 Bft) SO 135 0,000 mm -2,5 C -5,4 C 16,1 km/h (3 Bft) 95,65 %
29.03.2023 08:56 -0,8 C 88 % 1027,0 hPa 0,0 l/m 14,5 km/h (3 Bft) O-SO 112 0,000 mm -2,5 C -7,6 C 16,1 km/h (3 Bft) 100,00 %
29.03.2023 08:55 -0,8 C 88 % 1026,9 hPa 0,0 l/m 14,5 km/h (3 Bft) SO 135 0,000 mm -2,5 C -7,6 C 17,7 km/h (3 Bft) 95,65 %
29.03.2023 08:54 -0,8 C 88 % 1026,9 hPa 0,0 l/m 12,9 km/h (3 Bft) SO 135 0,000 mm -2,5 C -6,6 C 16,1 km/h (3 Bft) 100,00 %
29.03.2023 08:53 -0,8 C 88 % 1026,9 hPa 0,0 l/m 12,9 km/h (3 Bft) O-SO 112 0,000 mm -2,5 C -6,6 C 16,1 km/h (3 Bft) 100,00 %
29.03.2023 08:52 -0,8 C 88 % 1026,9 hPa 0,0 l/m 16,1 km/h (3 Bft) SO 135 0,000 mm -2,5 C -8,6 C 19,3 km/h (3 Bft) 100,00 %
29.03.2023 08:51 -0,8 C 89 % 1026,9 hPa 0,0 l/m 16,1 km/h (3 Bft) SO 135 0,000 mm -2,4 C -8,6 C 17,7 km/h (3 Bft) 95,65 %
29.03.2023 08:50 -0,8 C 89 % 1026,9 hPa 0,0 l/m 16,1 km/h (3 Bft) SO 135 0,000 mm -2,4 C -8,6 C 17,7 km/h (3 Bft) 91,30 %
29.03.2023 08:49 -0,8 C 89 % 1026,9 hPa 0,0 l/m 11,3 km/h (2 Bft) SO 135 0,000 mm -2,4 C -5,4 C 17,7 km/h (3 Bft) 100,00 %
29.03.2023 08:48 -0,8 C 89 % 1026,9 hPa 0,0 l/m 8,0 km/h (2 Bft) SO 135 0,000 mm -2,4 C -2,5 C 11,3 km/h (2 Bft) 100,00 %
29.03.2023 08:47 -0,8 C 89 % 1026,9 hPa 0,0 l/m 4,8 km/h (1 Bft) SO 135 0,000 mm -2,4 C -0,8 C 8,0 km/h (2 Bft) 95,65 %
29.03.2023 08:46 -0,9 C 89 % 1026,8 hPa 0,0 l/m 9,7 km/h (2 Bft) SO 135 0,000 mm -2,5 C -4,2 C 12,9 km/h (3 Bft) 100,00 %
29.03.2023 08:45 -0,8 C 89 % 1026,8 hPa 0,0 l/m 6,4 km/h (2 Bft) S-SO 157 0,000 mm -2,4 C -0,8 C 11,3 km/h (2 Bft) 95,65 %
29.03.2023 08:44 -0,9 C 89 % 1026,8 hPa 0,0 l/m 8,0 km/h (2 Bft) SO 135 0,000 mm -2,5 C -2,6 C 12,9 km/h (3 Bft) 100,00 %
29.03.2023 08:43 -0,9 C 89 % 1026,9 hPa 0,0 l/m 11,3 km/h (2 Bft) SO 135 0,000 mm -2,5 C -5,5 C 14,5 km/h (3 Bft) 95,65 %
29.03.2023 08:42 -0,9 C 89 % 1026,9 hPa 0,0 l/m 11,3 km/h (2 Bft) SO 135 0,000 mm -2,5 C -5,5 C 12,9 km/h (3 Bft) 86,96 %
29.03.2023 08:41 -0,9 C 89 % 1026,8 hPa 0,0 l/m 11,3 km/h (2 Bft) SO 135 0,000 mm -2,5 C -5,5 C 12,9 km/h (3 Bft) 100,00 %
29.03.2023 08:40 -0,9 C 89 % 1026,8 hPa 0,0 l/m 12,9 km/h (3 Bft) O-SO 112 0,000 mm -2,5 C -6,7 C 14,5 km/h (3 Bft) 100,00 %
29.03.2023 08:39 -0,9 C 89 % 1026,7 hPa 0,0 l/m 12,9 km/h (3 Bft) O-SO 112 0,000 mm -2,5 C -6,7 C 14,5 km/h (3 Bft) 100,00 %
29.03.2023 08:38 -0,9 C 89 % 1026,8 hPa 0,0 l/m 12,9 km/h (3 Bft) O-SO 112 0,000 mm -2,5 C -6,7 C 16,1 km/h (3 Bft) 95,65 %
29.03.2023 08:37 -0,9 C 88 % 1026,8 hPa 0,0 l/m 12,9 km/h (3 Bft) O-SO 112 0,000 mm -2,6 C -6,7 C 14,5 km/h (3 Bft) 91,30 %
29.03.2023 08:36 -0,9 C 89 % 1026,7 hPa 0,0 l/m 12,9 km/h (3 Bft) O-SO 112 0,000 mm -2,5 C -6,7 C 14,5 km/h (3 Bft) 100,00 %
29.03.2023 08:35 -0,9 C 89 % 1026,8 hPa 0,0 l/m 14,5 km/h (3 Bft) O-SO 112 0,000 mm -2,5 C -7,8 C 16,1 km/h (3 Bft) 91,30 %
29.03.2023 08:34 -0,9 C 88 % 1026,8 hPa 0,0 l/m 14,5 km/h (3 Bft) O-SO 112 0,000 mm -2,6 C -7,8 C 16,1 km/h (3 Bft) 100,00 %
29.03.2023 08:33 -0,9 C 88 % 1026,8 hPa 0,0 l/m 16,1 km/h (3 Bft) O-SO 112 0,000 mm -2,6 C -8,7 C 16,1 km/h (3 Bft) 100,00 %
29.03.2023 08:32 -0,9 C 88 % 1026,8 hPa 0,0 l/m 14,5 km/h (3 Bft) O-SO 112 0,000 mm -2,6 C -7,8 C 16,1 km/h (3 Bft) 95,65 %
29.03.2023 08:31 -0,9 C 88 % 1026,8 hPa 0,0 l/m 14,5 km/h (3 Bft) O-SO 112 0,000 mm -2,6 C -7,8 C 17,7 km/h (3 Bft) 91,30 %
29.03.2023 08:30 -0,9 C 88 % 1026,8 hPa 0,0 l/m 14,5 km/h (3 Bft) O-SO 112 0,000 mm -2,6 C -7,8 C 16,1 km/h (3 Bft) 91,30 %
29.03.2023 08:29 -0,9 C 88 % 1026,8 hPa 0,0 l/m 17,7 km/h (3 Bft) O-SO 112 0,000 mm -2,6 C -9,6 C 19,3 km/h (3 Bft) 100,00 %
29.03.2023 08:28 -0,9 C 88 % 1026,8 hPa 0,0 l/m 16,1 km/h (3 Bft) O-SO 112 0,000 mm -2,6 C -8,7 C 17,7 km/h (3 Bft) 91,30 %
29.03.2023 08:27 -0,9 C 88 % 1026,8 hPa 0,0 l/m 16,1 km/h (3 Bft) O-SO 112 0,000 mm -2,6 C -8,7 C 17,7 km/h (3 Bft) 100,00 %
29.03.2023 08:26 -0,9 C 88 % 1026,8 hPa 0,0 l/m 14,5 km/h (3 Bft) O-SO 112 0,000 mm -2,6 C -7,8 C 17,7 km/h (3 Bft) 100,00 %
29.03.2023 08:25 -0,9 C 88 % 1026,9 hPa 0,0 l/m 14,5 km/h (3 Bft) O-SO 112 0,000 mm -2,6 C -7,8 C 16,1 km/h (3 Bft) 100,00 %
29.03.2023 08:24 -0,9 C 88 % 1026,9 hPa 0,0 l/m 14,5 km/h (3 Bft) SO 135 0,000 mm -2,6 C -7,8 C 16,1 km/h (3 Bft) 95,65 %
29.03.2023 08:23 -0,9 C 88 % 1026,9 hPa 0,0 l/m 14,5 km/h (3 Bft) SO 135 0,000 mm -2,6 C -7,8 C 16,1 km/h (3 Bft) 100,00 %
29.03.2023 08:22 -0,9 C 88 % 1026,9 hPa 0,0 l/m 12,9 km/h (3 Bft) O-SO 112 0,000 mm -2,6 C -6,7 C 14,5 km/h (3 Bft) 91,30 %
29.03.2023 08:21 -0,9 C 88 % 1026,9 hPa 0,0 l/m 14,5 km/h (3 Bft) O-SO 112 0,000 mm -2,6 C -7,8 C 16,1 km/h (3 Bft) 100,00 %
29.03.2023 08:20 -0,9 C 88 % 1027,0 hPa 0,0 l/m 14,5 km/h (3 Bft) O-SO 112 0,000 mm -2,6 C -7,8 C 16,1 km/h (3 Bft) 100,00 %
29.03.2023 08:19 -0,9 C 88 % 1026,9 hPa 0,0 l/m 12,9 km/h (3 Bft) O-SO 112 0,000 mm -2,6 C -6,7 C 14,5 km/h (3 Bft) 91,30 %
29.03.2023 08:18 -0,9 C 88 % 1027,0 hPa 0,0 l/m 12,9 km/h (3 Bft) O-SO 112 0,000 mm -2,6 C -6,7 C 14,5 km/h (3 Bft) 95,65 %
29.03.2023 08:17 -0,9 C 88 % 1027,0 hPa 0,0 l/m 12,9 km/h (3 Bft) O 90 0,000 mm -2,6 C -6,7 C 14,5 km/h (3 Bft) 100,00 %
29.03.2023 08:16 -0,9 C 88 % 1027,0 hPa 0,0 l/m 11,3 km/h (2 Bft) O 90 0,000 mm -2,6 C -5,5 C 12,9 km/h (3 Bft) 100,00 %
29.03.2023 08:15 -0,9 C 88 % 1027,0 hPa 0,0 l/m 11,3 km/h (2 Bft) O 90 0,000 mm -2,6 C -5,5 C 12,9 km/h (3 Bft) 100,00 %
29.03.2023 08:14 -0,9 C 88 % 1027,1 hPa 0,0 l/m 12,9 km/h (3 Bft) O-SO 112 0,000 mm -2,6 C -6,7 C 14,5 km/h (3 Bft) 100,00 %
29.03.2023 08:13 -0,9 C 88 % 1027,0 hPa 0,0 l/m 12,9 km/h (3 Bft) O 90 0,000 mm -2,6 C -6,7 C 14,5 km/h (3 Bft) 100,00 %
29.03.2023 08:12 -0,9 C 88 % 1026,9 hPa 0,0 l/m 14,5 km/h (3 Bft) O-SO 112 0,000 mm -2,6 C -7,8 C 16,1 km/h (3 Bft) 100,00 %
29.03.2023 08:11 -0,9 C 88 % 1027,0 hPa 0,0 l/m 14,5 km/h (3 Bft) O-SO 112 0,000 mm -2,6 C -7,8 C 17,7 km/h (3 Bft) 95,65 %
29.03.2023 08:10 -0,9 C 89 % 1026,9 hPa 0,0 l/m 14,5 km/h (3 Bft) SO 135 0,000 mm -2,5 C -7,8 C 17,7 km/h (3 Bft) 100,00 %
29.03.2023 08:09 -0,9 C 89 % 1026,9 hPa 0,0 l/m 8,0 km/h (2 Bft) SO 135 0,000 mm -2,5 C -2,6 C 11,3 km/h (2 Bft) 100,00 %
29.03.2023 08:08 -0,9 C 89 % 1026,9 hPa 0,0 l/m 9,7 km/h (2 Bft) SO 135 0,000 mm -2,5 C -4,2 C 12,9 km/h (3 Bft) 100,00 %
29.03.2023 08:07 -0,9 C 89 % 1026,9 hPa 0,0 l/m 8,0 km/h (2 Bft) SO 135 0,000 mm -2,5 C -2,6 C 12,9 km/h (3 Bft) 100,00 %
29.03.2023 08:06 -0,9 C 89 % 1026,8 hPa 0,0 l/m 8,0 km/h (2 Bft) S-SO 157 0,000 mm -2,5 C -2,6 C 11,3 km/h (2 Bft) 95,65 %
29.03.2023 08:05 -0,9 C 89 % 1026,8 hPa 0,0 l/m 8,0 km/h (2 Bft) SO 135 0,000 mm -2,5 C -2,6 C 11,3 km/h (2 Bft) 91,30 %
29.03.2023 08:04 -0,9 C 89 % 1026,9 hPa 0,0 l/m 11,3 km/h (2 Bft) SO 135 0,000 mm -2,5 C -5,5 C 16,1 km/h (3 Bft) 95,65 %
29.03.2023 08:03 -0,9 C 89 % 1026,9 hPa 0,0 l/m 12,9 km/h (3 Bft) SO 135 0,000 mm -2,5 C -6,7 C 17,7 km/h (3 Bft) 100,00 %
29.03.2023 08:02 -0,9 C 88 % 1026,8 hPa 0,0 l/m 14,5 km/h (3 Bft) SO 135 0,000 mm -2,6 C -7,8 C 17,7 km/h (3 Bft) 100,00 %
29.03.2023 08:01 -0,9 C 88 % 1026,9 hPa 0,0 l/m 16,1 km/h (3 Bft) SO 135 0,000 mm -2,6 C -8,7 C 17,7 km/h (3 Bft) 100,00 %
29.03.2023 08:00 -0,9 C 88 % 1026,9 hPa 0,0 l/m 16,1 km/h (3 Bft) SO 135 0,000 mm -2,6 C -8,7 C 19,3 km/h (3 Bft) 100,00 %
29.03.2023 07:59 -0,9 C 88 % 1026,9 hPa 0,0 l/m 14,5 km/h (3 Bft) O-SO 112 0,000 mm -2,6 C -7,8 C 16,1 km/h (3 Bft) 95,65 %
29.03.2023 07:58 -0,9 C 88 % 1026,9 hPa 0,0 l/m 14,5 km/h (3 Bft) O-SO 112 0,000 mm -2,6 C -7,8 C 16,1 km/h (3 Bft) 100,00 %
29.03.2023 07:57 -0,9 C 88 % 1027,0 hPa 0,0 l/m 14,5 km/h (3 Bft) O-SO 112 0,000 mm -2,6 C -7,8 C 16,1 km/h (3 Bft) 95,65 %
29.03.2023 07:56 -0,9 C 88 % 1027,0 hPa 0,0 l/m 14,5 km/h (3 Bft) O-SO 112 0,000 mm -2,6 C -7,8 C 17,7 km/h (3 Bft) 100,00 %
29.03.2023 07:55 -0,9 C 88 % 1027,0 hPa 0,0 l/m 14,5 km/h (3 Bft) O-SO 112 0,000 mm -2,6 C -7,8 C 16,1 km/h (3 Bft) 100,00 %
29.03.2023 07:54 -0,9 C 88 % 1027,0 hPa 0,0 l/m 12,9 km/h (3 Bft) O-SO 112 0,000 mm -2,6 C -6,7 C 16,1 km/h (3 Bft) 95,65 %
29.03.2023 07:53 -0,9 C 88 % 1027,0 hPa 0,0 l/m 12,9 km/h (3 Bft) O-SO 112 0,000 mm -2,6 C -6,7 C 14,5 km/h (3 Bft) 100,00 %
29.03.2023 07:52 -0,8 C 88 % 1027,0 hPa 0,0 l/m 12,9 km/h (3 Bft) O 90 0,000 mm -2,5 C -6,6 C 14,5 km/h (3 Bft) 100,00 %
29.03.2023 07:51 -0,9 C 88 % 1027,0 hPa 0,0 l/m 12,9 km/h (3 Bft) O 90 0,000 mm -2,6 C -6,7 C 14,5 km/h (3 Bft) 100,00 %
29.03.2023 07:50 -0,8 C 88 % 1027,0 hPa 0,0 l/m 12,9 km/h (3 Bft) O 90 0,000 mm -2,5 C -6,6 C 14,5 km/h (3 Bft) 100,00 %
29.03.2023 07:49 -0,8 C 88 % 1027,1 hPa 0,0 l/m 12,9 km/h (3 Bft) O 90 0,000 mm -2,5 C -6,6 C 12,9 km/h (3 Bft) 95,65 %
29.03.2023 07:48 -0,8 C 88 % 1027,0 hPa 0,0 l/m 11,3 km/h (2 Bft) O 90 0,000 mm -2,5 C -5,4 C 12,9 km/h (3 Bft) 100,00 %
29.03.2023 07:47 -0,8 C 88 % 1027,0 hPa 0,0 l/m 11,3 km/h (2 Bft) O 90 0,000 mm -2,5 C -5,4 C 14,5 km/h (3 Bft) 95,65 %
29.03.2023 07:46 -0,8 C 88 % 1027,0 hPa 0,0 l/m 11,3 km/h (2 Bft) O 90 0,000 mm -2,5 C -5,4 C 12,9 km/h (3 Bft) 100,00 %
29.03.2023 07:45 -0,8 C 88 % 1027,0 hPa 0,0 l/m 11,3 km/h (2 Bft) O 90 0,000 mm -2,5 C -5,4 C 12,9 km/h (3 Bft) 100,00 %
29.03.2023 07:44 -0,8 C 88 % 1027,0 hPa 0,0 l/m 11,3 km/h (2 Bft) O-SO 112 0,000 mm -2,5 C -5,4 C 14,5 km/h (3 Bft) 100,00 %
29.03.2023 07:43 -0,8 C 88 % 1026,9 hPa 0,0 l/m 12,9 km/h (3 Bft) O-SO 112 0,000 mm -2,5 C -6,6 C 14,5 km/h (3 Bft) 100,00 %
29.03.2023 07:42 -0,8 C 88 % 1026,9 hPa 0,0 l/m 14,5 km/h (3 Bft) SO 135 0,000 mm -2,5 C -7,6 C 16,1 km/h (3 Bft) 95,65 %
29.03.2023 07:41 -0,8 C 88 % 1026,9 hPa 0,0 l/m 14,5 km/h (3 Bft) O-SO 112 0,000 mm -2,5 C -7,6 C 17,7 km/h (3 Bft) 100,00 %
29.03.2023 07:40 -0,9 C 88 % 1026,9 hPa 0,0 l/m 14,5 km/h (3 Bft) SO 135 0,000 mm -2,6 C -7,8 C 16,1 km/h (3 Bft) 100,00 %
29.03.2023 07:39 -0,9 C 88 % 1026,9 hPa 0,0 l/m 14,5 km/h (3 Bft) O-SO 112 0,000 mm -2,6 C -7,8 C 16,1 km/h (3 Bft) 100,00 %
29.03.2023 07:38 -0,9 C 88 % 1026,9 hPa 0,0 l/m 12,9 km/h (3 Bft) SO 135 0,000 mm -2,6 C -6,7 C 14,5 km/h (3 Bft) 100,00 %
29.03.2023 07:37 -0,9 C 88 % 1027,0 hPa 0,0 l/m 11,3 km/h (2 Bft) SO 135 0,000 mm -2,6 C -5,5 C 14,5 km/h (3 Bft) 100,00 %
29.03.2023 07:36 -0,9 C 88 % 1027,0 hPa 0,0 l/m 11,3 km/h (2 Bft) SO 135 0,000 mm -2,6 C -5,5 C 14,5 km/h (3 Bft) 100,00 %
29.03.2023 07:35 -0,9 C 88 % 1027,0 hPa 0,0 l/m 9,7 km/h (2 Bft) SO 135 0,000 mm -2,6 C -4,2 C 12,9 km/h (3 Bft) 95,65 %
29.03.2023 07:34 -0,9 C 88 % 1026,9 hPa 0,0 l/m 11,3 km/h (2 Bft) O-SO 112 0,000 mm -2,6 C -5,5 C 12,9 km/h (3 Bft) 100,00 %
29.03.2023 07:33 -0,9 C 88 % 1027,0 hPa 0,0 l/m 11,3 km/h (2 Bft) SO 135 0,000 mm -2,6 C -5,5 C 12,9 km/h (3 Bft) 95,65 %
29.03.2023 07:32 -1,0 C 88 % 1026,9 hPa 0,0 l/m 11,3 km/h (2 Bft) O-SO 112 0,000 mm -2,7 C -5,6 C 12,9 km/h (3 Bft) 95,65 %
29.03.2023 07:31 -1,0 C 88 % 1027,0 hPa 0,0 l/m 11,3 km/h (2 Bft) SO 135 0,000 mm -2,7 C -5,6 C 12,9 km/h (3 Bft) 100,00 %
29.03.2023 07:30 -1,0 C 88 % 1026,9 hPa 0,0 l/m 11,3 km/h (2 Bft) SO 135 0,000 mm -2,7 C -5,6 C 12,9 km/h (3 Bft) 100,00 %
29.03.2023 07:29 -1,0 C 88 % 1027,0 hPa 0,0 l/m 11,3 km/h (2 Bft) SO 135 0,000 mm -2,7 C -5,6 C 12,9 km/h (3 Bft) 100,00 %
29.03.2023 07:28 -1,1 C 88 % 1027,0 hPa 0,0 l/m 9,7 km/h (2 Bft) SO 135 0,000 mm -2,8 C -4,4 C 11,3 km/h (2 Bft) 100,00 %
29.03.2023 07:27 -1,0 C 88 % 1027,0 hPa 0,0 l/m 9,7 km/h (2 Bft) SO 135 0,000 mm -2,7 C -4,3 C 11,3 km/h (2 Bft) 100,00 %
29.03.2023 07:26 -1,1 C 88 % 1026,9 hPa 0,0 l/m 11,3 km/h (2 Bft) SO 135 0,000 mm -2,8 C -5,7 C 12,9 km/h (3 Bft) 100,00 %
29.03.2023 07:25 -1,0 C 88 % 1027,0 hPa 0,0 l/m 11,3 km/h (2 Bft) SO 135 0,000 mm -2,7 C -5,6 C 12,9 km/h (3 Bft) 100,00 %
29.03.2023 07:24 -1,1 C 88 % 1027,0 hPa 0,0 l/m 12,9 km/h (3 Bft) SO 135 0,000 mm -2,8 C -6,9 C 14,5 km/h (3 Bft) 100,00 %
29.03.2023 07:23 -1,1 C 88 % 1027,0 hPa 0,0 l/m 12,9 km/h (3 Bft) SO 135 0,000 mm -2,8 C -6,9 C 14,5 km/h (3 Bft) 100,00 %
29.03.2023 07:22 -1,1 C 88 % 1027,1 hPa 0,0 l/m 9,7 km/h (2 Bft) O-SO 112 0,000 mm -2,8 C -4,4 C 12,9 km/h (3 Bft) 100,00 %
29.03.2023 07:21 -1,1 C 88 % 1027,2 hPa 0,0 l/m 9,7 km/h (2 Bft) O-SO 112 0,000 mm -2,8 C -4,4 C 11,3 km/h (2 Bft) 100,00 %
29.03.2023 07:20 -1,1 C 87 % 1027,3 hPa 0,0 l/m 8,0 km/h (2 Bft) O-SO 112 0,000 mm -3,0 C -2,8 C 9,7 km/h (2 Bft) 95,65 %
29.03.2023 07:19 -1,1 C 87 % 1027,4 hPa 0,0 l/m 6,4 km/h (2 Bft) O 90 0,000 mm -3,0 C -1,1 C 6,4 km/h (2 Bft) 100,00 %
29.03.2023 07:18 -1,1 C 87 % 1027,3 hPa 0,0 l/m 6,4 km/h (2 Bft) O 90 0,000 mm -3,0 C -1,1 C 9,7 km/h (2 Bft) 95,65 %
29.03.2023 07:17 -1,1 C 87 % 1027,3 hPa 0,0 l/m 8,0 km/h (2 Bft) O 90 0,000 mm -3,0 C -2,8 C 9,7 km/h (2 Bft) 100,00 %
29.03.2023 07:16 -1,1 C 88 % 1027,3 hPa 0,0 l/m 9,7 km/h (2 Bft) O-SO 112 0,000 mm -2,8 C -4,4 C 11,3 km/h (2 Bft) 100,00 %
29.03.2023 07:15 -1,1 C 87 % 1027,3 hPa 0,0 l/m 11,3 km/h (2 Bft) O-SO 112 0,000 mm -3,0 C -5,7 C 12,9 km/h (3 Bft) 100,00 %
29.03.2023 07:14 -1,2 C 87 % 1027,3 hPa 0,0 l/m 11,3 km/h (2 Bft) O-SO 112 0,000 mm -3,1 C -5,8 C 12,9 km/h (3 Bft) 100,00 %
29.03.2023 07:13 -1,2 C 87 % 1027,3 hPa 0,0 l/m 12,9 km/h (3 Bft) O-SO 112 0,000 mm -3,1 C -7,0 C 14,5 km/h (3 Bft) 100,00 %
29.03.2023 07:12 -1,2 C 87 % 1027,3 hPa 0,0 l/m 12,9 km/h (3 Bft) O-SO 112 0,000 mm -3,1 C -7,0 C 14,5 km/h (3 Bft) 100,00 %
29.03.2023 07:11 -1,2 C 87 % 1027,3 hPa 0,0 l/m 12,9 km/h (3 Bft) O-SO 112 0,000 mm -3,1 C -7,0 C 14,5 km/h (3 Bft) 100,00 %
29.03.2023 07:10 -1,2 C 87 % 1027,3 hPa 0,0 l/m 11,3 km/h (2 Bft) O-SO 112 0,000 mm -3,1 C -5,8 C 12,9 km/h (3 Bft) 100,00 %
29.03.2023 07:09 -1,2 C 87 % 1027,3 hPa 0,0 l/m 11,3 km/h (2 Bft) O-SO 112 0,000 mm -3,1 C -5,8 C 12,9 km/h (3 Bft) 100,00 %
29.03.2023 07:08 -1,2 C 87 % 1027,3 hPa 0,0 l/m 11,3 km/h (2 Bft) O-SO 112 0,000 mm -3,1 C -5,8 C 12,9 km/h (3 Bft) 100,00 %
29.03.2023 07:07 -1,3 C 87 % 1027,3 hPa 0,0 l/m 11,3 km/h (2 Bft) O-SO 112 0,000 mm -3,2 C -6,0 C 12,9 km/h (3 Bft) 100,00 %
29.03.2023 07:06 -1,3 C 87 % 1027,3 hPa 0,0 l/m 11,3 km/h (2 Bft) O-SO 112 0,000 mm -3,2 C -6,0 C 12,9 km/h (3 Bft) 100,00 %
29.03.2023 07:05 -1,3 C 87 % 1027,3 hPa 0,0 l/m 9,7 km/h (2 Bft) O-SO 112 0,000 mm -3,2 C -4,6 C 11,3 km/h (2 Bft) 100,00 %
29.03.2023 07:04 -1,2 C 87 % 1027,4 hPa 0,0 l/m 9,7 km/h (2 Bft) O 90 0,000 mm -3,1 C -4,5 C 11,3 km/h (2 Bft) 100,00 %
29.03.2023 07:03 -1,2 C 86 % 1027,5 hPa 0,0 l/m 9,7 km/h (2 Bft) O 90 0,000 mm -3,2 C -4,5 C 9,7 km/h (2 Bft) 100,00 %
29.03.2023 07:02 -1,2 C 86 % 1027,4 hPa 0,0 l/m 8,0 km/h (2 Bft) O 90 0,000 mm -3,2 C -2,9 C 9,7 km/h (2 Bft) 100,00 %
29.03.2023 07:01 -1,2 C 86 % 1027,4 hPa 0,0 l/m 9,7 km/h (2 Bft) O 90 0,000 mm -3,2 C -4,5 C 9,7 km/h (2 Bft) 95,65 %
29.03.2023 07:00 -1,2 C 86 % 1027,4 hPa 0,0 l/m 8,0 km/h (2 Bft) O 90 0,000 mm -3,2 C -2,9 C 9,7 km/h (2 Bft) 100,00 %
29.03.2023 06:59 -1,2 C 86 % 1027,4 hPa 0,0 l/m 9,7 km/h (2 Bft) O 90 0,000 mm -3,2 C -4,5 C 9,7 km/h (2 Bft) 100,00 %
29.03.2023 06:58 -1,2 C 86 % 1027,4 hPa 0,0 l/m 8,0 km/h (2 Bft) O 90 0,000 mm -3,2 C -2,9 C 9,7 km/h (2 Bft) 100,00 %
29.03.2023 06:57 -1,2 C 86 % 1027,4 hPa 0,0 l/m 8,0 km/h (2 Bft) O 90 0,000 mm -3,2 C -2,9 C 9,7 km/h (2 Bft) 95,65 %
29.03.2023 06:56 -1,2 C 86 % 1027,3 hPa 0,0 l/m 8,0 km/h (2 Bft) O-SO 112 0,000 mm -3,2 C -2,9 C 9,7 km/h (2 Bft) 100,00 %
29.03.2023 06:55 -1,2 C 86 % 1027,3 hPa 0,0 l/m 9,7 km/h (2 Bft) O-SO 112 0,000 mm -3,2 C -4,5 C 9,7 km/h (2 Bft) 100,00 %
29.03.2023 06:54 -1,2 C 86 % 1027,3 hPa 0,0 l/m 9,7 km/h (2 Bft) O-SO 112 0,000 mm -3,2 C -4,5 C 11,3 km/h (2 Bft) 100,00 %
29.03.2023 06:53 -1,2 C 86 % 1027,3 hPa 0,0 l/m 9,7 km/h (2 Bft) O-SO 112 0,000 mm -3,2 C -4,5 C 9,7 km/h (2 Bft) 100,00 %
29.03.2023 06:52 -1,2 C 86 % 1027,3 hPa 0,0 l/m 9,7 km/h (2 Bft) O-SO 112 0,000 mm -3,2 C -4,5 C 11,3 km/h (2 Bft) 100,00 %
29.03.2023 06:51 -1,2 C 86 % 1027,3 hPa 0,0 l/m 9,7 km/h (2 Bft) O-SO 112 0,000 mm -3,2 C -4,5 C 11,3 km/h (2 Bft) 100,00 %
29.03.2023 06:50 -1,2 C 86 % 1027,4 hPa 0,0 l/m 8,0 km/h (2 Bft) O-SO 112 0,000 mm -3,2 C -2,9 C 11,3 km/h (2 Bft) 100,00 %
29.03.2023 06:49 -1,2 C 86 % 1027,4 hPa 0,0 l/m 6,4 km/h (2 Bft) O-SO 112 0,000 mm -3,2 C -1,2 C 9,7 km/h (2 Bft) 95,65 %
29.03.2023 06:48 -1,2 C 86 % 1027,4 hPa 0,0 l/m 4,8 km/h (1 Bft) O-SO 112 0,000 mm -3,2 C -1,2 C 6,4 km/h (2 Bft) 100,00 %
29.03.2023 06:47 -1,2 C 85 % 1027,4 hPa 0,0 l/m 4,8 km/h (1 Bft) O-SO 112 0,000 mm -3,4 C -1,2 C 6,4 km/h (2 Bft) 100,00 %
29.03.2023 06:46 -1,2 C 85 % 1027,5 hPa 0,0 l/m 4,8 km/h (1 Bft) O-SO 112 0,000 mm -3,4 C -1,2 C 6,4 km/h (2 Bft) 100,00 %
29.03.2023 06:45 -1,2 C 85 % 1027,4 hPa 0,0 l/m 6,4 km/h (2 Bft) O-SO 112 0,000 mm -3,4 C -1,2 C 6,4 km/h (2 Bft) 100,00 %
29.03.2023 06:44 -1,2 C 85 % 1027,5 hPa 0,0 l/m 6,4 km/h (2 Bft) O-SO 112 0,000 mm -3,4 C -1,2 C 9,7 km/h (2 Bft) 95,65 %
29.03.2023 06:43 -1,2 C 85 % 1027,4 hPa 0,0 l/m 6,4 km/h (2 Bft) O 90 0,000 mm -3,4 C -1,2 C 9,7 km/h (2 Bft) 100,00 %
29.03.2023 06:42 -1,2 C 85 % 1027,4 hPa 0,0 l/m 6,4 km/h (2 Bft) O-SO 112 0,000 mm -3,4 C -1,2 C 9,7 km/h (2 Bft) 100,00 %
29.03.2023 06:41 -1,2 C 85 % 1027,5 hPa 0,0 l/m 6,4 km/h (2 Bft) O-SO 112 0,000 mm -3,4 C -1,2 C 9,7 km/h (2 Bft) 100,00 %
29.03.2023 06:40 -1,2 C 85 % 1027,5 hPa 0,0 l/m 6,4 km/h (2 Bft) O-SO 112 0,000 mm -3,4 C -1,2 C 9,7 km/h (2 Bft) 100,00 %
29.03.2023 06:39 -1,2 C 85 % 1027,5 hPa 0,0 l/m 6,4 km/h (2 Bft) O-SO 112 0,000 mm -3,4 C -1,2 C 6,4 km/h (2 Bft) 100,00 %
29.03.2023 06:38 -1,1 C 84 % 1027,5 hPa 0,0 l/m 6,4 km/h (2 Bft) O-SO 112 0,000 mm -3,4 C -1,1 C 9,7 km/h (2 Bft) 100,00 %
29.03.2023 06:37 -1,1 C 85 % 1027,5 hPa 0,0 l/m 8,0 km/h (2 Bft) O-SO 112 0,000 mm -3,3 C -2,8 C 9,7 km/h (2 Bft) 95,65 %
29.03.2023 06:36 -1,1 C 85 % 1027,5 hPa 0,0 l/m 8,0 km/h (2 Bft) O-SO 112 0,000 mm -3,3 C -2,8 C 9,7 km/h (2 Bft) 100,00 %
29.03.2023 06:35 -1,0 C 85 % 1027,5 hPa 0,0 l/m 6,4 km/h (2 Bft) O-SO 112 0,000 mm -3,2 C -1,0 C 6,4 km/h (2 Bft) 100,00 %
29.03.2023 06:34 -1,1 C 84 % 1027,5 hPa 0,0 l/m 6,4 km/h (2 Bft) O-SO 112 0,000 mm -3,4 C -1,1 C 6,4 km/h (2 Bft) 95,65 %
29.03.2023 06:33 -1,0 C 84 % 1027,5 hPa 0,0 l/m 4,8 km/h (1 Bft) O-SO 112 0,000 mm -3,4 C -1,0 C 6,4 km/h (2 Bft) 100,00 %
29.03.2023 06:32 -1,0 C 84 % 1027,6 hPa 0,0 l/m 4,8 km/h (1 Bft) O-SO 112 0,000 mm -3,4 C -1,0 C 6,4 km/h (2 Bft) 100,00 %
29.03.2023 06:31 -0,9 C 84 % 1027,5 hPa 0,0 l/m 4,8 km/h (1 Bft) O-SO 112 0,000 mm -3,3 C -0,9 C 6,4 km/h (2 Bft) 100,00 %
29.03.2023 06:30 -1,0 C 83 % 1027,6 hPa 0,0 l/m 4,8 km/h (1 Bft) O-SO 112 0,000 mm -3,5 C -1,0 C 4,8 km/h (1 Bft) 91,30 %
29.03.2023 06:29 -0,9 C 83 % 1027,6 hPa 0,0 l/m 3,2 km/h (1 Bft) O-SO 112 0,000 mm -3,4 C -0,9 C 4,8 km/h (1 Bft) 100,00 %
29.03.2023 06:28 -0,9 C 83 % 1027,6 hPa 0,0 l/m 3,2 km/h (1 Bft) O-SO 112 0,000 mm -3,4 C -0,9 C 4,8 km/h (1 Bft) 95,65 %
29.03.2023 06:27 -0,9 C 82 % 1027,6 hPa 0,0 l/m 4,8 km/h (1 Bft) O-SO 112 0,000 mm -3,6 C -0,9 C 4,8 km/h (1 Bft) 95,65 %
29.03.2023 06:26 -0,9 C 83 % 1027,7 hPa 0,0 l/m 4,8 km/h (1 Bft) SO 135 0,000 mm -3,4 C -0,9 C 6,4 km/h (2 Bft) 100,00 %
29.03.2023 06:25 -0,8 C 83 % 1027,6 hPa 0,0 l/m 3,2 km/h (1 Bft) SO 135 0,000 mm -3,3 C -0,8 C 4,8 km/h (1 Bft) 95,65 %
29.03.2023 06:24 -0,8 C 83 % 1027,6 hPa 0,0 l/m 1,6 km/h (1 Bft) SO 135 0,000 mm -3,3 C -0,8 C 4,8 km/h (1 Bft) 100,00 %
29.03.2023 06:23 -0,8 C 82 % 1027,6 hPa 0,0 l/m 1,6 km/h (1 Bft) S-SO 157 0,000 mm -3,5 C -0,8 C 3,2 km/h (1 Bft) 100,00 %
29.03.2023 06:22 -0,7 C 82 % 1027,7 hPa 0,0 l/m 1,6 km/h (1 Bft) S-SO 157 0,000 mm -3,4 C -0,7 C 3,2 km/h (1 Bft) 100,00 %
29.03.2023 06:21 -0,7 C 82 % 1027,7 hPa 0,0 l/m 3,2 km/h (1 Bft) S-SO 157 0,000 mm -3,4 C -0,7 C 3,2 km/h (1 Bft) 100,00 %
29.03.2023 06:20 -0,7 C 82 % 1027,7 hPa 0,0 l/m 1,6 km/h (1 Bft) S 180 0,000 mm -3,4 C -0,7 C 3,2 km/h (1 Bft) 100,00 %
29.03.2023 06:19 -0,6 C 82 % 1027,7 hPa 0,0 l/m 0,0 km/h (0 Bft) S 180 0,000 mm -3,3 C -0,6 C 1,6 km/h (1 Bft) 100,00 %
29.03.2023 06:18 -0,6 C 82 % 1027,7 hPa 0,0 l/m 0,0 km/h (0 Bft) S 180 0,000 mm -3,3 C -0,6 C 1,6 km/h (1 Bft) 100,00 %
29.03.2023 06:17 -0,6 C 82 % 1027,7 hPa 0,0 l/m 1,6 km/h (1 Bft) S 180 0,000 mm -3,3 C -0,6 C 1,6 km/h (1 Bft) 100,00 %
29.03.2023 06:16 -0,6 C 82 % 1027,8 hPa 0,0 l/m 1,6 km/h (1 Bft) S 180 0,000 mm -3,3 C -0,6 C 1,6 km/h (1 Bft) 100,00 %
29.03.2023 06:15 -0,6 C 81 % 1027,7 hPa 0,0 l/m 1,6 km/h (1 Bft) S 180 0,000 mm -3,4 C -0,6 C 1,6 km/h (1 Bft) 95,65 %
29.03.2023 06:14 -0,6 C 81 % 1027,7 hPa 0,0 l/m 1,6 km/h (1 Bft) S 180 0,000 mm -3,4 C -0,6 C 3,2 km/h (1 Bft) 100,00 %
29.03.2023 06:13 -0,6 C 81 % 1027,8 hPa 0,0 l/m 1,6 km/h (1 Bft) S 180 0,000 mm -3,4 C -0,6 C 3,2 km/h (1 Bft) 95,65 %
29.03.2023 06:12 -0,6 C 81 % 1027,8 hPa 0,0 l/m 1,6 km/h (1 Bft) S 180 0,000 mm -3,4 C -0,6 C 3,2 km/h (1 Bft) 100,00 %
29.03.2023 06:11 -0,6 C 80 % 1027,8 hPa 0,0 l/m 1,6 km/h (1 Bft) S 180 0,000 mm -3,6 C -0,6 C 3,2 km/h (1 Bft) 95,65 %
29.03.2023 06:10 -0,6 C 80 % 1027,8 hPa 0,0 l/m 0,0 km/h (0 Bft) S 180 0,000 mm -3,6 C -0,6 C 1,6 km/h (1 Bft) 100,00 %
29.03.2023 06:09 -0,6 C 80 % 1027,8 hPa 0,0 l/m 1,6 km/h (1 Bft) S 180 0,000 mm -3,6 C -0,6 C 1,6 km/h (1 Bft) 100,00 %
29.03.2023 06:08 -0,6 C 80 % 1027,8 hPa 0,0 l/m 1,6 km/h (1 Bft) S 180 0,000 mm -3,6 C -0,6 C 1,6 km/h (1 Bft) 95,65 %
29.03.2023 06:07 -0,6 C 79 % 1027,9 hPa 0,0 l/m 0,0 km/h (0 Bft) S 180 0,000 mm -3,8 C -0,6 C 1,6 km/h (1 Bft) 100,00 %
29.03.2023 06:06 -0,6 C 79 % 1027,8 hPa 0,0 l/m 1,6 km/h (1 Bft) S-SO 157 0,000 mm -3,8 C -0,6 C 6,4 km/h (2 Bft) 100,00 %
29.03.2023 06:05 -0,6 C 79 % 1027,7 hPa 0,0 l/m 1,6 km/h (1 Bft) S-SO 157 0,000 mm -3,8 C -0,6 C 3,2 km/h (1 Bft) 100,00 %
29.03.2023 06:04 -0,6 C 79 % 1027,8 hPa 0,0 l/m 3,2 km/h (1 Bft) S-SO 157 0,000 mm -3,8 C -0,6 C 3,2 km/h (1 Bft) 100,00 %
29.03.2023 06:03 -0,7 C 79 % 1027,8 hPa 0,0 l/m 0,0 km/h (0 Bft) S-SO 157 0,000 mm -3,9 C -0,7 C 1,6 km/h (1 Bft) 95,65 %
29.03.2023 06:02 -0,7 C 79 % 1027,8 hPa 0,0 l/m 1,6 km/h (1 Bft) SO 135 0,000 mm -3,9 C -0,7 C 1,6 km/h (1 Bft) 100,00 %
29.03.2023 06:01 -0,7 C 78 % 1027,7 hPa 0,0 l/m 1,6 km/h (1 Bft) SO 135 0,000 mm -4,0 C -0,7 C 3,2 km/h (1 Bft) 100,00 %
29.03.2023 06:00 -0,7 C 78 % 1027,8 hPa 0,0 l/m 3,2 km/h (1 Bft) SO 135 0,000 mm -4,0 C -0,7 C 3,2 km/h (1 Bft) 100,00 %
29.03.2023 05:59 -0,7 C 78 % 1027,7 hPa 0,0 l/m 3,2 km/h (1 Bft) SO 135 0,000 mm -4,0 C -0,7 C 4,8 km/h (1 Bft) 100,00 %
29.03.2023 05:58 -0,6 C 78 % 1027,7 hPa 0,0 l/m 3,2 km/h (1 Bft) SO 135 0,000 mm -3,9 C -0,6 C 4,8 km/h (1 Bft) 100,00 %
29.03.2023 05:57 -0,6 C 78 % 1027,8 hPa 0,0 l/m 3,2 km/h (1 Bft) SO 135 0,000 mm -3,9 C -0,6 C 4,8 km/h (1 Bft) 100,00 %
29.03.2023 05:56 -0,6 C 78 % 1027,8 hPa 0,0 l/m 3,2 km/h (1 Bft) S-SO 157 0,000 mm -3,9 C -0,6 C 4,8 km/h (1 Bft) 100,00 %
29.03.2023 05:55 -0,5 C 78 % 1027,8 hPa 0,0 l/m 1,6 km/h (1 Bft) S-SO 157 0,000 mm -3,9 C -0,5 C 3,2 km/h (1 Bft) 100,00 %
29.03.2023 05:54 -0,4 C 78 % 1027,8 hPa 0,0 l/m 1,6 km/h (1 Bft) S-SO 157 0,000 mm -3,8 C -0,4 C 3,2 km/h (1 Bft) 100,00 %
29.03.2023 05:53 -0,4 C 78 % 1027,8 hPa 0,0 l/m 1,6 km/h (1 Bft) S-SO 157 0,000 mm -3,8 C -0,4 C 3,2 km/h (1 Bft) 95,65 %
29.03.2023 05:52 -0,4 C 78 % 1027,8 hPa 0,0 l/m 1,6 km/h (1 Bft) S-SO 157 0,000 mm -3,8 C -0,4 C 3,2 km/h (1 Bft) 100,00 %
29.03.2023 05:51 -0,4 C 78 % 1027,8 hPa 0,0 l/m 1,6 km/h (1 Bft) S-SO 157 0,000 mm -3,8 C -0,4 C 3,2 km/h (1 Bft) 100,00 %
29.03.2023 05:50 -0,4 C 78 % 1027,7 hPa 0,0 l/m 3,2 km/h (1 Bft) S-SO 157 0,000 mm -3,8 C -0,4 C 3,2 km/h (1 Bft) 95,65 %
29.03.2023 05:49 -0,4 C 77 % 1027,8 hPa 0,0 l/m 3,2 km/h (1 Bft) SO 135 0,000 mm -3,9 C -0,4 C 4,8 km/h (1 Bft) 100,00 %
29.03.2023 05:48 -0,3 C 77 % 1027,7 hPa 0,0 l/m 1,6 km/h (1 Bft) S-SO 157 0,000 mm -3,8 C -0,3 C 3,2 km/h (1 Bft) 100,00 %
29.03.2023 05:47 -0,3 C 76 % 1027,8 hPa 0,0 l/m 3,2 km/h (1 Bft) S-SO 157 0,000 mm -4,0 C -0,3 C 4,8 km/h (1 Bft) 95,65 %
29.03.2023 05:46 -0,3 C 77 % 1027,7 hPa 0,0 l/m 1,6 km/h (1 Bft) S 180 0,000 mm -3,8 C -0,3 C 3,2 km/h (1 Bft) 100,00 %
29.03.2023 05:45 -0,4 C 77 % 1027,7 hPa 0,0 l/m 3,2 km/h (1 Bft) S 180 0,000 mm -3,9 C -0,4 C 6,4 km/h (2 Bft) 100,00 %
29.03.2023 05:44 -0,4 C 77 % 1027,8 hPa 0,0 l/m 1,6 km/h (1 Bft) S-SO 157 0,000 mm -3,9 C -0,4 C 3,2 km/h (1 Bft) 100,00 %
29.03.2023 05:43 -0,4 C 77 % 1027,7 hPa 0,0 l/m 3,2 km/h (1 Bft) S-SO 157 0,000 mm -3,9 C -0,4 C 6,4 km/h (2 Bft) 100,00 %
29.03.2023 05:42 -0,4 C 76 % 1027,8 hPa 0,0 l/m 3,2 km/h (1 Bft) S-SO 157 0,000 mm -4,1 C -0,4 C 3,2 km/h (1 Bft) 95,65 %
29.03.2023 05:41 -0,4 C 76 % 1027,8 hPa 0,0 l/m 3,2 km/h (1 Bft) S-SO 157 0,000 mm -4,1 C -0,4 C 4,8 km/h (1 Bft) 95,65 %
29.03.2023 05:40 -0,4 C 76 % 1027,8 hPa 0,0 l/m 1,6 km/h (1 Bft) SO 135 0,000 mm -4,1 C -0,4 C 3,2 km/h (1 Bft) 95,65 %
29.03.2023 05:39 -0,4 C 75 % 1027,8 hPa 0,0 l/m 3,2 km/h (1 Bft) SO 135 0,000 mm -4,3 C -0,4 C 4,8 km/h (1 Bft) 100,00 %
29.03.2023 05:38 -0,4 C 75 % 1027,8 hPa 0,0 l/m 1,6 km/h (1 Bft) SO 135 0,000 mm -4,3 C -0,4 C 3,2 km/h (1 Bft) 100,00 %
29.03.2023 05:37 -0,4 C 74 % 1027,9 hPa 0,0 l/m 1,6 km/h (1 Bft) SO 135 0,000 mm -4,5 C -0,4 C 3,2 km/h (1 Bft) 100,00 %
29.03.2023 05:36 -0,3 C 74 % 1027,9 hPa 0,0 l/m 1,6 km/h (1 Bft) SO 135 0,000 mm -4,4 C -0,3 C 3,2 km/h (1 Bft) 100,00 %
29.03.2023 05:35 -0,3 C 74 % 1027,9 hPa 0,0 l/m 4,8 km/h (1 Bft) SO 135 0,000 mm -4,4 C -0,3 C 6,4 km/h (2 Bft) 95,65 %
29.03.2023 05:34 -0,3 C 74 % 1027,9 hPa 0,0 l/m 4,8 km/h (1 Bft) SO 135 0,000 mm -4,4 C -0,3 C 6,4 km/h (2 Bft) 91,30 %
29.03.2023 05:33 -0,3 C 74 % 1027,8 hPa 0,0 l/m 6,4 km/h (2 Bft) SO 135 0,000 mm -4,4 C -0,3 C 6,4 km/h (2 Bft) 100,00 %
29.03.2023 05:32 -0,2 C 74 % 1027,8 hPa 0,0 l/m 4,8 km/h (1 Bft) SO 135 0,000 mm -4,3 C -0,2 C 6,4 km/h (2 Bft) 95,65 %
29.03.2023 05:31 -0,2 C 74 % 1027,8 hPa 0,0 l/m 3,2 km/h (1 Bft) SO 135 0,000 mm -4,3 C -0,2 C 3,2 km/h (1 Bft) 100,00 %
29.03.2023 05:30 -0,2 C 74 % 1027,9 hPa 0,0 l/m 1,6 km/h (1 Bft) S 180 0,000 mm -4,3 C -0,2 C 3,2 km/h (1 Bft) 100,00 %
29.03.2023 05:29 -0,1 C 74 % 1027,9 hPa 0,0 l/m 1,6 km/h (1 Bft) S 180 0,000 mm -4,2 C -0,1 C 3,2 km/h (1 Bft) 95,65 %
29.03.2023 05:28 -0,1 C 74 % 1027,9 hPa 0,0 l/m 1,6 km/h (1 Bft) S 180 0,000 mm -4,2 C -0,1 C 3,2 km/h (1 Bft) 95,65 %
29.03.2023 05:27 -0,1 C 74 % 1027,9 hPa 0,0 l/m 1,6 km/h (1 Bft) S 180 0,000 mm -4,2 C -0,1 C 3,2 km/h (1 Bft) 100,00 %
29.03.2023 05:26 -0,2 C 74 % 1027,9 hPa 0,0 l/m 1,6 km/h (1 Bft) S 180 0,000 mm -4,3 C -0,2 C 3,2 km/h (1 Bft) 100,00 %
29.03.2023 05:25 -0,2 C 74 % 1028,0 hPa 0,0 l/m 3,2 km/h (1 Bft) S 180 0,000 mm -4,3 C -0,2 C 6,4 km/h (2 Bft) 95,65 %
29.03.2023 05:24 -0,2 C 74 % 1027,9 hPa 0,0 l/m 3,2 km/h (1 Bft) S-SO 157 0,000 mm -4,3 C -0,2 C 6,4 km/h (2 Bft) 100,00 %
29.03.2023 05:23 -0,2 C 73 % 1027,9 hPa 0,0 l/m 1,6 km/h (1 Bft) S 180 0,000 mm -4,4 C -0,2 C 4,8 km/h (1 Bft) 95,65 %
29.03.2023 05:22 -0,2 C 73 % 1028,0 hPa 0,0 l/m 1,6 km/h (1 Bft) S 180 0,000 mm -4,4 C -0,2 C 3,2 km/h (1 Bft) 100,00 %
29.03.2023 05:21 -0,1 C 73 % 1027,9 hPa 0,0 l/m 1,6 km/h (1 Bft) S 180 0,000 mm -4,3 C -0,1 C 4,8 km/h (1 Bft) 100,00 %
29.03.2023 05:20 -0,2 C 74 % 1027,9 hPa 0,0 l/m 1,6 km/h (1 Bft) S 180 0,000 mm -4,3 C -0,2 C 3,2 km/h (1 Bft) 95,65 %
29.03.2023 05:19 -0,1 C 74 % 1027,9 hPa 0,0 l/m 1,6 km/h (1 Bft) S-SO 157 0,000 mm -4,2 C -0,1 C 3,2 km/h (1 Bft) 100,00 %
29.03.2023 05:18 -0,1 C 72 % 1027,9 hPa 0,0 l/m 1,6 km/h (1 Bft) S-SO 157 0,000 mm -4,5 C -0,1 C 3,2 km/h (1 Bft) 100,00 %
29.03.2023 05:17 -0,1 C 72 % 1027,9 hPa 0,0 l/m 3,2 km/h (1 Bft) SO 135 0,000 mm -4,5 C -0,1 C 4,8 km/h (1 Bft) 95,65 %
29.03.2023 05:16 0,0 C 72 % 1027,9 hPa 0,0 l/m 1,6 km/h (1 Bft) SO 135 0,000 mm -4,4 C 0,0 C 4,8 km/h (1 Bft) 100,00 %
29.03.2023 05:15 0,0 C 72 % 1027,9 hPa 0,0 l/m 0,0 km/h (0 Bft) S-SO 157 0,000 mm -4,4 C 0,0 C 3,2 km/h (1 Bft) 95,65 %
29.03.2023 05:14 0,0 C 72 % 1027,9 hPa 0,0 l/m 0,0 km/h (0 Bft) S-SO 157 0,000 mm -4,4 C 0,0 C 1,6 km/h (1 Bft) 100,00 %
29.03.2023 05:13 -0,1 C 73 % 1028,0 hPa 0,0 l/m 1,6 km/h (1 Bft) S-SO 157 0,000 mm -4,3 C -0,1 C 1,6 km/h (1 Bft) 100,00 %
29.03.2023 05:12 -0,1 C 73 % 1028,0 hPa 0,0 l/m 1,6 km/h (1 Bft) S-SO 157 0,000 mm -4,3 C -0,1 C 1,6 km/h (1 Bft) 100,00 %
29.03.2023 05:11 -0,1 C 74 % 1028,0 hPa 0,0 l/m 1,6 km/h (1 Bft) S-SO 157 0,000 mm -4,2 C -0,1 C 1,6 km/h (1 Bft) 95,65 %
29.03.2023 05:10 -0,2 C 73 % 1028,0 hPa 0,0 l/m 1,6 km/h (1 Bft) S-SO 157 0,000 mm -4,4 C -0,2 C 3,2 km/h (1 Bft) 100,00 %
29.03.2023 05:09 -0,2 C 73 % 1028,1 hPa 0,0 l/m 1,6 km/h (1 Bft) S-SO 157 0,000 mm -4,4 C -0,2 C 1,6 km/h (1 Bft) 100,00 %
29.03.2023 05:08 -0,2 C 73 % 1028,0 hPa 0,0 l/m 1,6 km/h (1 Bft) S-SO 157 0,000 mm -4,4 C -0,2 C 1,6 km/h (1 Bft) 95,65 %
29.03.2023 05:07 -0,2 C 74 % 1028,1 hPa 0,0 l/m 1,6 km/h (1 Bft) S-SO 157 0,000 mm -4,3 C -0,2 C 1,6 km/h (1 Bft) 100,00 %
29.03.2023 05:06 -0,3 C 74 % 1028,0 hPa 0,0 l/m 0,0 km/h (0 Bft) S-SO 157 0,000 mm -4,4 C -0,3 C 1,6 km/h (1 Bft) 100,00 %
29.03.2023 05:05 -0,3 C 74 % 1028,1 hPa 0,0 l/m 0,0 km/h (0 Bft) S-SO 157 0,000 mm -4,4 C -0,3 C 1,6 km/h (1 Bft) 100,00 %
29.03.2023 05:04 -0,3 C 74 % 1028,0 hPa 0,0 l/m 0,0 km/h (0 Bft) N 0 0,000 mm -4,4 C -0,3 C 0,0 km/h (0 Bft) 100,00 %
29.03.2023 05:03 -0,3 C 74 % 1028,1 hPa 0,0 l/m 0,0 km/h (0 Bft) N 0 0,000 mm -4,4 C -0,3 C 0,0 km/h (0 Bft) 100,00 %
29.03.2023 05:02 -0,3 C 73 % 1028,1 hPa 0,0 l/m 0,0 km/h (0 Bft) N 0 0,000 mm -4,5 C -0,3 C 0,0 km/h (0 Bft) 100,00 %
29.03.2023 05:01 -0,3 C 73 % 1028,1 hPa 0,0 l/m 0,0 km/h (0 Bft) N 0 0,000 mm -4,5 C -0,3 C 0,0 km/h (0 Bft) 100,00 %
29.03.2023 05:00 -0,3 C 74 % 1028,1 hPa 0,0 l/m 0,0 km/h (0 Bft) N 0 0,000 mm -4,4 C -0,3 C 0,0 km/h (0 Bft) 95,65 %
29.03.2023 04:59 -0,3 C 74 % 1028,1 hPa 0,0 l/m 1,6 km/h (1 Bft) S-SO 157 0,000 mm -4,4 C -0,3 C 3,2 km/h (1 Bft) 100,00 %
29.03.2023 04:58 -0,4 C 74 % 1028,1 hPa 0,0 l/m 3,2 km/h (1 Bft) SO 135 0,000 mm -4,5 C -0,4 C 3,2 km/h (1 Bft) 100,00 %
29.03.2023 04:57 -0,4 C 74 % 1028,1 hPa 0,0 l/m 1,6 km/h (1 Bft) SO 135 0,000 mm -4,5 C -0,4 C 3,2 km/h (1 Bft) 100,00 %
29.03.2023 04:56 -0,5 C 74 % 1028,1 hPa 0,0 l/m 1,6 km/h (1 Bft) O-SO 112 0,000 mm -4,5 C -0,5 C 3,2 km/h (1 Bft) 95,65 %
29.03.2023 04:55 -0,5 C 74 % 1028,1 hPa 0,0 l/m 1,6 km/h (1 Bft) O-SO 112 0,000 mm -4,5 C -0,5 C 3,2 km/h (1 Bft) 100,00 %
29.03.2023 04:54 -0,5 C 74 % 1028,1 hPa 0,0 l/m 3,2 km/h (1 Bft) O-SO 112 0,000 mm -4,5 C -0,5 C 3,2 km/h (1 Bft) 95,65 %
29.03.2023 04:53 -0,5 C 74 % 1028,1 hPa 0,0 l/m 3,2 km/h (1 Bft) O-SO 112 0,000 mm -4,5 C -0,5 C 3,2 km/h (1 Bft) 100,00 %
29.03.2023 04:52 -0,6 C 74 % 1028,1 hPa 0,0 l/m 1,6 km/h (1 Bft) O-SO 112 0,000 mm -4,6 C -0,6 C 3,2 km/h (1 Bft) 100,00 %
29.03.2023 04:51 -0,5 C 74 % 1028,0 hPa 0,0 l/m 1,6 km/h (1 Bft) O-SO 112 0,000 mm -4,5 C -0,5 C 3,2 km/h (1 Bft) 100,00 %
29.03.2023 04:50 -0,6 C 74 % 1028,1 hPa 0,0 l/m 3,2 km/h (1 Bft) O-SO 112 0,000 mm -4,6 C -0,6 C 3,2 km/h (1 Bft) 100,00 %
29.03.2023 04:49 -0,6 C 74 % 1028,0 hPa 0,0 l/m 3,2 km/h (1 Bft) O-SO 112 0,000 mm -4,6 C -0,6 C 3,2 km/h (1 Bft) 100,00 %
29.03.2023 04:48 -0,5 C 74 % 1028,1 hPa 0,0 l/m 1,6 km/h (1 Bft) O-SO 112 0,000 mm -4,5 C -0,5 C 3,2 km/h (1 Bft) 100,00 %
29.03.2023 04:47 -0,5 C 74 % 1028,0 hPa 0,0 l/m 3,2 km/h (1 Bft) O-SO 112 0,000 mm -4,5 C -0,5 C 4,8 km/h (1 Bft) 100,00 %
29.03.2023 04:46 -0,4 C 74 % 1028,0 hPa 0,0 l/m 6,4 km/h (2 Bft) O-SO 112 0,000 mm -4,5 C -0,4 C 6,4 km/h (2 Bft) 95,65 %
29.03.2023 04:45 -0,4 C 74 % 1028,0 hPa 0,0 l/m 4,8 km/h (1 Bft) O-SO 112 0,000 mm -4,5 C -0,4 C 6,4 km/h (2 Bft) 100,00 %
29.03.2023 04:44 -0,4 C 74 % 1028,0 hPa 0,0 l/m 4,8 km/h (1 Bft) O-SO 112 0,000 mm -4,5 C -0,4 C 6,4 km/h (2 Bft) 95,65 %
29.03.2023 04:43 -0,4 C 74 % 1028,0 hPa 0,0 l/m 4,8 km/h (1 Bft) SO 135 0,000 mm -4,5 C -0,4 C 6,4 km/h (2 Bft) 100,00 %
29.03.2023 04:42 -0,4 C 74 % 1028,0 hPa 0,0 l/m 1,6 km/h (1 Bft) S-SO 157 0,000 mm -4,5 C -0,4 C 4,8 km/h (1 Bft) 100,00 %
29.03.2023 04:41 -0,4 C 74 % 1028,1 hPa 0,0 l/m 1,6 km/h (1 Bft) S-SO 157 0,000 mm -4,5 C -0,4 C 3,2 km/h (1 Bft) 100,00 %
29.03.2023 04:40 -0,4 C 75 % 1028,1 hPa 0,0 l/m 1,6 km/h (1 Bft) S-SO 157 0,000 mm -4,3 C -0,4 C 3,2 km/h (1 Bft) 100,00 %
29.03.2023 04:39 -0,4 C 75 % 1028,1 hPa 0,0 l/m 3,2 km/h (1 Bft) S-SO 157 0,000 mm -4,3 C -0,4 C 4,8 km/h (1 Bft) 95,65 %
29.03.2023 04:38 -0,4 C 75 % 1028,1 hPa 0,0 l/m 1,6 km/h (1 Bft) S 180 0,000 mm -4,3 C -0,4 C 4,8 km/h (1 Bft) 100,00 %
29.03.2023 04:37 -0,4 C 75 % 1028,2 hPa 0,0 l/m 1,6 km/h (1 Bft) S 180 0,000 mm -4,3 C -0,4 C 4,8 km/h (1 Bft) 100,00 %
29.03.2023 04:36 -0,4 C 75 % 1028,2 hPa 0,0 l/m 3,2 km/h (1 Bft) S-SO 157 0,000 mm -4,3 C -0,4 C 4,8 km/h (1 Bft) 95,65 %
29.03.2023 04:35 -0,4 C 75 % 1028,3 hPa 0,0 l/m 3,2 km/h (1 Bft) S 180 0,000 mm -4,3 C -0,4 C 3,2 km/h (1 Bft) 100,00 %
29.03.2023 04:34 -0,6 C 74 % 1028,3 hPa 0,0 l/m 3,2 km/h (1 Bft) O-SO 112 0,000 mm -4,6 C -0,6 C 4,8 km/h (1 Bft) 95,65 %
29.03.2023 04:33 -0,6 C 74 % 1028,4 hPa 0,0 l/m 1,6 km/h (1 Bft) NO 45 0,000 mm -4,6 C -0,6 C 3,2 km/h (1 Bft) 100,00 %
29.03.2023 04:32 -0,6 C 74 % 1028,4 hPa 0,0 l/m 1,6 km/h (1 Bft) N-NO 22 0,000 mm -4,6 C -0,6 C 1,6 km/h (1 Bft) 95,65 %
29.03.2023 04:31 -0,6 C 74 % 1028,4 hPa 0,0 l/m 1,6 km/h (1 Bft) N-NO 22 0,000 mm -4,6 C -0,6 C 3,2 km/h (1 Bft) 100,00 %
29.03.2023 04:30 -0,6 C 74 % 1028,4 hPa 0,0 l/m 4,8 km/h (1 Bft) N-NO 22 0,000 mm -4,6 C -0,6 C 4,8 km/h (1 Bft) 100,00 %
29.03.2023 04:29 -0,5 C 74 % 1028,4 hPa 0,0 l/m 4,8 km/h (1 Bft) N-NO 22 0,000 mm -4,5 C -0,5 C 6,4 km/h (2 Bft) 100,00 %
29.03.2023 04:28 -0,5 C 74 % 1028,4 hPa 0,0 l/m 6,4 km/h (2 Bft) N-NO 22 0,000 mm -4,5 C -0,5 C 6,4 km/h (2 Bft) 100,00 %
29.03.2023 04:27 -0,4 C 74 % 1028,5 hPa 0,0 l/m 4,8 km/h (1 Bft) N-NO 22 0,000 mm -4,5 C -0,4 C 6,4 km/h (2 Bft) 100,00 %
29.03.2023 04:26 -0,4 C 74 % 1028,4 hPa 0,0 l/m 3,2 km/h (1 Bft) N-NO 22 0,000 mm -4,5 C -0,4 C 4,8 km/h (1 Bft) 100,00 %
29.03.2023 04:25 -0,3 C 73 % 1028,5 hPa 0,0 l/m 1,6 km/h (1 Bft) W-SW 247 0,000 mm -4,5 C -0,3 C 3,2 km/h (1 Bft) 100,00 %
29.03.2023 04:24 -0,3 C 73 % 1028,4 hPa 0,0 l/m 0,0 km/h (0 Bft) W-SW 247 0,000 mm -4,5 C -0,3 C 1,6 km/h (1 Bft) 100,00 %
29.03.2023 04:23 -0,3 C 73 % 1028,5 hPa 0,0 l/m 0,0 km/h (0 Bft) W-SW 247 0,000 mm -4,5 C -0,3 C 1,6 km/h (1 Bft) 100,00 %
29.03.2023 04:22 -0,3 C 73 % 1028,6 hPa 0,0 l/m 3,2 km/h (1 Bft) SW 225 0,000 mm -4,5 C -0,3 C 4,8 km/h (1 Bft) 100,00 %
29.03.2023 04:21 -0,3 C 73 % 1028,5 hPa 0,0 l/m 6,4 km/h (2 Bft) S-SW 202 0,000 mm -4,5 C -0,3 C 8,0 km/h (2 Bft) 100,00 %
29.03.2023 04:20 -0,3 C 74 % 1028,4 hPa 0,0 l/m 4,8 km/h (1 Bft) S-SW 202 0,000 mm -4,4 C -0,3 C 6,4 km/h (2 Bft) 95,65 %
29.03.2023 04:19 -0,4 C 74 % 1028,4 hPa 0,0 l/m 6,4 km/h (2 Bft) S 180 0,000 mm -4,5 C -0,4 C 8,0 km/h (2 Bft) 95,65 %
29.03.2023 04:18 -0,4 C 74 % 1028,3 hPa 0,0 l/m 4,8 km/h (1 Bft) S 180 0,000 mm -4,5 C -0,4 C 9,7 km/h (2 Bft) 100,00 %
29.03.2023 04:17 -0,4 C 74 % 1028,3 hPa 0,0 l/m 4,8 km/h (1 Bft) S 180 0,000 mm -4,5 C -0,4 C 8,0 km/h (2 Bft) 95,65 %
29.03.2023 04:16 -0,5 C 74 % 1028,4 hPa 0,0 l/m 6,4 km/h (2 Bft) S 180 0,000 mm -4,5 C -0,5 C 9,7 km/h (2 Bft) 100,00 %
29.03.2023 04:15 -0,5 C 75 % 1028,4 hPa 0,0 l/m 4,8 km/h (1 Bft) S-SO 157 0,000 mm -4,4 C -0,5 C 8,0 km/h (2 Bft) 95,65 %
29.03.2023 04:14 -0,6 C 74 % 1028,5 hPa 0,0 l/m 3,2 km/h (1 Bft) S 180 0,000 mm -4,6 C -0,6 C 4,8 km/h (1 Bft) 100,00 %
29.03.2023 04:13 -0,5 C 74 % 1028,5 hPa 0,0 l/m 0,0 km/h (0 Bft) N 0 0,000 mm -4,5 C -0,5 C 0,0 km/h (0 Bft) 100,00 %
29.03.2023 04:12 -0,6 C 74 % 1028,5 hPa 0,0 l/m 0,0 km/h (0 Bft) N 0 0,000 mm -4,6 C -0,6 C 0,0 km/h (0 Bft) 100,00 %
29.03.2023 04:11 -0,6 C 74 % 1028,5 hPa 0,0 l/m 0,0 km/h (0 Bft) S-SW 202 0,000 mm -4,6 C -0,6 C 3,2 km/h (1 Bft) 100,00 %
29.03.2023 04:10 -0,6 C 74 % 1028,4 hPa 0,0 l/m 3,2 km/h (1 Bft) S-SW 202 0,000 mm -4,6 C -0,6 C 4,8 km/h (1 Bft) 100,00 %
29.03.2023 04:09 -0,6 C 73 % 1028,5 hPa 0,0 l/m 3,2 km/h (1 Bft) S-SW 202 0,000 mm -4,8 C -0,6 C 4,8 km/h (1 Bft) 100,00 %
29.03.2023 04:08 -0,6 C 73 % 1028,4 hPa 0,0 l/m 4,8 km/h (1 Bft) S-SW 202 0,000 mm -4,8 C -0,6 C 4,8 km/h (1 Bft) 100,00 %
29.03.2023 04:07 -0,6 C 73 % 1028,6 hPa 0,0 l/m 1,6 km/h (1 Bft) W-SW 247 0,000 mm -4,8 C -0,6 C 4,8 km/h (1 Bft) 100,00 %
29.03.2023 04:06 -0,6 C 73 % 1028,6 hPa 0,0 l/m 4,8 km/h (1 Bft) W-SW 247 0,000 mm -4,8 C -0,6 C 6,4 km/h (2 Bft) 100,00 %
29.03.2023 04:05 -0,6 C 73 % 1028,6 hPa 0,0 l/m 4,8 km/h (1 Bft) W 270 0,000 mm -4,8 C -0,6 C 6,4 km/h (2 Bft) 95,65 %
29.03.2023 04:04 -0,6 C 73 % 1028,6 hPa 0,0 l/m 6,4 km/h (2 Bft) W-SW 247 0,000 mm -4,8 C -0,6 C 8,0 km/h (2 Bft) 100,00 %
29.03.2023 04:03 -0,6 C 74 % 1028,5 hPa 0,0 l/m 4,8 km/h (1 Bft) W-SW 247 0,000 mm -4,6 C -0,6 C 4,8 km/h (1 Bft) 95,65 %
29.03.2023 04:02 -0,6 C 74 % 1028,5 hPa 0,0 l/m 3,2 km/h (1 Bft) SW 225 0,000 mm -4,6 C -0,6 C 3,2 km/h (1 Bft) 91,30 %
29.03.2023 04:01 -0,6 C 74 % 1028,4 hPa 0,0 l/m 3,2 km/h (1 Bft) SW 225 0,000 mm -4,6 C -0,6 C 4,8 km/h (1 Bft) 100,00 %
29.03.2023 04:00 -0,6 C 74 % 1028,4 hPa 0,0 l/m 1,6 km/h (1 Bft) NW 315 0,000 mm -4,6 C -0,6 C 3,2 km/h (1 Bft) 91,30 %
29.03.2023 03:59 -0,6 C 74 % 1028,3 hPa 0,0 l/m 0,0 km/h (0 Bft) NW 315 0,000 mm -4,6 C -0,6 C 1,6 km/h (1 Bft) 100,00 %
29.03.2023 03:58 -0,5 C 74 % 1028,3 hPa 0,0 l/m 3,2 km/h (1 Bft) NW 315 0,000 mm -4,5 C -0,5 C 3,2 km/h (1 Bft) 95,65 %
29.03.2023 03:57 -0,4 C 74 % 1028,3 hPa 0,0 l/m 3,2 km/h (1 Bft) NW 315 0,000 mm -4,5 C -0,4 C 6,4 km/h (2 Bft) 100,00 %
29.03.2023 03:56 -0,4 C 74 % 1028,2 hPa 0,0 l/m 3,2 km/h (1 Bft) W-NW 292 0,000 mm -4,5 C -0,4 C 4,8 km/h (1 Bft) 100,00 %
29.03.2023 03:55 -0,4 C 74 % 1028,1 hPa 0,0 l/m 1,6 km/h (1 Bft) S-SO 157 0,000 mm -4,5 C -0,4 C 1,6 km/h (1 Bft) 100,00 %
29.03.2023 03:54 -0,4 C 74 % 1028,2 hPa 0,0 l/m 3,2 km/h (1 Bft) S 180 0,000 mm -4,5 C -0,4 C 4,8 km/h (1 Bft) 100,00 %
29.03.2023 03:53 -0,4 C 73 % 1028,2 hPa 0,0 l/m 4,8 km/h (1 Bft) S-SO 157 0,000 mm -4,6 C -0,4 C 8,0 km/h (2 Bft) 100,00 %
29.03.2023 03:52 -0,4 C 73 % 1028,3 hPa 0,0 l/m 6,4 km/h (2 Bft) S-SO 157 0,000 mm -4,6 C -0,4 C 9,7 km/h (2 Bft) 100,00 %
29.03.2023 03:51 -0,4 C 73 % 1028,3 hPa 0,0 l/m 6,4 km/h (2 Bft) S 180 0,000 mm -4,6 C -0,4 C 9,7 km/h (2 Bft) 95,65 %
29.03.2023 03:50 -0,4 C 73 % 1028,3 hPa 0,0 l/m 9,7 km/h (2 Bft) S 180 0,000 mm -4,6 C -3,6 C 12,9 km/h (3 Bft) 100,00 %
29.03.2023 03:49 -0,4 C 73 % 1028,1 hPa 0,0 l/m 8,0 km/h (2 Bft) S 180 0,000 mm -4,6 C -2,1 C 11,3 km/h (2 Bft) 95,65 %
29.03.2023 03:48 -0,4 C 73 % 1028,2 hPa 0,0 l/m 11,3 km/h (2 Bft) S 180 0,000 mm -4,6 C -4,9 C 14,5 km/h (3 Bft) 100,00 %
29.03.2023 03:47 -0,4 C 73 % 1028,2 hPa 0,0 l/m 9,7 km/h (2 Bft) S 180 0,000 mm -4,6 C -3,6 C 14,5 km/h (3 Bft) 100,00 %
29.03.2023 03:46 -0,4 C 73 % 1028,2 hPa 0,0 l/m 9,7 km/h (2 Bft) S 180 0,000 mm -4,6 C -3,6 C 12,9 km/h (3 Bft) 95,65 %
29.03.2023 03:45 -0,4 C 73 % 1028,1 hPa 0,0 l/m 9,7 km/h (2 Bft) S 180 0,000 mm -4,6 C -3,6 C 14,5 km/h (3 Bft) 100,00 %
29.03.2023 03:44 -0,4 C 73 % 1028,0 hPa 0,0 l/m 11,3 km/h (2 Bft) S-SO 157 0,000 mm -4,6 C -4,9 C 14,5 km/h (3 Bft) 100,00 %
29.03.2023 03:43 -0,4 C 72 % 1028,1 hPa 0,0 l/m 11,3 km/h (2 Bft) SO 135 0,000 mm -4,8 C -4,9 C 12,9 km/h (3 Bft) 100,00 %
29.03.2023 03:42 -0,3 C 72 % 1028,1 hPa 0,0 l/m 8,0 km/h (2 Bft) SO 135 0,000 mm -4,7 C -2,0 C 12,9 km/h (3 Bft) 100,00 %
29.03.2023 03:41 -0,3 C 72 % 1028,1 hPa 0,0 l/m 6,4 km/h (2 Bft) S-SO 157 0,000 mm -4,7 C -0,3 C 11,3 km/h (2 Bft) 91,30 %
29.03.2023 03:40 -0,3 C 72 % 1028,2 hPa 0,0 l/m 6,4 km/h (2 Bft) S-SO 157 0,000 mm -4,7 C -0,3 C 9,7 km/h (2 Bft) 100,00 %
29.03.2023 03:39 -0,3 C 72 % 1028,2 hPa 0,0 l/m 4,8 km/h (1 Bft) S 180 0,000 mm -4,7 C -0,3 C 8,0 km/h (2 Bft) 100,00 %
29.03.2023 03:38 -0,3 C 72 % 1028,3 hPa 0,0 l/m 4,8 km/h (1 Bft) S 180 0,000 mm -4,7 C -0,3 C 8,0 km/h (2 Bft) 95,65 %
29.03.2023 03:37 -0,3 C 72 % 1028,3 hPa 0,0 l/m 4,8 km/h (1 Bft) S 180 0,000 mm -4,7 C -0,3 C 8,0 km/h (2 Bft) 100,00 %
29.03.2023 03:36 -0,3 C 72 % 1028,3 hPa 0,0 l/m 3,2 km/h (1 Bft) S 180 0,000 mm -4,7 C -0,3 C 6,4 km/h (2 Bft) 95,65 %
29.03.2023 03:35 -0,3 C 72 % 1028,2 hPa 0,0 l/m 4,8 km/h (1 Bft) S-SO 157 0,000 mm -4,7 C -0,3 C 8,0 km/h (2 Bft) 100,00 %
29.03.2023 03:34 -0,3 C 72 % 1028,1 hPa 0,0 l/m 6,4 km/h (2 Bft) S-SO 157 0,000 mm -4,7 C -0,3 C 8,0 km/h (2 Bft) 100,00 %
29.03.2023 03:33 -0,3 C 72 % 1028,1 hPa 0,0 l/m 6,4 km/h (2 Bft) SO 135 0,000 mm -4,7 C -0,3 C 8,0 km/h (2 Bft) 100,00 %
29.03.2023 03:32 -0,4 C 71 % 1028,1 hPa 0,0 l/m 6,4 km/h (2 Bft) SO 135 0,000 mm -5,0 C -0,4 C 9,7 km/h (2 Bft) 91,30 %
29.03.2023 03:31 -0,4 C 71 % 1028,2 hPa 0,0 l/m 8,0 km/h (2 Bft) SO 135 0,000 mm -5,0 C -2,1 C 12,9 km/h (3 Bft) 100,00 %
29.03.2023 03:30 -0,3 C 71 % 1028,2 hPa 0,0 l/m 8,0 km/h (2 Bft) SO 135 0,000 mm -4,9 C -2,0 C 11,3 km/h (2 Bft) 100,00 %
29.03.2023 03:29 -0,4 C 71 % 1028,2 hPa 0,0 l/m 9,7 km/h (2 Bft) SO 135 0,000 mm -5,0 C -3,6 C 14,5 km/h (3 Bft) 95,65 %
29.03.2023 03:28 -0,3 C 71 % 1028,1 hPa 0,0 l/m 12,9 km/h (3 Bft) SO 135 0,000 mm -4,9 C -6,0 C 14,5 km/h (3 Bft) 100,00 %
29.03.2023 03:27 -0,3 C 71 % 1028,2 hPa 0,0 l/m 11,3 km/h (2 Bft) SO 135 0,000 mm -4,9 C -4,8 C 12,9 km/h (3 Bft) 100,00 %
29.03.2023 03:26 -0,4 C 71 % 1028,3 hPa 0,0 l/m 9,7 km/h (2 Bft) SO 135 0,000 mm -5,0 C -3,6 C 12,9 km/h (3 Bft) 91,30 %
29.03.2023 03:25 -0,4 C 71 % 1028,4 hPa 0,0 l/m 4,8 km/h (1 Bft) SO 135 0,000 mm -5,0 C -0,4 C 8,0 km/h (2 Bft) 100,00 %
29.03.2023 03:24 -0,4 C 71 % 1028,4 hPa 0,0 l/m 6,4 km/h (2 Bft) S 180 0,000 mm -5,0 C -0,4 C 9,7 km/h (2 Bft) 95,65 %
29.03.2023 03:23 -0,3 C 71 % 1028,4 hPa 0,0 l/m 6,4 km/h (2 Bft) S-SW 202 0,000 mm -4,9 C -0,3 C 8,0 km/h (2 Bft) 100,00 %
29.03.2023 03:22 -0,3 C 71 % 1028,3 hPa 0,0 l/m 6,4 km/h (2 Bft) SW 225 0,000 mm -4,9 C -0,3 C 8,0 km/h (2 Bft) 91,30 %
29.03.2023 03:21 -0,3 C 71 % 1028,3 hPa 0,0 l/m 6,4 km/h (2 Bft) S-SW 202 0,000 mm -4,9 C -0,3 C 8,0 km/h (2 Bft) 100,00 %
29.03.2023 03:20 -0,2 C 71 % 1028,4 hPa 0,0 l/m 4,8 km/h (1 Bft) S-SW 202 0,000 mm -4,8 C -0,2 C 6,4 km/h (2 Bft) 91,30 %
29.03.2023 03:19 -0,3 C 71 % 1028,4 hPa 0,0 l/m 1,6 km/h (1 Bft) S 180 0,000 mm -4,9 C -0,3 C 4,8 km/h (1 Bft) 100,00 %
29.03.2023 03:18 -0,3 C 71 % 1028,3 hPa 0,0 l/m 4,8 km/h (1 Bft) S-SO 157 0,000 mm -4,9 C -0,3 C 8,0 km/h (2 Bft) 100,00 %
29.03.2023 03:17 -0,3 C 71 % 1028,0 hPa 0,0 l/m 8,0 km/h (2 Bft) SO 135 0,000 mm -4,9 C -2,0 C 12,9 km/h (3 Bft) 100,00 %
29.03.2023 03:16 -0,3 C 71 % 1028,0 hPa 0,0 l/m 14,5 km/h (3 Bft) O-SO 112 0,000 mm -4,9 C -7,0 C 16,1 km/h (3 Bft) 95,65 %
29.03.2023 03:15 -0,3 C 71 % 1028,0 hPa 0,0 l/m 16,1 km/h (3 Bft) O-SO 112 0,000 mm -4,9 C -8,0 C 17,7 km/h (3 Bft) 100,00 %
29.03.2023 03:14 -0,3 C 71 % 1028,2 hPa 0,0 l/m 14,5 km/h (3 Bft) O-SO 112 0,000 mm -4,9 C -7,0 C 17,7 km/h (3 Bft) 100,00 %
29.03.2023 03:13 -0,3 C 71 % 1028,1 hPa 0,0 l/m 14,5 km/h (3 Bft) O-SO 112 0,000 mm -4,9 C -7,0 C 16,1 km/h (3 Bft) 100,00 %
29.03.2023 03:12 -0,3 C 70 % 1028,0 hPa 0,0 l/m 14,5 km/h (3 Bft) O-SO 112 0,000 mm -5,1 C -7,0 C 16,1 km/h (3 Bft) 91,30 %
29.03.2023 03:11 -0,3 C 71 % 1028,1 hPa 0,0 l/m 14,5 km/h (3 Bft) O-SO 112 0,000 mm -4,9 C -7,0 C 17,7 km/h (3 Bft) 100,00 %
29.03.2023 03:10 -0,3 C 70 % 1027,9 hPa 0,0 l/m 16,1 km/h (3 Bft) O-SO 112 0,000 mm -5,1 C -8,0 C 19,3 km/h (3 Bft) 100,00 %
29.03.2023 03:09 -0,2 C 70 % 1028,1 hPa 0,0 l/m 17,7 km/h (3 Bft) O-SO 112 0,000 mm -5,0 C -8,7 C 19,3 km/h (3 Bft) 95,65 %
29.03.2023 03:08 -0,2 C 70 % 1028,0 hPa 0,0 l/m 16,1 km/h (3 Bft) O-SO 112 0,000 mm -5,0 C -7,9 C 17,7 km/h (3 Bft) 95,65 %
29.03.2023 03:07 -0,3 C 70 % 1028,2 hPa 0,0 l/m 14,5 km/h (3 Bft) SO 135 0,000 mm -5,1 C -7,0 C 17,7 km/h (3 Bft) 100,00 %
29.03.2023 03:06 -0,3 C 70 % 1028,2 hPa 0,0 l/m 11,3 km/h (2 Bft) SO 135 0,000 mm -5,1 C -4,8 C 14,5 km/h (3 Bft) 100,00 %
29.03.2023 03:05 -0,3 C 70 % 1028,2 hPa 0,0 l/m 8,0 km/h (2 Bft) SO 135 0,000 mm -5,1 C -2,0 C 12,9 km/h (3 Bft) 100,00 %
29.03.2023 03:04 -0,3 C 70 % 1028,1 hPa 0,0 l/m 11,3 km/h (2 Bft) SO 135 0,000 mm -5,1 C -4,8 C 14,5 km/h (3 Bft) 100,00 %
29.03.2023 03:03 -0,3 C 70 % 1028,2 hPa 0,0 l/m 14,5 km/h (3 Bft) SO 135 0,000 mm -5,1 C -7,0 C 16,1 km/h (3 Bft) 100,00 %
29.03.2023 03:02 -0,3 C 70 % 1028,2 hPa 0,0 l/m 12,9 km/h (3 Bft) SO 135 0,000 mm -5,1 C -6,0 C 14,5 km/h (3 Bft) 100,00 %
29.03.2023 03:01 -0,3 C 70 % 1028,1 hPa 0,0 l/m 12,9 km/h (3 Bft) SO 135 0,000 mm -5,1 C -6,0 C 14,5 km/h (3 Bft) 100,00 %
29.03.2023 03:00 -0,3 C 70 % 1028,2 hPa 0,0 l/m 12,9 km/h (3 Bft) SO 135 0,000 mm -5,1 C -6,0 C 12,9 km/h (3 Bft) 95,65 %
29.03.2023 02:59 -0,3 C 70 % 1028,1 hPa 0,0 l/m 12,9 km/h (3 Bft) SO 135 0,000 mm -5,1 C -6,0 C 14,5 km/h (3 Bft) 100,00 %
29.03.2023 02:58 -0,3 C 70 % 1028,1 hPa 0,0 l/m 11,3 km/h (2 Bft) SO 135 0,000 mm -5,1 C -4,8 C 14,5 km/h (3 Bft) 91,30 %
29.03.2023 02:57 -0,3 C 70 % 1028,2 hPa 0,0 l/m 8,0 km/h (2 Bft) SO 135 0,000 mm -5,1 C -2,0 C 12,9 km/h (3 Bft) 100,00 %
29.03.2023 02:56 -0,3 C 70 % 1028,2 hPa 0,0 l/m 6,4 km/h (2 Bft) SO 135 0,000 mm -5,1 C -0,3 C 9,7 km/h (2 Bft) 95,65 %
29.03.2023 02:55 -0,2 C 70 % 1028,2 hPa 0,0 l/m 4,8 km/h (1 Bft) SO 135 0,000 mm -5,0 C -0,2 C 8,0 km/h (2 Bft) 95,65 %
29.03.2023 02:54 -0,3 C 70 % 1028,2 hPa 0,0 l/m 8,0 km/h (2 Bft) SO 135 0,000 mm -5,1 C -2,0 C 12,9 km/h (3 Bft) 100,00 %
29.03.2023 02:53 -0,3 C 70 % 1028,1 hPa 0,0 l/m 12,9 km/h (3 Bft) SO 135 0,000 mm -5,1 C -6,0 C 12,9 km/h (3 Bft) 100,00 %
29.03.2023 02:52 -0,2 C 70 % 1028,2 hPa 0,0 l/m 11,3 km/h (2 Bft) SO 135 0,000 mm -5,0 C -4,7 C 12,9 km/h (3 Bft) 100,00 %
29.03.2023 02:51 -0,2 C 70 % 1028,2 hPa 0,0 l/m 6,4 km/h (2 Bft) SO 135 0,000 mm -5,0 C -0,2 C 12,9 km/h (3 Bft) 95,65 %
29.03.2023 02:50 -0,2 C 70 % 1028,4 hPa 0,0 l/m 4,8 km/h (1 Bft) SO 135 0,000 mm -5,0 C -0,2 C 6,4 km/h (2 Bft) 100,00 %
29.03.2023 02:49 -0,2 C 70 % 1028,4 hPa 0,0 l/m 4,8 km/h (1 Bft) SO 135 0,000 mm -5,0 C -0,2 C 8,0 km/h (2 Bft) 100,00 %
29.03.2023 02:48 -0,2 C 70 % 1028,3 hPa 0,0 l/m 4,8 km/h (1 Bft) SO 135 0,000 mm -5,0 C -0,2 C 6,4 km/h (2 Bft) 91,30 %
29.03.2023 02:47 -0,2 C 69 % 1028,4 hPa 0,0 l/m 4,8 km/h (1 Bft) SO 135 0,000 mm -5,2 C -0,2 C 6,4 km/h (2 Bft) 100,00 %
29.03.2023 02:46 -0,2 C 69 % 1028,4 hPa 0,0 l/m 4,8 km/h (1 Bft) SO 135 0,000 mm -5,2 C -0,2 C 6,4 km/h (2 Bft) 91,30 %
29.03.2023 02:45 -0,1 C 69 % 1028,4 hPa 0,0 l/m 4,8 km/h (1 Bft) SO 135 0,000 mm -5,1 C -0,1 C 6,4 km/h (2 Bft) 95,65 %
29.03.2023 02:44 -0,1 C 70 % 1028,4 hPa 0,0 l/m 4,8 km/h (1 Bft) SO 135 0,000 mm -4,9 C -0,1 C 6,4 km/h (2 Bft) 100,00 %
29.03.2023 02:43 -0,1 C 69 % 1028,4 hPa 0,0 l/m 4,8 km/h (1 Bft) SO 135 0,000 mm -5,1 C -0,1 C 8,0 km/h (2 Bft) 100,00 %
29.03.2023 02:42 -0,1 C 69 % 1028,2 hPa 0,0 l/m 6,4 km/h (2 Bft) SO 135 0,000 mm -5,1 C -0,1 C 8,0 km/h (2 Bft) 100,00 %
29.03.2023 02:41 -0,1 C 69 % 1028,2 hPa 0,0 l/m 9,7 km/h (2 Bft) SO 135 0,000 mm -5,1 C -3,3 C 12,9 km/h (3 Bft) 100,00 %
29.03.2023 02:40 -0,1 C 69 % 1028,1 hPa 0,0 l/m 14,5 km/h (3 Bft) SO 135 0,000 mm -5,1 C -6,8 C 16,1 km/h (3 Bft) 100,00 %
29.03.2023 02:39 -0,1 C 68 % 1028,1 hPa 0,0 l/m 14,5 km/h (3 Bft) O-SO 112 0,000 mm -5,3 C -6,8 C 16,1 km/h (3 Bft) 95,65 %
29.03.2023 02:38 -0,1 C 68 % 1028,2 hPa 0,0 l/m 14,5 km/h (3 Bft) O-SO 112 0,000 mm -5,3 C -6,8 C 14,5 km/h (3 Bft) 95,65 %
29.03.2023 02:37 -0,1 C 68 % 1028,2 hPa 0,0 l/m 12,9 km/h (3 Bft) O-SO 112 0,000 mm -5,3 C -5,8 C 14,5 km/h (3 Bft) 100,00 %
29.03.2023 02:36 -0,1 C 68 % 1028,2 hPa 0,0 l/m 12,9 km/h (3 Bft) O-SO 112 0,000 mm -5,3 C -5,8 C 14,5 km/h (3 Bft) 95,65 %
29.03.2023 02:35 -0,1 C 68 % 1028,2 hPa 0,0 l/m 12,9 km/h (3 Bft) O-SO 112 0,000 mm -5,3 C -5,8 C 14,5 km/h (3 Bft) 100,00 %
29.03.2023 02:34 0,0 C 68 % 1028,3 hPa 0,0 l/m 12,9 km/h (3 Bft) O-SO 112 0,000 mm -5,2 C -5,6 C 12,9 km/h (3 Bft) 95,65 %
29.03.2023 02:33 0,0 C 68 % 1028,2 hPa 0,0 l/m 12,9 km/h (3 Bft) O-SO 112 0,000 mm -5,2 C -5,6 C 14,5 km/h (3 Bft) 100,00 %
29.03.2023 02:32 0,0 C 68 % 1028,2 hPa 0,0 l/m 12,9 km/h (3 Bft) O-SO 112 0,000 mm -5,2 C -5,6 C 14,5 km/h (3 Bft) 100,00 %
29.03.2023 02:31 0,0 C 68 % 1028,2 hPa 0,0 l/m 12,9 km/h (3 Bft) O-SO 112 0,000 mm -5,2 C -5,6 C 14,5 km/h (3 Bft) 95,65 %
29.03.2023 02:30 0,0 C 68 % 1028,2 hPa 0,0 l/m 12,9 km/h (3 Bft) O-SO 112 0,000 mm -5,2 C -5,6 C 14,5 km/h (3 Bft) 95,65 %
29.03.2023 02:29 0,0 C 68 % 1028,2 hPa 0,0 l/m 12,9 km/h (3 Bft) O-SO 112 0,000 mm -5,2 C -5,6 C 14,5 km/h (3 Bft) 100,00 %
29.03.2023 02:28 0,0 C 68 % 1028,2 hPa 0,0 l/m 12,9 km/h (3 Bft) O-SO 112 0,000 mm -5,2 C -5,6 C 12,9 km/h (3 Bft) 100,00 %
29.03.2023 02:27 0,0 C 68 % 1028,2 hPa 0,0 l/m 12,9 km/h (3 Bft) O-SO 112 0,000 mm -5,2 C -5,6 C 12,9 km/h (3 Bft) 95,65 %
29.03.2023 02:26 0,0 C 68 % 1028,3 hPa 0,0 l/m 12,9 km/h (3 Bft) O-SO 112 0,000 mm -5,2 C -5,6 C 12,9 km/h (3 Bft) 100,00 %
29.03.2023 02:25 0,0 C 68 % 1028,4 hPa 0,0 l/m 11,3 km/h (2 Bft) O-SO 112 0,000 mm -5,2 C -4,5 C 12,9 km/h (3 Bft) 95,65 %
29.03.2023 02:24 0,0 C 68 % 1028,3 hPa 0,0 l/m 12,9 km/h (3 Bft) O-SO 112 0,000 mm -5,2 C -5,6 C 12,9 km/h (3 Bft) 95,65 %
29.03.2023 02:23 -0,1 C 68 % 1028,3 hPa 0,0 l/m 12,9 km/h (3 Bft) O-SO 112 0,000 mm -5,3 C -5,8 C 14,5 km/h (3 Bft) 100,00 %
29.03.2023 02:22 0,0 C 68 % 1028,2 hPa 0,0 l/m 12,9 km/h (3 Bft) O-SO 112 0,000 mm -5,2 C -5,6 C 14,5 km/h (3 Bft) 95,65 %
29.03.2023 02:21 -0,1 C 68 % 1028,3 hPa 0,0 l/m 12,9 km/h (3 Bft) O-SO 112 0,000 mm -5,3 C -5,8 C 14,5 km/h (3 Bft) 100,00 %
29.03.2023 02:20 0,0 C 68 % 1028,3 hPa 0,0 l/m 12,9 km/h (3 Bft) O-SO 112 0,000 mm -5,2 C -5,6 C 14,5 km/h (3 Bft) 100,00 %
29.03.2023 02:19 0,0 C 68 % 1028,2 hPa 0,0 l/m 12,9 km/h (3 Bft) O-SO 112 0,000 mm -5,2 C -5,6 C 14,5 km/h (3 Bft) 100,00 %
29.03.2023 02:18 0,0 C 68 % 1028,2 hPa 0,0 l/m 12,9 km/h (3 Bft) O-SO 112 0,000 mm -5,2 C -5,6 C 14,5 km/h (3 Bft) 100,00 %
29.03.2023 02:17 0,0 C 68 % 1028,2 hPa 0,0 l/m 12,9 km/h (3 Bft) O-SO 112 0,000 mm -5,2 C -5,6 C 14,5 km/h (3 Bft) 95,65 %
29.03.2023 02:16 0,0 C 68 % 1028,2 hPa 0,0 l/m 12,9 km/h (3 Bft) O-SO 112 0,000 mm -5,2 C -5,6 C 14,5 km/h (3 Bft) 100,00 %
29.03.2023 02:15 0,0 C 68 % 1028,2 hPa 0,0 l/m 11,3 km/h (2 Bft) O-SO 112 0,000 mm -5,2 C -4,5 C 12,9 km/h (3 Bft) 95,65 %
29.03.2023 02:14 0,0 C 68 % 1028,2 hPa 0,0 l/m 12,9 km/h (3 Bft) O-SO 112 0,000 mm -5,2 C -5,6 C 12,9 km/h (3 Bft) 100,00 %
29.03.2023 02:13 0,1 C 68 % 1028,2 hPa 0,0 l/m 12,9 km/h (3 Bft) O-SO 112 0,000 mm -5,1 C -5,5 C 14,5 km/h (3 Bft) 100,00 %
29.03.2023 02:12 0,1 C 68 % 1028,3 hPa 0,0 l/m 12,9 km/h (3 Bft) O-SO 112 0,000 mm -5,1 C -5,5 C 14,5 km/h (3 Bft) 100,00 %
29.03.2023 02:11 0,1 C 67 % 1028,3 hPa 0,0 l/m 12,9 km/h (3 Bft) O-SO 112 0,000 mm -5,3 C -5,5 C 14,5 km/h (3 Bft) 100,00 %
29.03.2023 02:10 0,1 C 67 % 1028,3 hPa 0,0 l/m 12,9 km/h (3 Bft) O-SO 112 0,000 mm -5,3 C -5,5 C 14,5 km/h (3 Bft) 91,30 %
29.03.2023 02:09 0,1 C 68 % 1028,4 hPa 0,0 l/m 12,9 km/h (3 Bft) O-SO 112 0,000 mm -5,1 C -5,5 C 14,5 km/h (3 Bft) 95,65 %
29.03.2023 02:08 0,1 C 67 % 1028,3 hPa 0,0 l/m 12,9 km/h (3 Bft) O-SO 112 0,000 mm -5,3 C -5,5 C 14,5 km/h (3 Bft) 100,00 %
29.03.2023 02:07 0,1 C 67 % 1028,3 hPa 0,0 l/m 12,9 km/h (3 Bft) SO 135 0,000 mm -5,3 C -5,5 C 14,5 km/h (3 Bft) 95,65 %
29.03.2023 02:06 0,1 C 67 % 1028,3 hPa 0,0 l/m 12,9 km/h (3 Bft) SO 135 0,000 mm -5,3 C -5,5 C 14,5 km/h (3 Bft) 100,00 %
29.03.2023 02:05 0,0 C 67 % 1028,3 hPa 0,0 l/m 12,9 km/h (3 Bft) SO 135 0,000 mm -5,4 C -5,6 C 14,5 km/h (3 Bft) 100,00 %
29.03.2023 02:04 0,0 C 67 % 1028,3 hPa 0,0 l/m 11,3 km/h (2 Bft) O-SO 112 0,000 mm -5,4 C -4,5 C 12,9 km/h (3 Bft) 100,00 %
29.03.2023 02:03 0,0 C 68 % 1028,3 hPa 0,0 l/m 11,3 km/h (2 Bft) O-SO 112 0,000 mm -5,2 C -4,5 C 12,9 km/h (3 Bft) 100,00 %
29.03.2023 02:02 0,0 C 68 % 1028,3 hPa 0,0 l/m 11,3 km/h (2 Bft) O-SO 112 0,000 mm -5,2 C -4,5 C 12,9 km/h (3 Bft) 100,00 %
29.03.2023 02:01 0,0 C 68 % 1028,3 hPa 0,0 l/m 9,7 km/h (2 Bft) O-SO 112 0,000 mm -5,2 C -3,2 C 11,3 km/h (2 Bft) 100,00 %
29.03.2023 02:00 -0,1 C 68 % 1028,4 hPa 0,0 l/m 11,3 km/h (2 Bft) O-SO 112 0,000 mm -5,3 C -4,6 C 12,9 km/h (3 Bft) 95,65 %
29.03.2023 01:59 -0,1 C 68 % 1028,3 hPa 0,0 l/m 9,7 km/h (2 Bft) O-SO 112 0,000 mm -5,3 C -3,3 C 12,9 km/h (3 Bft) 100,00 %
29.03.2023 01:58 -0,1 C 68 % 1028,3 hPa 0,0 l/m 9,7 km/h (2 Bft) O-SO 112 0,000 mm -5,3 C -3,3 C 11,3 km/h (2 Bft) 95,65 %
29.03.2023 01:57 -0,1 C 68 % 1028,3 hPa 0,0 l/m 11,3 km/h (2 Bft) O-SO 112 0,000 mm -5,3 C -4,6 C 12,9 km/h (3 Bft) 100,00 %
29.03.2023 01:56 -0,2 C 68 % 1028,3 hPa 0,0 l/m 11,3 km/h (2 Bft) SO 135 0,000 mm -5,4 C -4,7 C 12,9 km/h (3 Bft) 100,00 %
29.03.2023 01:55 -0,2 C 68 % 1028,3 hPa 0,0 l/m 9,7 km/h (2 Bft) SO 135 0,000 mm -5,4 C -3,4 C 11,3 km/h (2 Bft) 95,65 %
29.03.2023 01:54 -0,1 C 69 % 1028,3 hPa 0,0 l/m 9,7 km/h (2 Bft) SO 135 0,000 mm -5,1 C -3,3 C 12,9 km/h (3 Bft) 100,00 %
29.03.2023 01:53 -0,2 C 68 % 1028,3 hPa 0,0 l/m 11,3 km/h (2 Bft) SO 135 0,000 mm -5,4 C -4,7 C 12,9 km/h (3 Bft) 100,00 %
29.03.2023 01:52 -0,1 C 68 % 1028,3 hPa 0,0 l/m 11,3 km/h (2 Bft) SO 135 0,000 mm -5,3 C -4,6 C 14,5 km/h (3 Bft) 100,00 %
29.03.2023 01:51 -0,2 C 68 % 1028,2 hPa 0,0 l/m 11,3 km/h (2 Bft) SO 135 0,000 mm -5,4 C -4,7 C 14,5 km/h (3 Bft) 100,00 %
29.03.2023 01:50 -0,2 C 68 % 1028,2 hPa 0,0 l/m 12,9 km/h (3 Bft) SO 135 0,000 mm -5,4 C -5,9 C 14,5 km/h (3 Bft) 100,00 %
29.03.2023 01:49 -0,2 C 68 % 1028,1 hPa 0,0 l/m 12,9 km/h (3 Bft) SO 135 0,000 mm -5,4 C -5,9 C 14,5 km/h (3 Bft) 100,00 %
29.03.2023 01:48 -0,2 C 68 % 1028,2 hPa 0,0 l/m 12,9 km/h (3 Bft) SO 135 0,000 mm -5,4 C -5,9 C 14,5 km/h (3 Bft) 100,00 %
29.03.2023 01:47 -0,2 C 68 % 1028,1 hPa 0,0 l/m 11,3 km/h (2 Bft) SO 135 0,000 mm -5,4 C -4,7 C 14,5 km/h (3 Bft) 100,00 %
29.03.2023 01:46 -0,2 C 69 % 1028,1 hPa 0,0 l/m 8,0 km/h (2 Bft) SO 135 0,000 mm -5,2 C -1,9 C 11,3 km/h (2 Bft) 91,30 %
29.03.2023 01:45 -0,2 C 69 % 1028,1 hPa 0,0 l/m 9,7 km/h (2 Bft) SO 135 0,000 mm -5,2 C -3,4 C 12,9 km/h (3 Bft) 100,00 %
29.03.2023 01:44 -0,3 C 69 % 1028,2 hPa 0,0 l/m 11,3 km/h (2 Bft) SO 135 0,000 mm -5,3 C -4,8 C 14,5 km/h (3 Bft) 100,00 %
29.03.2023 01:43 -0,3 C 68 % 1028,1 hPa 0,0 l/m 11,3 km/h (2 Bft) SO 135 0,000 mm -5,5 C -4,8 C 14,5 km/h (3 Bft) 95,65 %
29.03.2023 01:42 -0,3 C 69 % 1028,2 hPa 0,0 l/m 8,0 km/h (2 Bft) SO 135 0,000 mm -5,3 C -2,0 C 12,9 km/h (3 Bft) 100,00 %
29.03.2023 01:41 -0,3 C 68 % 1028,2 hPa 0,0 l/m 6,4 km/h (2 Bft) SO 135 0,000 mm -5,5 C -0,3 C 8,0 km/h (2 Bft) 95,65 %
29.03.2023 01:40 -0,3 C 68 % 1028,3 hPa 0,0 l/m 6,4 km/h (2 Bft) SO 135 0,000 mm -5,5 C -0,3 C 9,7 km/h (2 Bft) 100,00 %
29.03.2023 01:39 -0,2 C 68 % 1028,2 hPa 0,0 l/m 6,4 km/h (2 Bft) SO 135 0,000 mm -5,4 C -0,2 C 9,7 km/h (2 Bft) 100,00 %
29.03.2023 01:38 -0,2 C 68 % 1028,2 hPa 0,0 l/m 6,4 km/h (2 Bft) SO 135 0,000 mm -5,4 C -0,2 C 9,7 km/h (2 Bft) 95,65 %
29.03.2023 01:37 -0,2 C 68 % 1028,3 hPa 0,0 l/m 4,8 km/h (1 Bft) SO 135 0,000 mm -5,4 C -0,2 C 8,0 km/h (2 Bft) 100,00 %
29.03.2023 01:36 -0,2 C 68 % 1028,2 hPa 0,0 l/m 6,4 km/h (2 Bft) S-SO 157 0,000 mm -5,4 C -0,2 C 8,0 km/h (2 Bft) 100,00 %
29.03.2023 01:35 -0,2 C 68 % 1028,3 hPa 0,0 l/m 6,4 km/h (2 Bft) SO 135 0,000 mm -5,4 C -0,2 C 8,0 km/h (2 Bft) 100,00 %
29.03.2023 01:34 -0,2 C 68 % 1028,3 hPa 0,0 l/m 4,8 km/h (1 Bft) SO 135 0,000 mm -5,4 C -0,2 C 6,4 km/h (2 Bft) 100,00 %
29.03.2023 01:33 -0,1 C 68 % 1028,3 hPa 0,0 l/m 6,4 km/h (2 Bft) SO 135 0,000 mm -5,3 C -0,1 C 9,7 km/h (2 Bft) 100,00 %
29.03.2023 01:32 -0,1 C 68 % 1028,3 hPa 0,0 l/m 4,8 km/h (1 Bft) S-SO 157 0,000 mm -5,3 C -0,1 C 8,0 km/h (2 Bft) 100,00 %
29.03.2023 01:31 -0,1 C 68 % 1028,3 hPa 0,0 l/m 6,4 km/h (2 Bft) SO 135 0,000 mm -5,3 C -0,1 C 8,0 km/h (2 Bft) 95,65 %
29.03.2023 01:30 -0,1 C 68 % 1028,3 hPa 0,0 l/m 6,4 km/h (2 Bft) S-SO 157 0,000 mm -5,3 C -0,1 C 9,7 km/h (2 Bft) 95,65 %
29.03.2023 01:29 -0,1 C 68 % 1028,3 hPa 0,0 l/m 6,4 km/h (2 Bft) SO 135 0,000 mm -5,3 C -0,1 C 9,7 km/h (2 Bft) 95,65 %
29.03.2023 01:28 -0,1 C 68 % 1028,3 hPa 0,0 l/m 4,8 km/h (1 Bft) SO 135 0,000 mm -5,3 C -0,1 C 8,0 km/h (2 Bft) 95,65 %
29.03.2023 01:27 -0,1 C 67 % 1028,3 hPa 0,0 l/m 4,8 km/h (1 Bft) S-SO 157 0,000 mm -5,5 C -0,1 C 6,4 km/h (2 Bft) 100,00 %
29.03.2023 01:26 -0,1 C 67 % 1028,4 hPa 0,0 l/m 4,8 km/h (1 Bft) SO 135 0,000 mm -5,5 C -0,1 C 8,0 km/h (2 Bft) 100,00 %
29.03.2023 01:25 -0,1 C 67 % 1028,3 hPa 0,0 l/m 4,8 km/h (1 Bft) S-SO 157 0,000 mm -5,5 C -0,1 C 6,4 km/h (2 Bft) 100,00 %
29.03.2023 01:24 -0,1 C 67 % 1028,4 hPa 0,0 l/m 4,8 km/h (1 Bft) SO 135 0,000 mm -5,5 C -0,1 C 6,4 km/h (2 Bft) 100,00 %
29.03.2023 01:23 -0,1 C 67 % 1028,4 hPa 0,0 l/m 4,8 km/h (1 Bft) SO 135 0,000 mm -5,5 C -0,1 C 6,4 km/h (2 Bft) 100,00 %
29.03.2023 01:22 -0,1 C 67 % 1028,4 hPa 0,0 l/m 4,8 km/h (1 Bft) S-SO 157 0,000 mm -5,5 C -0,1 C 8,0 km/h (2 Bft) 100,00 %
29.03.2023 01:21 -0,1 C 67 % 1028,4 hPa 0,0 l/m 3,2 km/h (1 Bft) SO 135 0,000 mm -5,5 C -0,1 C 6,4 km/h (2 Bft) 100,00 %
29.03.2023 01:20 -0,1 C 67 % 1028,4 hPa 0,0 l/m 6,4 km/h (2 Bft) S-SO 157 0,000 mm -5,5 C -0,1 C 9,7 km/h (2 Bft) 95,65 %
29.03.2023 01:19 -0,1 C 67 % 1028,4 hPa 0,0 l/m 6,4 km/h (2 Bft) S-SO 157 0,000 mm -5,5 C -0,1 C 8,0 km/h (2 Bft) 100,00 %
29.03.2023 01:18 0,0 C 67 % 1028,4 hPa 0,0 l/m 4,8 km/h (1 Bft) SO 135 0,000 mm -5,4 C 0,0 C 8,0 km/h (2 Bft) 100,00 %
29.03.2023 01:17 0,0 C 67 % 1028,4 hPa 0,0 l/m 4,8 km/h (1 Bft) SO 135 0,000 mm -5,4 C 0,0 C 6,4 km/h (2 Bft) 100,00 %
29.03.2023 01:16 0,0 C 67 % 1028,5 hPa 0,0 l/m 6,4 km/h (2 Bft) SO 135 0,000 mm -5,4 C 0,0 C 9,7 km/h (2 Bft) 100,00 %
29.03.2023 01:15 0,0 C 67 % 1028,4 hPa 0,0 l/m 6,4 km/h (2 Bft) SO 135 0,000 mm -5,4 C 0,0 C 8,0 km/h (2 Bft) 95,65 %
29.03.2023 01:14 0,0 C 67 % 1028,5 hPa 0,0 l/m 4,8 km/h (1 Bft) SO 135 0,000 mm -5,4 C 0,0 C 8,0 km/h (2 Bft) 95,65 %
29.03.2023 01:13 0,0 C 67 % 1028,4 hPa 0,0 l/m 6,4 km/h (2 Bft) SO 135 0,000 mm -5,4 C 0,0 C 11,3 km/h (2 Bft) 100,00 %
29.03.2023 01:12 0,0 C 67 % 1028,5 hPa 0,0 l/m 9,7 km/h (2 Bft) SO 135 0,000 mm -5,4 C -3,2 C 12,9 km/h (3 Bft) 100,00 %
29.03.2023 01:11 0,0 C 67 % 1028,5 hPa 0,0 l/m 9,7 km/h (2 Bft) SO 135 0,000 mm -5,4 C -3,2 C 12,9 km/h (3 Bft) 95,65 %
29.03.2023 01:10 0,0 C 67 % 1028,5 hPa 0,0 l/m 8,0 km/h (2 Bft) SO 135 0,000 mm -5,4 C -1,6 C 12,9 km/h (3 Bft) 100,00 %
29.03.2023 01:09 0,0 C 67 % 1028,5 hPa 0,0 l/m 9,7 km/h (2 Bft) SO 135 0,000 mm -5,4 C -3,2 C 11,3 km/h (2 Bft) 95,65 %
29.03.2023 01:08 0,0 C 67 % 1028,5 hPa 0,0 l/m 8,0 km/h (2 Bft) SO 135 0,000 mm -5,4 C -1,6 C 11,3 km/h (2 Bft) 100,00 %
29.03.2023 01:07 0,0 C 67 % 1028,5 hPa 0,0 l/m 8,0 km/h (2 Bft) SO 135 0,000 mm -5,4 C -1,6 C 9,7 km/h (2 Bft) 95,65 %
29.03.2023 01:06 0,0 C 67 % 1028,5 hPa 0,0 l/m 6,4 km/h (2 Bft) SO 135 0,000 mm -5,4 C 0,0 C 11,3 km/h (2 Bft) 100,00 %
29.03.2023 01:05 0,1 C 67 % 1028,5 hPa 0,0 l/m 8,0 km/h (2 Bft) SO 135 0,000 mm -5,3 C -1,5 C 11,3 km/h (2 Bft) 95,65 %
29.03.2023 01:04 0,1 C 67 % 1028,6 hPa 0,0 l/m 6,4 km/h (2 Bft) SO 135 0,000 mm -5,3 C 0,1 C 9,7 km/h (2 Bft) 100,00 %
29.03.2023 01:03 0,1 C 67 % 1028,6 hPa 0,0 l/m 6,4 km/h (2 Bft) SO 135 0,000 mm -5,3 C 0,1 C 11,3 km/h (2 Bft) 100,00 %
29.03.2023 01:02 0,1 C 67 % 1028,6 hPa 0,0 l/m 6,4 km/h (2 Bft) S-SO 157 0,000 mm -5,3 C 0,1 C 9,7 km/h (2 Bft) 95,65 %
29.03.2023 01:01 0,1 C 67 % 1028,6 hPa 0,0 l/m 6,4 km/h (2 Bft) SO 135 0,000 mm -5,3 C 0,1 C 9,7 km/h (2 Bft) 100,00 %
29.03.2023 01:00 0,2 C 67 % 1028,6 hPa 0,0 l/m 6,4 km/h (2 Bft) SO 135 0,000 mm -5,2 C 0,2 C 9,7 km/h (2 Bft) 100,00 %
29.03.2023 00:59 0,2 C 67 % 1028,6 hPa 0,0 l/m 4,8 km/h (1 Bft) SO 135 0,000 mm -5,2 C 0,2 C 8,0 km/h (2 Bft) 100,00 %
29.03.2023 00:58 0,2 C 67 % 1028,6 hPa 0,0 l/m 4,8 km/h (1 Bft) SO 135 0,000 mm -5,2 C 0,2 C 6,4 km/h (2 Bft) 100,00 %
29.03.2023 00:57 0,2 C 66 % 1028,6 hPa 0,0 l/m 6,4 km/h (2 Bft) SO 135 0,000 mm -5,4 C 0,2 C 11,3 km/h (2 Bft) 91,30 %
29.03.2023 00:56 0,2 C 67 % 1028,6 hPa 0,0 l/m 6,4 km/h (2 Bft) S-SO 157 0,000 mm -5,2 C 0,2 C 11,3 km/h (2 Bft) 100,00 %
29.03.2023 00:55 0,2 C 67 % 1028,7 hPa 0,0 l/m 6,4 km/h (2 Bft) S-SO 157 0,000 mm -5,2 C 0,2 C 9,7 km/h (2 Bft) 100,00 %
29.03.2023 00:54 0,3 C 67 % 1028,7 hPa 0,0 l/m 6,4 km/h (2 Bft) SO 135 0,000 mm -5,1 C 0,3 C 8,0 km/h (2 Bft) 100,00 %
29.03.2023 00:53 0,2 C 67 % 1028,7 hPa 0,0 l/m 6,4 km/h (2 Bft) S-SO 157 0,000 mm -5,2 C 0,2 C 9,7 km/h (2 Bft) 95,65 %
29.03.2023 00:52 0,2 C 67 % 1028,8 hPa 0,0 l/m 6,4 km/h (2 Bft) S-SO 157 0,000 mm -5,2 C 0,2 C 9,7 km/h (2 Bft) 100,00 %
29.03.2023 00:51 0,2 C 67 % 1028,8 hPa 0,0 l/m 6,4 km/h (2 Bft) S-SO 157 0,000 mm -5,2 C 0,2 C 9,7 km/h (2 Bft) 100,00 %
29.03.2023 00:50 0,2 C 67 % 1028,8 hPa 0,0 l/m 3,2 km/h (1 Bft) S-SO 157 0,000 mm -5,2 C 0,2 C 4,8 km/h (1 Bft) 91,30 %
29.03.2023 00:49 0,2 C 67 % 1028,8 hPa 0,0 l/m 3,2 km/h (1 Bft) S-SO 157 0,000 mm -5,2 C 0,2 C 6,4 km/h (2 Bft) 100,00 %
29.03.2023 00:48 0,2 C 67 % 1028,8 hPa 0,0 l/m 6,4 km/h (2 Bft) S-SO 157 0,000 mm -5,2 C 0,2 C 8,0 km/h (2 Bft) 100,00 %
29.03.2023 00:47 0,2 C 67 % 1028,9 hPa 0,0 l/m 4,8 km/h (1 Bft) S-SO 157 0,000 mm -5,2 C 0,2 C 8,0 km/h (2 Bft) 100,00 %
29.03.2023 00:46 0,2 C 67 % 1028,9 hPa 0,0 l/m 6,4 km/h (2 Bft) S-SO 157 0,000 mm -5,2 C 0,2 C 8,0 km/h (2 Bft) 91,30 %
29.03.2023 00:45 0,2 C 67 % 1028,9 hPa 0,0 l/m 4,8 km/h (1 Bft) S-SO 157 0,000 mm -5,2 C 0,2 C 8,0 km/h (2 Bft) 100,00 %
29.03.2023 00:44 0,3 C 67 % 1028,9 hPa 0,0 l/m 4,8 km/h (1 Bft) S-SO 157 0,000 mm -5,1 C 0,3 C 8,0 km/h (2 Bft) 100,00 %
29.03.2023 00:43 0,3 C 67 % 1028,9 hPa 0,0 l/m 3,2 km/h (1 Bft) S-SO 157 0,000 mm -5,1 C 0,3 C 6,4 km/h (2 Bft) 100,00 %
29.03.2023 00:42 0,3 C 66 % 1028,9 hPa 0,0 l/m 3,2 km/h (1 Bft) SO 135 0,000 mm -5,3 C 0,3 C 6,4 km/h (2 Bft) 100,00 %
29.03.2023 00:41 0,3 C 66 % 1028,9 hPa 0,0 l/m 3,2 km/h (1 Bft) S-SO 157 0,000 mm -5,3 C 0,3 C 6,4 km/h (2 Bft) 95,65 %
29.03.2023 00:40 0,3 C 66 % 1028,9 hPa 0,0 l/m 4,8 km/h (1 Bft) S-SO 157 0,000 mm -5,3 C 0,3 C 6,4 km/h (2 Bft) 100,00 %
29.03.2023 00:39 0,4 C 66 % 1029,0 hPa 0,0 l/m 3,2 km/h (1 Bft) SO 135 0,000 mm -5,2 C 0,4 C 6,4 km/h (2 Bft) 95,65 %
29.03.2023 00:38 0,6 C 65 % 1029,1 hPa 0,0 l/m 3,2 km/h (1 Bft) SO 135 0,000 mm -5,2 C 0,6 C 3,2 km/h (1 Bft) 86,96 %
29.03.2023 00:37 0,6 C 65 % 1029,0 hPa 0,0 l/m 4,8 km/h (1 Bft) SO 135 0,000 mm -5,2 C 0,6 C 6,4 km/h (2 Bft) 100,00 %
29.03.2023 00:36 0,8 C 64 % 1029,0 hPa 0,0 l/m 4,8 km/h (1 Bft) SO 135 0,000 mm -5,2 C 0,8 C 6,4 km/h (2 Bft) 95,65 %
29.03.2023 00:35 0,9 C 64 % 1029,0 hPa 0,0 l/m 4,8 km/h (1 Bft) SO 135 0,000 mm -5,1 C 0,9 C 6,4 km/h (2 Bft) 100,00 %
29.03.2023 00:34 1,1 C 63 % 1029,1 hPa 0,0 l/m 3,2 km/h (1 Bft) SO 135 0,000 mm -5,1 C 1,1 C 4,8 km/h (1 Bft) 100,00 %
29.03.2023 00:33 1,3 C 62 % 1029,1 hPa 0,0 l/m 3,2 km/h (1 Bft) SO 135 0,000 mm -5,2 C 1,3 C 4,8 km/h (1 Bft) 100,00 %
29.03.2023 00:32 1,4 C 62 % 1029,0 hPa 0,0 l/m 3,2 km/h (1 Bft) S-SO 157 0,000 mm -5,1 C 1,4 C 4,8 km/h (1 Bft) 100,00 %
29.03.2023 00:31 1,5 C 61 % 1029,1 hPa 0,0 l/m 3,2 km/h (1 Bft) SO 135 0,000 mm -5,2 C 1,5 C 4,8 km/h (1 Bft) 100,00 %
29.03.2023 00:30 1,6 C 61 % 1029,0 hPa 0,0 l/m 4,8 km/h (1 Bft) SO 135 0,000 mm -5,1 C 1,6 C 8,0 km/h (2 Bft) 91,30 %
29.03.2023 00:29 1,6 C 60 % 1029,1 hPa 0,0 l/m 4,8 km/h (1 Bft) S-SO 157 0,000 mm -5,3 C 1,6 C 8,0 km/h (2 Bft) 100,00 %
29.03.2023 00:28 1,6 C 60 % 1029,1 hPa 0,0 l/m 4,8 km/h (1 Bft) S-SO 157 0,000 mm -5,3 C 1,6 C 8,0 km/h (2 Bft) 100,00 %
29.03.2023 00:27 1,6 C 60 % 1029,0 hPa 0,0 l/m 3,2 km/h (1 Bft) SO 135 0,000 mm -5,3 C 1,6 C 6,4 km/h (2 Bft) 95,65 %
29.03.2023 00:26 1,6 C 61 % 1029,1 hPa 0,0 l/m 3,2 km/h (1 Bft) SO 135 0,000 mm -5,1 C 1,6 C 4,8 km/h (1 Bft) 95,65 %
29.03.2023 00:25 1,5 C 62 % 1029,1 hPa 0,0 l/m 3,2 km/h (1 Bft) SO 135 0,000 mm -5,0 C 1,5 C 6,4 km/h (2 Bft) 100,00 %
29.03.2023 00:24 1,4 C 62 % 1029,2 hPa 0,0 l/m 4,8 km/h (1 Bft) SO 135 0,000 mm -5,1 C 1,4 C 6,4 km/h (2 Bft) 95,65 %
29.03.2023 00:23 1,5 C 62 % 1029,1 hPa 0,0 l/m 3,2 km/h (1 Bft) S-SO 157 0,000 mm -5,0 C 1,5 C 6,4 km/h (2 Bft) 100,00 %
29.03.2023 00:22 1,4 C 62 % 1029,2 hPa 0,0 l/m 3,2 km/h (1 Bft) SO 135 0,000 mm -5,1 C 1,4 C 4,8 km/h (1 Bft) 100,00 %
29.03.2023 00:21 1,4 C 62 % 1029,2 hPa 0,0 l/m 4,8 km/h (1 Bft) S-SO 157 0,000 mm -5,1 C 1,4 C 6,4 km/h (2 Bft) 100,00 %
29.03.2023 00:20 1,4 C 61 % 1029,2 hPa 0,0 l/m 4,8 km/h (1 Bft) S-SO 157 0,000 mm -5,3 C 1,4 C 6,4 km/h (2 Bft) 100,00 %
29.03.2023 00:19 1,6 C 61 % 1029,2 hPa 0,0 l/m 4,8 km/h (1 Bft) S-SO 157 0,000 mm -5,1 C 1,6 C 6,4 km/h (2 Bft) 91,30 %
29.03.2023 00:18 1,7 C 60 % 1029,2 hPa 0,0 l/m 4,8 km/h (1 Bft) S-SO 157 0,000 mm -5,2 C 1,7 C 8,0 km/h (2 Bft) 95,65 %
29.03.2023 00:17 1,7 C 59 % 1029,2 hPa 0,0 l/m 3,2 km/h (1 Bft) SO 135 0,000 mm -5,4 C 1,7 C 4,8 km/h (1 Bft) 100,00 %
29.03.2023 00:16 1,8 C 59 % 1029,1 hPa 0,0 l/m 4,8 km/h (1 Bft) SO 135 0,000 mm -5,3 C 1,8 C 6,4 km/h (2 Bft) 91,30 %
29.03.2023 00:15 1,9 C 59 % 1029,0 hPa 0,0 l/m 3,2 km/h (1 Bft) S-SO 157 0,000 mm -5,2 C 1,9 C 4,8 km/h (1 Bft) 100,00 %
29.03.2023 00:14 2,1 C 59 % 1029,1 hPa 0,0 l/m 3,2 km/h (1 Bft) S-SO 157 0,000 mm -5,1 C 2,1 C 3,2 km/h (1 Bft) 100,00 %
29.03.2023 00:13 2,1 C 58 % 1029,1 hPa 0,0 l/m 4,8 km/h (1 Bft) SO 135 0,000 mm -5,3 C 2,1 C 6,4 km/h (2 Bft) 100,00 %
29.03.2023 00:12 2,2 C 58 % 1029,2 hPa 0,0 l/m 6,4 km/h (2 Bft) S-SO 157 0,000 mm -5,2 C 2,2 C 8,0 km/h (2 Bft) 100,00 %
29.03.2023 00:11 2,2 C 58 % 1029,3 hPa 0,0 l/m 6,4 km/h (2 Bft) S-SO 157 0,000 mm -5,2 C 2,2 C 8,0 km/h (2 Bft) 100,00 %
29.03.2023 00:10 2,2 C 58 % 1029,2 hPa 0,0 l/m 4,8 km/h (1 Bft) S-SO 157 0,000 mm -5,2 C 2,2 C 6,4 km/h (2 Bft) 95,65 %
29.03.2023 00:09 2,2 C 58 % 1029,3 hPa 0,0 l/m 4,8 km/h (1 Bft) S-SO 157 0,000 mm -5,2 C 2,2 C 6,4 km/h (2 Bft) 100,00 %
29.03.2023 00:08 2,2 C 58 % 1029,2 hPa 0,0 l/m 6,4 km/h (2 Bft) S-SO 157 0,000 mm -5,2 C 2,2 C 9,7 km/h (2 Bft) 100,00 %
29.03.2023 00:07 2,1 C 58 % 1029,3 hPa 0,0 l/m 6,4 km/h (2 Bft) S-SO 157 0,000 mm -5,3 C 2,1 C 9,7 km/h (2 Bft) 100,00 %
29.03.2023 00:06 2,0 C 59 % 1029,4 hPa 0,0 l/m 6,4 km/h (2 Bft) S-SO 157 0,000 mm -5,2 C 2,0 C 9,7 km/h (2 Bft) 91,30 %
29.03.2023 00:05 1,9 C 59 % 1029,4 hPa 0,0 l/m 6,4 km/h (2 Bft) S-SO 157 0,000 mm -5,2 C 1,9 C 9,7 km/h (2 Bft) 100,00 %
29.03.2023 00:04 1,9 C 60 % 1029,3 hPa 0,0 l/m 6,4 km/h (2 Bft) S-SO 157 0,000 mm -5,0 C 1,9 C 9,7 km/h (2 Bft) 100,00 %
29.03.2023 00:03 1,9 C 60 % 1029,4 hPa 0,0 l/m 4,8 km/h (1 Bft) S-SO 157 0,000 mm -5,0 C 1,9 C 8,0 km/h (2 Bft) 100,00 %
29.03.2023 00:02 1,9 C 60 % 1029,3 hPa 0,0 l/m 6,4 km/h (2 Bft) S 180 0,000 mm -5,0 C 1,9 C 8,0 km/h (2 Bft) 95,65 %
29.03.2023 00:01 1,9 C 59 % 1029,4 hPa 0,0 l/m 6,4 km/h (2 Bft) S 180 0,000 mm -5,2 C 1,9 C 8,0 km/h (2 Bft) 95,65 %
29.03.2023 00:00 2,1 C 59 % 1029,4 hPa 0,0 l/m 4,8 km/h (1 Bft) S 180 0,000 mm -5,1 C 2,1 C 8,0 km/h (2 Bft) 100,00 %
_ Min-Zeit 07:07 00:13 18:25 - 06:19 - - - 01:27 10:03 05:04 12:38
Minimum _ -1,3 C 58 % 1024,1 hPa - 0,0 km/h (0 Bft) - - - -5,5 C -12,0 C 0,0 km/h (0 Bft) 86,96 %
_ Max-Zeit 17:09 10:38 00:06 11:16 12:16 - - 18:25 17:00 17:03 10:04 18:25
Maximum _ 5,3 C 89 % 1029,4 hPa 0,2 l/m 24,1 km/h
SO (4 Bft)
- - 0,000 mm 2,5 C 3,8 C 29,0 km/h
O (5 Bft)
100,00 %
Durchschnitt _ 1,1 C 80 % 1026,9 hPa #0,2 l/m 12,4 km/h (3 Bft) O-SO - #0,000 mm -2,0 C -3,7 C 15,2 km/h (3 Bft) 98,50 %